[[{"header":{"parameterUnit":"m.s-1","parameterCategory":1,"la1":31.0,"la2":29.5877,"lo1":-88.7671,"lo2":-86.6584,"dy":0.0162,"dx":0.0185,"nx":115,"ny":88,"refTime":"2023-10-20T06:00:00:Z","depth":0,"parameterNumber":2,"parameterNumberName":"U-component_of_WINDS"},"data":[0.0,0.0,0.0,0.0,0.0,0.0,0.0,0.0,0.0,0.0,0.0,0.0,0.0,0.0,0.0,0.0,0.0,0.0,0.0,0.0,0.0,0.0,0.0,0.0,0.0,0.0,0.0,0.0,0.0,0.0,0.0,0.0,0.0,0.0,0.0,0.0,0.0,0.0,0.0,0.0,0.0,0.0,0.0,0.0,0.0,0.0,0.0,0.0,0.0,0.0,0.0,0.0,0.0,0.0,0.0,0.0,0.0,0.0,0.0,0.0,0.0,0.0,0.0,0.0,0.0,0.0,0.0,0.0,0.0,0.0,0.0,0.0,0.0,0.0,0.0,0.0,0.0,0.0,0.0,0.0,0.0,0.0,0.0,0.0,0.0,0.0,0.0,0.0,0.0,0.0,0.0,0.0,0.0,0.0,0.0,0.0,0.0,0.0,0.0,0.0,0.0,0.0,0.0,0.0,0.0,0.0,0.0,0.0,0.0,0.0,0.0,0.0,0.0,0.0,0.0,0.0,0.0,0.0,0.0,0.0,0.0,0.0,0.0,0.0,0.0,0.0,0.0,0.0,0.0,0.0,0.0,0.0,0.0,0.0,0.0,0.0,0.0,0.0,0.0,0.0,0.0,0.0,0.0,0.0,0.0,0.0,0.0,0.0,0.0,0.0,0.0,0.0,0.0,0.0,0.0,0.0,0.0,0.0,0.0,0.0,0.0,0.0,0.0,0.0,0.0,0.0,0.0,0.0,0.0,0.0,0.0,0.0,0.0,0.0,0.0,0.0,0.0,0.0,0.0,0.0,0.0,0.0,0.0,0.0,0.0,0.0,0.0,0.0,0.0,0.0,0.0,0.0,0.0,0.0,0.0,0.0,0.0,0.0,0.0,0.0,0.0,0.0,0.0,0.0,0.0,0.0,0.0,0.0,0.0,0.0,0.0,0.0,0.0,0.0,0.0,0.0,0.0,0.0,0.0,0.0,0.0,0.0,0.0,0.0,0.0,0.0,0.0,0.0,0.0,0.0,0.0,0.0,0.0,0.0,0.0,0.0,0.0,0.0,0.0,0.0,0.0,0.0,0.0,0.0,0.0,0.0,0.0,0.0,0.0,0.0,0.0,0.0,0.0,0.0,0.0,0.0,0.0,0.0,0.0,0.0,0.0,0.0,0.0,0.0,0.0,0.0,0.0,0.0,0.0,0.0,0.0,0.0,0.0,0.0,0.0,0.0,0.0,0.0,0.0,0.0,0.0,0.0,0.0,0.0,0.0,0.0,0.0,0.0,0.0,0.0,0.0,0.0,0.0,0.0,0.0,0.0,0.0,0.0,0.0,0.0,0.0,0.0,0.0,0.0,0.0,0.0,0.0,0.0,0.0,0.0,0.0,0.0,0.0,0.0,0.0,0.0,0.0,0.0,0.0,0.0,0.0,0.0,0.0,0.0,0.0,0.0,0.0,0.0,0.0,0.0,0.0,0.0,0.0,0.0,0.0,0.0,0.0,0.0,0.0,0.0,0.0,0.0,0.0,0.0,0.0,0.0,0.0,0.0,0.0,0.0,0.0,0.0,0.0,0.0,0.0,0.0,0.0,0.0,0.0,0.0,0.0,0.0,0.0,0.0,0.0,0.0,0.0,0.0,0.0,0.0,0.0,0.0,0.0,0.0,0.0,0.0,0.0,0.0,0.0,0.0,0.0,0.0,0.0,0.0,0.0,0.0,0.0,0.0,0.0,0.0,0.0,0.0,0.0,0.0,0.0,0.0,0.0,0.0,0.0,0.0,0.0,0.0,0.0,0.0,0.0,0.0,0.0,0.0,0.0,0.0,0.0,0.0,0.0,0.0,0.0,0.0,0.0,0.0,0.0,0.0,0.0,0.0,0.0,0.0,0.0,0.0,0.0,0.0,0.0,0.0,0.0,0.0,0.0,0.0,0.0,0.0,0.0,0.0,0.0,0.0,0.0,0.0,0.0,0.0,0.0,0.0,0.0,0.0,0.0,0.0,0.0,0.0,0.0,0.0,0.0,0.0,0.0,0.0,0.0,0.0,0.0,0.0,0.0,0.0,0.0,0.0,0.0,0.0,0.0,0.0,0.0,0.0,0.0,0.0,0.0,0.0,0.0,0.0,0.0,0.0,0.0,0.0,0.0,0.0,0.0,0.0,0.0,0.0,0.0,0.0,0.0,0.0,0.0,0.0,0.0,0.0,0.0,0.0,0.0,0.0,0.0,0.0,0.0,0.0,0.0,0.0,0.0,0.0,0.0,0.0,0.0,0.0,0.0,0.0,0.0,0.0,0.0,0.0,0.0,0.0,0.0,0.0,0.0,0.0,0.0,0.0,0.0,0.0,0.0,0.0,0.0,0.0,0.0,0.0,0.0,0.0,0.0,0.0,0.0,0.0,0.0,0.0,0.0,0.0,0.0,0.0,0.0,0.0,0.0,0.0,0.0,0.0,0.0,0.0,0.0,0.0,0.0,0.0,0.0,0.0,0.0,0.0,0.0,0.0,0.0,0.0,0.0,0.0,0.0,0.0,0.0,0.0,0.0,0.0,0.0,0.0,0.0,0.0,0.0,0.0,0.0,0.0,0.0,0.0,0.0,0.0,0.0,0.0,0.0,0.0,0.0,0.0,0.0,0.0,0.0,0.0,0.0,0.0,0.0,0.0,0.0,0.0,0.0,0.0,0.0,0.0,0.0,0.0,0.0,0.0,0.0,0.0,0.0,0.0,0.0,0.0,0.0,0.0,0.0,0.0,0.0,0.0,0.0,0.0,0.0,0.0,0.0,0.0,0.0,0.0,0.0,0.0,0.0,0.0,0.0,0.0,0.0,0.0,0.0,0.0,0.0,0.0,0.0,0.0,0.0,0.0,0.0,0.0,0.0,0.0,0.0,0.0,0.0,0.0,0.0,0.0,0.0,0.0,0.0,0.0,0.0,0.0,0.0,0.0,0.0,0.0,0.0,0.0,0.0,0.0,0.0,0.0,0.0,0.0,0.0,0.0,0.0,0.0,0.0,0.0,0.0,0.0,0.0,0.0,0.0,0.0,0.0,0.0,0.0,0.0,0.0,0.0,0.0,0.0,0.0,0.0,0.0,0.0,0.0,0.0,0.0,0.0,0.0,0.0,0.0,0.0,0.0,0.0,0.0,0.0,0.0,0.0,0.0,0.0,0.0,0.0,0.0,0.0,0.0,0.0,0.0,0.0,0.0,0.0,0.0,0.0,0.0,0.0,0.0,0.0,0.0,0.0,0.0,0.0,0.0,0.0,0.0,0.0,0.0,0.0,0.0,0.0,0.0,0.0,0.0,0.0,0.0,0.0,0.0,0.0,0.0,0.0,0.0,0.0,0.0,0.0,0.0,0.0,0.0,0.0,0.0,0.0,0.0,0.0,0.0,0.0,0.0,0.0,0.0,0.0,0.0,0.0,0.0,0.0,0.0,0.0,0.0,0.0,0.0,0.0,0.0,0.0,0.0,0.0,0.0,0.0,0.0,0.0,0.0,0.0,0.0,0.0,0.0,0.0,0.0,0.0,0.0,0.0,0.0,0.0,0.0,0.0,0.0,0.0,0.0,0.0,0.0,0.0,0.0,0.0,0.0,0.0,0.0,0.0,0.0,0.0,0.0,0.0,0.0,0.0,0.0,0.0,0.0,0.0,0.0,0.0,0.0,0.0,0.0,0.0,0.0,0.0,0.0,0.0,0.0,0.0,0.0,0.0,0.0,0.0,0.0,0.0,0.0,0.0,0.0,0.0,0.0,0.0,0.0,0.0,0.0,0.0,0.0,0.0,0.0,0.0,0.0,0.0,0.0,0.0,0.0,0.0,0.0,0.0,0.0,0.0,0.0,0.0,0.0,0.0,0.0,0.0,0.0,0.0,0.0,0.0,0.0,0.0,0.0,0.0,0.0,0.0,0.0,0.0,0.0,0.0,0.0,0.0,0.0,0.0,0.0,0.0,0.0,0.0,0.0,0.0,0.0,0.0,0.0,0.0,0.0,0.0,0.0,0.0,0.0,0.0,0.0,0.0,0.0,0.0,0.0,0.0,0.0,0.0,0.0,0.0,0.0,0.0,0.0,0.0,0.0,0.0,0.0,0.0,0.0,0.0,0.0,0.0,0.0,0.0,0.0,0.0,0.0,0.0,0.0,0.0,0.0,0.0,0.0,0.0,0.0,0.0,0.0,0.0,0.0,0.0,0.0,0.0,0.0,0.0,0.0,0.0,0.0,0.0,0.0,0.0,0.0,0.0,0.0,0.0,0.0,0.0,0.0,0.0,0.0,0.0,0.4036,0.0,0.0,0.0,0.0,0.0,0.0,0.0,0.0,0.0,0.0,0.0,0.0,0.0,0.0,0.0,0.0,0.0,0.0,0.0,0.0,0.0,0.0,0.0,0.0,0.0,0.0,0.0,0.0,0.0,0.0,0.0,0.0,0.0,0.0,0.0,0.0,0.0,0.0,0.0,0.0,0.0,0.0,0.0,0.0,0.0,0.0,0.0,0.0,0.0,0.0,0.0,0.0,0.0,0.0,0.0,0.0,0.0,0.0,0.0,0.0,0.0,0.0,0.0,0.0,0.0,0.0,0.0,0.0,0.0,0.0,0.0,0.0,0.0,0.0,0.0,0.0,0.0,0.0,0.0,0.0,0.0,0.0,0.0,0.0,0.0,0.0,0.0,0.0,0.0,0.0,0.0,0.0,0.0,0.0,0.0,0.0,0.0,0.0,0.0,0.0,0.0,0.0,0.0,0.0,0.0,0.0,0.0,0.0,0.0,0.0,0.4704,0.4145,0.4036,0.3924,0.3813,0.0,0.0,0.0,0.0,0.0,0.0,0.0,0.0,0.0,0.0,0.0,0.0,0.0,0.0,0.0,0.0,0.0,0.0,0.0,0.0,0.0,0.0,0.0,0.0,0.0,0.0,0.0,0.0,0.0,0.0,0.0,0.0,0.0,0.0,0.0,0.0,0.0,0.0,0.0,0.0,0.0,0.0,0.0,0.0,0.0,0.0,0.0,0.0,0.0,0.0,0.0,0.0,0.0,0.0,0.0,0.0,0.0,0.0,0.0,0.0,0.0,0.0,0.0,0.0,0.0,0.0,0.0,0.0,0.0,0.0,0.0,0.0,0.0,0.0,0.0,0.0,0.0,0.0,0.0,0.0,0.0,0.0,0.0,0.0,0.0,0.0,0.0,0.0,0.0,0.0,0.0,0.0,0.0,0.0,0.0,0.0,0.0,0.0,0.0,0.0,0.0,0.0,0.0,0.0,0.0,0.0,0.0,0.0,0.0,0.0,0.0,0.0,0.3813,0.3807,0.3567,0.0,0.0,0.0,0.0,0.0,0.0,0.0,0.0,0.0,0.0,0.0,0.0,0.0,0.0,0.0,0.0,0.0,0.0,0.0,0.0,0.0,0.0,0.0,0.0,0.0,0.0,0.0,0.0,0.0,0.0,0.0,0.0,0.0,0.0,0.0,0.0,0.0,0.0,0.0,0.0,0.0,0.0,0.0,0.0,0.0,0.0,0.0,0.0,0.0,0.0,0.0,0.0,0.0,0.0,0.0,0.0,0.0,0.0,0.0,0.0,0.0,0.0,0.0,0.0,0.0,0.0,0.0,0.0,0.0,0.0,0.0,0.0,0.0,0.0,0.0,0.0,0.0,0.0,0.0,0.0,0.0,0.0,0.0,0.0,0.0,0.0,0.0,0.0,0.0,0.0,0.0,0.0,0.0,0.0,0.0,0.0,0.0,0.0,0.0,0.0,0.0,0.0,0.0,0.0,0.0,0.0,0.0,0.0,0.0,0.0,0.4036,0.3924,0.3698,0.0,0.3507,0.0,0.0,0.0,0.0,0.0,0.0,0.0,0.0,0.0,0.0,0.0,0.0,0.0,0.0,0.0,0.0,0.0,0.0,0.0,0.0,0.0,0.0,0.0,0.0,0.0,0.0,0.0,0.0,0.0,0.0,0.0,0.0,0.0,0.0,0.0,0.0,0.0,0.0,0.0,0.0,0.0,0.0,0.0,0.0,0.0,0.0,0.0,0.0,0.0,0.0,0.0,0.0,0.0,0.0,0.0,0.0,0.0,0.0,0.0,0.0,0.0,0.0,0.0,0.0,0.0,0.0,0.0,0.0,0.0,0.0,0.0,0.0,0.0,0.0,0.0,0.0,0.0,0.0,0.0,0.0,0.0,0.0,0.0,0.0,0.0,0.0,0.0,0.0,0.0,0.0,0.0,0.0,0.0,0.0,0.0,0.0,0.0,0.0,0.0,0.0,0.0,0.0,0.0,0.0,0.0,0.0,0.0,0.0,0.0,0.0,0.3808,0.3703,0.3485,0.3471,0.0,0.0,0.0,0.0,0.0,0.0,0.0,0.0,0.0,0.0,0.0,0.0,0.0,0.0,0.0,0.0,0.0,0.0,0.0,0.0,0.0,0.0,0.0,0.0,0.0,0.0,0.0,0.0,0.0,0.0,0.0,0.0,0.0,0.0,0.0,0.0,0.0,0.0,0.0,0.0,0.0,0.0,0.0,0.0,0.0,0.0,0.0,0.0,0.0,0.0,0.0,0.0,0.0,0.0,0.0,0.0,0.0,0.0,0.0,0.0,0.0,0.0,0.0,0.0,0.0,0.0,0.0,0.0,0.0,0.0,0.0,0.0,0.0,0.0,0.0,0.0,0.0,0.0,0.0,0.0,0.0,0.0,0.0,0.0,0.0,0.0,0.0,0.0,0.0,0.0,0.0,0.0,0.0,0.0,0.0,0.0,0.0,0.0,0.0,0.0,0.0,0.0,0.0,0.0,0.0,0.0,0.0,0.0,0.0,0.0,0.3834,0.3624,0.3412,0.3395,0.3387,0.3387,0.0,0.0,0.0,0.0,0.0,0.0,0.0,0.0,0.0,0.0,0.0,0.0,0.0,0.0,0.0,0.0,0.0,0.0,0.0,0.0,0.0,0.0,0.0,0.0,0.0,0.0,0.0,0.0,0.0,0.0,0.0,0.0,0.0,0.0,0.0,0.0,0.0,0.0,0.0,0.0,0.0,0.0,0.0,0.0,0.0,0.0,0.0,0.0,0.0,0.0,0.0,0.0,0.0,0.0,0.0,0.0,0.0,0.0,0.0,0.0,0.0,0.0,0.0,0.0,0.0,0.0,0.0,0.0,0.0,0.0,0.0,0.0,0.0,0.0,0.0,0.0,0.0,0.0,0.0,0.0,0.0,0.0,0.0,0.0,0.0,0.0,0.0,0.0,0.0,0.0,0.0,0.0,0.0,0.0,0.0,0.0,0.0,0.0,0.0,0.0,0.0,0.0,0.0,0.0,0.0,0.0,0.0,0.0,0.3937,0.3621,0.3412,0.3406,0.3354,0.3327,0.0,0.0,0.0,0.0,0.0,0.0,0.0,0.0,0.0,0.0,0.0,0.0,0.0,0.0,0.0,0.0,0.0,0.0,0.0,0.0,0.0,0.0,0.0,0.0,0.0,0.0,0.0,0.0,0.0,0.0,0.0,0.0,0.0,0.0,0.0,0.0,0.0,0.0,0.0,0.0,0.0,0.0,0.0,0.0,0.0,0.0,0.0,0.0,0.0,0.0,0.0,0.0,0.0,0.0,0.0,0.0,0.0,0.0,0.0,0.0,0.0,0.0,0.0,0.0,0.0,0.0,0.0,0.0,0.0,0.0,0.0,0.0,0.0,0.0,0.0,0.0,0.0,0.0,0.0,0.0,0.0,0.0,0.0,0.0,0.0,0.0,0.0,0.0,0.0,0.0,0.0,0.0,0.0,0.0,0.0,0.0,0.0,0.0,0.0,0.0,0.0,0.0,0.0,0.0,0.0,0.0,0.0,0.0,0.0,0.35,0.3294,0.3294,0.3294,0.3275,0.316,0.0,0.0,0.0,0.0,0.0,0.0,0.0,0.0,0.0,0.0,0.0,0.0,0.0,0.0,0.0,0.0,0.0,0.0,0.0,0.0,0.0,0.0,0.0,0.0,0.0,0.0,0.0,0.0,0.0,0.0,0.0,0.0,0.0,0.0,0.0,0.0,0.0,0.0,0.0,0.0,0.0,0.0,0.0,0.0,0.0,0.0,0.0,0.0,0.0,0.0,0.0,0.0,0.0,0.0,0.0,0.0,0.0,0.0,0.0,0.0,0.0,0.0,0.0,0.0,0.0,0.0,0.0,0.0,0.0,0.0,0.0,0.0,0.0,0.0,0.0,0.0,0.0,0.0,0.0,0.0,0.0,0.0,0.0,0.0,0.0,0.0,0.0,0.0,0.0,0.0,0.0,0.0,0.0,0.0,0.0,0.0,0.0,0.0,0.0,0.0,0.0,0.0,0.0,0.0,0.0,0.0,0.0,0.0,0.0,0.3232,0.0,0.3131,0.3027,0.3027,0.2927,0.0,0.0,0.0,0.0,0.0,0.0,0.0,0.0,0.0,0.0,0.0,0.0,0.0,0.0,0.0,0.0,0.0,0.0,0.0,0.0,0.0,0.0,0.0,0.0,0.0,0.0,0.0,0.0,0.0,0.0,0.0,0.0,0.0,0.0,0.0,0.0,0.0,0.0,0.0,0.0,0.0,0.0,0.0,0.0,0.0,0.0,0.0,0.0,0.0,0.0,0.0,0.0,0.0,0.0,0.0,0.0,0.0,0.0,0.0,0.0,0.0,0.0,0.0,0.0,0.0,0.0,0.0,0.0,0.0,0.0,0.0,0.0,0.0,0.0,0.0,0.0,0.0,0.0,0.0,0.0,0.0,0.0,0.0,0.0,0.0,0.0,0.0,0.0,0.0,0.0,0.0,0.0,0.0,0.0,0.0,0.0,0.0,0.0,0.0,0.0,0.0,0.0,0.0,0.0,0.0,0.0,0.0,0.0,0.3232,0.3232,0.3232,0.3027,0.2826,0.2826,0.2725,0.0,0.0,0.0,0.0,0.0,0.0,0.0,0.0,0.0,0.0,0.0,0.0,0.0,0.0,0.0,0.0,0.0,0.0,0.0,0.0,0.0,0.0,0.0,0.0,0.0,0.0,0.0,0.0,0.0,0.0,0.0,0.0,0.0,0.0,0.0,0.0,0.0,0.0,0.0,0.0,0.0,0.0,0.0,0.0,0.0,0.0,0.0,0.0,0.0,0.0,0.0,0.0,0.0,0.0,0.0,0.0,0.0,0.0,0.0,0.0,0.0,0.0,0.0,0.0,0.0,0.0,0.0,0.0,0.0,0.0,0.0,0.0,0.0,0.0,0.0,0.0,0.0,0.0,0.0,0.0,0.0,0.0,0.0,0.0,0.0,0.0,0.0,0.0,0.0,0.0,0.0,0.0,0.0,0.0,0.0,0.0,0.0,0.0,0.0,0.0,0.0,0.0,0.0,0.0,0.0,0.0,0.0,0.0,0.0,0.2927,0.2927,0.2826,0.2523,0.2523,0.2423,0.0,0.0,0.0,0.0,0.0,0.0,0.0,0.0,0.0,0.0,0.0,0.0,0.0,0.0,0.0,0.0,0.0,0.0,0.0,0.0,0.0,0.0,0.0,0.0,0.0,0.0,0.0,0.0,0.0,0.0,0.0,0.0,0.0,0.0,0.0,0.0,0.0,0.0,0.0,0.0,0.0,0.0,0.0,0.0,0.0,0.0,0.0,0.0,0.0,0.0,0.0,0.0,0.0,0.0,0.0,0.0,0.0,0.0,0.0,0.0,0.0,0.0,0.0,0.0,0.0,0.0,0.0,0.0,0.0,0.0,0.0,0.0,0.0,0.0,0.0,0.0,0.0,0.0,0.0,0.0,0.0,0.0,0.0,0.0,0.0,0.0,0.0,0.0,0.0,0.0,0.0,0.0,0.0,0.0,0.0,0.0,0.0,0.0,0.0,0.0,0.0,0.0,0.0,0.0,0.0,0.0,0.0,0.0,0.0,0.2547,0.2633,0.2523,0.2221,0.2322,0.2221,0.192,0.0,0.0,0.0,0.0,0.0,0.0,0.0,0.0,0.0,0.0,0.0,0.0,0.0,0.0,0.0,0.0,0.0,0.0,0.0,0.0,0.0,0.0,0.0,0.0,0.0,0.0,0.0,0.0,0.0,0.0,0.0,0.0,0.0,0.0,0.0,0.0,0.0,0.0,0.0,0.0,0.0,0.0,0.0,0.0,0.0,0.0,0.0,0.0,0.0,0.0,0.0,0.0,0.0,0.0,0.0,0.0,0.0,0.0,0.0,0.0,0.0,0.0,0.0,0.0,0.0,0.0,0.0,0.0,0.0,0.0,0.0,0.0,0.0,0.0,0.0,0.0,0.0,0.0,0.0,0.0,0.0,0.0,0.0,0.0,0.0,0.0,0.0,0.0,0.0,0.0,0.0,0.0,0.0,0.0,0.0,0.0,0.0,0.0,0.0,0.0,0.0,0.0,0.0,0.0,0.0,0.0,0.0,0.0,0.2074,0.2243,0.2225,0.2026,0.2127,0.2024,0.0,0.0,0.0,0.0,0.0,0.0,0.0,0.0,0.0,0.0,0.0,0.0,0.0,0.0,0.0,0.0,0.0,0.0,0.0,0.0,0.0,0.0,0.0,0.0,0.0,0.0,0.0,0.0,0.0,0.0,0.0,0.0,0.0,0.0,0.0,0.0,0.0,0.0,0.0,0.0,0.0,0.0,0.0,0.0,0.0,0.0,0.0,0.0,0.0,0.0,0.0,0.0,0.0,0.0,0.0,0.0,0.0,0.0,0.0,0.0,0.0,0.0,0.0,0.0,0.0,0.0,0.0,0.0,0.0,0.0,0.0,0.0,0.0,0.0,0.0,0.0,0.0,0.0,0.0,0.0,0.0,0.0,0.0,0.0,0.0,0.0,0.0,0.0,0.0,0.0,0.0,0.0,0.0,0.0,0.0,0.0,0.0,0.0,0.0,0.0,0.0,0.0,0.0,0.0,0.0,0.0,0.0,0.0,0.0,0.2175,0.1962,0.1753,0.1754,0.1754,0.1742,0.0,0.0,0.0,0.0,0.0,0.0,0.0,0.0,0.0,0.0,0.0,0.0,0.0,0.0,0.0,0.0,0.0,0.0,0.0,0.0,0.0,0.0,0.0,0.0,0.0,0.0,0.0,0.0,0.0,0.0,0.0,0.0,0.0,0.0,0.0,0.0,0.0,0.0,0.0,0.0,0.0,0.0,0.0,0.0,0.0,0.0,0.0,0.0,0.0,0.0,0.0,0.0,0.0,0.0,0.0,0.0,0.0,0.0,0.0,0.0,0.0,0.0,0.0,0.0,0.0,0.0,0.0,0.0,0.0,0.0,0.0,0.0,0.0,0.0,0.0,0.0,0.0,0.0,0.0,0.0,0.0,0.0,0.0,0.0,0.0,0.0,0.0,0.0,0.0,0.0,0.0,0.0,0.0,0.0,0.0,0.0,0.0,0.0,0.0,0.0,0.0,0.0,0.0,0.0,0.0,0.0,0.0,0.0,0.206,0.1572,0.1163,0.0849,0.0743,0.1257,0.1339,0.0,0.0,0.0,0.0,0.0,0.0,0.0,0.0,0.0,0.0,0.0,0.0,0.0,0.0,0.0,0.0,0.0,0.0,0.0,0.0,0.0,0.0,0.0,0.0,0.0,0.0,0.0,0.0,0.0,0.0,0.0,0.0,0.0,0.0,0.0,0.0,0.0,0.0,0.0,0.0,0.0,0.0,0.0,0.0,0.0,0.0,0.0,0.0,0.0,0.0,0.0,0.0,0.0,0.0,0.0,0.0,0.0,0.0,0.0,0.0,0.0,0.0,0.0,0.0,0.0,0.0,0.0,0.0,0.0,0.0,0.0,0.0,0.0,0.0,0.0,0.0,0.0,0.0,0.0,0.0,0.0,0.0,0.0,0.0,0.0,0.0,0.0,0.0,0.0,0.0,0.0,0.0,0.0,0.0,0.0,0.0,0.0,0.0,0.0,0.0,0.0,0.0,0.0,0.0,0.0,0.0,0.0,0.0,0.1674,0.0745,0.0108,-0.0437,-0.0765,0.053,0.0826,0.0,0.0,0.0,0.0,0.0,0.0,0.0,0.0,0.0,0.0,0.0,0.0,0.0,0.0,0.0,0.0,0.0,0.0,0.0,0.0,0.0,0.0,0.0,0.0,0.0,0.0,0.0,0.0,0.0,0.0,0.0,0.0,0.0,0.0,0.0,0.0,0.0,0.0,0.0,0.0,0.0,0.0,0.0,0.0,0.0,0.0,0.0,0.0,0.0,0.0,0.0,0.0,0.0,0.0,0.0,0.0,0.0,0.0,0.0,0.0,0.0,0.0,0.0,0.0,0.0,0.0,0.0,0.0,0.0,0.0,0.0,0.0,0.0,0.0,0.0,0.0,0.0,0.0,0.0,0.0,0.0,0.0,0.0,0.0,0.0,0.0,0.0,0.0,0.0,0.0,0.0,0.0,0.0,0.0,0.0,0.0,0.0,0.0,0.0,0.0,0.0,0.0,0.0,0.0,0.0,0.0,0.0,0.0,0.1673,0.0532,-0.0758,-0.175,-0.2406,-0.1394,-0.1261,0.0,0.0,0.0,0.0,0.0,0.0,0.0,0.0,0.0,0.0,0.0,0.0,0.0,0.0,0.0,0.0,0.0,0.0,0.0,0.0,0.0,0.0,0.0,0.0,0.0,0.0,0.0,0.0,0.0,0.0,0.0,0.0,0.0,0.0,0.0,0.0,0.0,0.0,0.0,0.0,0.0,0.0,0.0,0.0,0.0,0.0,0.0,0.0,-0.1359,0.0,0.0,0.0,0.0,0.0,0.0,0.0,0.0,0.0,0.0,0.0,0.0,0.0,0.0,0.0,0.0,0.0,0.0,0.0,0.0,0.0,0.0,0.0,0.0,0.0,0.0,0.0,0.0,0.0,0.0,0.0,0.0,0.0,0.0,0.0,0.0,0.0,0.0,0.0,0.0,0.0,0.0,0.0,0.0,0.0,0.0,0.0,0.0,0.0,0.0,0.0,0.0,0.0,0.0,0.0,0.0,0.0,0.0,0.0,0.0949,-0.0106,-0.131,-0.2433,-0.3314,-0.2804,-0.2533,0.0,0.0,0.0,0.0,0.0,0.0,0.0,0.0,0.0,0.0,0.0,0.0,0.0,0.0,0.0,0.0,0.0,0.0,0.0,0.0,0.0,0.0,0.0,0.0,0.0,0.0,0.0,0.0,0.0,0.0,0.0,0.0,0.0,0.0,0.0,0.0,0.0,0.0,0.0,0.0,0.0,0.0,0.0,0.0,0.0,0.0,0.0,0.0,0.0,0.0,0.0,0.0,0.0,0.0,0.0,0.0,0.0,0.0,0.0,0.0,0.0,0.0,0.0,0.0,0.0,0.0,0.0,0.0,0.0,0.0,0.0,0.0,0.0,0.0,0.0,0.0,0.0,0.0,0.0,0.0,0.0,0.0,0.0,0.0,0.0,0.0,0.0,0.0,0.0,0.0,0.0,0.0,0.0,0.0,0.0,0.0,0.0,0.0,0.0,0.0,0.0,0.0,0.0,0.0,0.0,0.0,0.0,0.0733,-0.0,-0.0853,-0.1971,-0.3001,-0.4107,-0.4069,-0.3761,-0.3408,0.0,0.0,0.0,0.0,0.0,0.0,0.0,0.0,0.0,0.0,0.0,0.0,0.0,0.0,0.0,0.0,0.0,0.0,0.0,0.0,0.0,0.0,0.0,0.0,0.0,0.0,0.0,0.0,0.0,0.0,0.0,0.0,0.0,0.0,0.0,0.0,0.0,0.0,0.1785,0.1929,0.0,0.0,0.0,0.0,0.0,0.0,0.0,0.0,-0.1631,0.0,0.0,0.0,0.0,0.0,0.0,0.0,0.0,0.0,0.0,0.0,0.0,0.0,0.0,0.0,0.0,0.0,0.0,0.0,0.0,0.0,0.0,0.0,0.0,0.0,0.0,0.0,0.0,0.0,0.0,0.0,0.0,0.0,0.0,0.0,0.0,0.0,0.0,0.0,0.0,0.0,0.0,0.0,0.0,0.0,0.0,0.0,0.0,0.0,0.0,0.0,0.0,0.0,0.0,0.0,0.0,0.0303,0.0105,-0.0533,-0.1704,-0.3211,-0.4186,-0.4714,-0.551,-0.5594,-0.5052,0.0,0.0,0.0,0.0,0.0,0.0,0.0,0.0,0.0,0.0,0.0,0.0,0.0,0.0,0.0,0.0,0.0,0.0,0.0,0.0,0.0,0.0,0.0,0.0,0.0,0.0,0.0,0.0,0.0,0.0,0.0,0.0,0.0,0.0,0.0,0.0,0.0,0.0,0.0,0.1628,0.2015,0.0,0.0,0.0,0.0,0.0,0.0,0.0,0.0,-0.2053,0.0,0.0,0.0,0.0,0.0,0.0,0.0,0.0,0.0,0.0,0.0,0.0,0.0,0.0,0.0,0.0,0.0,0.0,0.0,0.0,0.0,0.0,0.0,0.0,0.0,0.0,0.0,0.0,0.0,0.0,0.0,0.0,0.0,0.0,0.0,0.0,0.0,0.0,0.0,0.0,0.0,0.0,0.0,0.0,0.0,0.0,0.0,0.0,0.0,0.0,0.0,0.0,0.0,0.0,0.0,-0.0708,-0.083,-0.1361,-0.2281,-0.3761,-0.4802,-0.5476,-0.6289,-0.6617,0.0,0.0,0.0,0.0,0.0,0.0,0.0,0.0,0.0,0.0,0.0,0.0,0.0,0.0,0.0,0.0,0.0,0.0,0.0,0.0,0.0,0.0,0.0,0.0,0.0,0.0,0.0,0.0,0.0,0.0,0.0,0.0,0.0,0.0,0.0,0.0,0.0,0.0,0.0,0.0,0.0739,0.0981,0.0996,0.0,0.0,0.0,0.0,0.0,0.0,-0.1275,-0.1523,0.0,0.0,0.0,0.0,0.0,0.0,0.0,0.0,0.0,0.0,0.0,0.0,0.0,0.0,0.0,0.0,0.0,0.0,0.0,0.0,0.0,0.0,0.0,0.0,0.0,0.0,0.0,0.0,0.0,0.0,0.0,0.0,0.0,0.0,0.0,0.0,0.0,0.0,0.0,0.0,0.0,0.0,0.0,0.0,0.0,0.0,0.0,0.0,0.0,0.0,0.0,0.0,0.0,0.0,0.0,-0.1517,-0.1853,-0.2165,-0.2843,-0.4184,-0.5284,-0.62,-0.6822,-0.6997,0.0,0.0,0.0,0.0,0.0,0.0,0.0,0.0,0.0,0.0,0.0,0.0,0.0,0.0,0.0,0.0,0.0,0.0,0.0,0.0,0.0,0.0,0.0,0.0,0.0,0.0,0.0,0.0,0.0,0.0,0.0,0.0,0.0,0.0,0.0,0.0,0.0,0.0,0.0,0.0,0.0,-0.0,-0.0,-0.0,0.0,0.0,0.0,0.0,-0.0392,-0.0896,0.0,0.0,0.0,0.0,0.0,0.0,0.0,0.0,0.0,0.0,0.0,0.0,0.0,0.0,0.0,0.0,0.0,0.0,0.0,0.0,0.0,0.0,0.0,0.0,0.0,0.0,0.0,0.0,0.0,0.0,0.0,0.0,0.0,0.0,0.0,0.0,0.0,0.0,0.0,0.0,0.0,0.0,0.0,0.0,0.0,0.0,0.0,0.0,0.0,0.0,0.0,0.0,0.0,0.0,0.0,0.0,-0.1618,-0.257,-0.3109,-0.3403,-0.4503,-0.5704,-0.6869,-0.7073,-0.7073,0.0,0.0,0.0,0.0,0.0,0.0,0.0,0.0,0.0,0.0,0.0,0.0,0.0,0.0,0.0,0.0,0.0,0.0,0.0,0.0,0.0,0.0,0.0,0.0,0.0,0.0,0.0,0.0,0.0,0.0,0.0,0.0,0.0,0.0,0.0,0.0,0.0,0.0,0.0,0.0,0.0,-0.0,-0.0,-0.0,-0.0,0.0,0.0,-0.0537,-0.1771,-0.2022,0.0,0.0,0.0,0.0,0.0,0.0,0.0,0.0,0.0,0.0,0.0,0.0,0.0,0.0,0.0,0.0,0.0,0.0,0.0,0.0,0.0,0.0,0.0,0.0,0.0,0.0,0.0,0.0,0.0,0.0,0.0,0.0,0.0,0.0,0.0,0.0,0.0,0.0,0.0,0.0,0.0,0.0,0.0,0.0,0.0,0.0,0.0,0.0,0.0,0.0,0.0,0.0,0.0,0.0,0.0,-0.0404,-0.1921,-0.2954,-0.3451,-0.3404,-0.5027,-0.6713,-0.8182,-0.7966,-0.7773,0.0,0.0,0.0,0.0,0.0,0.0,0.0,0.0,0.0,0.0,0.0,0.0,0.0,0.0,0.0,0.0,0.0,0.0,0.0,0.0,0.0,0.0,0.0,0.0,0.0,0.0,0.0,0.0,0.0,0.0,0.0,0.0,0.0,0.0,0.0,0.0,0.0,0.0,0.0,0.0,0.0,0.0,-0.0,-0.0,0.0,0.0,0.0,-0.1336,-0.1627,0.0,0.0,0.0,0.0,0.0,0.0,0.0,0.0,0.0,0.0,0.0,0.0,0.0,0.0,0.0,0.0,0.0,0.0,0.0,0.0,0.0,0.0,0.0,0.0,0.0,0.0,0.0,0.0,0.0,0.0,0.0,0.0,0.0,0.0,0.0,0.0,0.0,0.0,0.0,0.0,0.0,0.0,0.0,0.0,0.0,0.0,0.0,0.0,0.0,0.0,0.0,0.0,0.0,0.0,0.0,0.0,0.0,-0.2324,-0.3534,-0.4104,-0.3932,-0.5874,-0.7664,-0.9091,-0.8707,0.0,0.0,0.0,0.0,0.0,0.0,0.0,0.0,0.0,0.0,0.0,0.0,0.0,0.0,0.0,0.0,0.0,0.0,0.0,0.0,0.0,0.0,0.0,0.0,0.0,0.0,0.0,-0.0,0.0,0.0,0.0,0.0,0.0,0.0,0.0,0.0,0.0,0.0,0.0,0.0,0.0,0.0,-0.0129,-0.053,-0.0532,-0.0928,0.0,0.0,-0.2019,-0.1502,-0.1904,-0.2312,0.0,0.0,0.0,0.0,0.0,0.0,0.0,0.0,0.0,0.0,0.0,0.0,0.0,0.0,0.0,0.0,0.0,0.0,0.0,0.0,0.0,0.0,0.0,0.0,0.0,0.0,0.0,0.0,0.0,0.0,0.0,0.0,0.0,0.0,0.0,0.0,0.0,0.0,0.0,0.0,0.0,0.0,0.0,0.0,0.0,0.0,0.0,0.0,0.0,0.0,0.0,0.0,0.0,0.0,0.0,-0.2725,-0.4437,-0.5436,-0.5722,-0.729,-0.849,-0.9268,-0.9023,-0.8729,0.0,0.0,0.0,0.0,0.0,0.0,0.0,0.0,0.0,0.0,0.0,0.0,0.0,0.0,0.0,0.0,0.0,0.0,0.0,0.0,0.0,0.0,0.0,0.0,0.0,0.0,0.0,0.0,0.0,0.0,0.0,0.0,0.0,0.0,0.0,0.0,0.0,0.0,0.0,0.0,0.0,-0.0546,-0.1918,-0.2101,-0.1981,0.0,0.0,-0.2247,-0.2277,-0.2234,-0.2207,-0.2237,0.0,0.0,0.0,0.0,0.0,0.0,0.0,0.0,0.0,0.0,0.0,0.0,0.0,0.0,0.0,0.0,0.0,0.0,0.0,0.0,0.0,0.0,0.0,0.0,0.0,0.0,0.0,0.0,0.0,0.0,0.0,0.0,0.0,0.0,0.0,0.0,0.0,0.0,0.0,0.0,0.0,0.0,0.0,0.0,0.0,0.0,0.0,0.0,0.0,0.0,0.0,0.0,0.0,-0.2624,-0.3528,-0.4634,-0.5832,-0.683,-0.797,-0.9029,-1.013,-0.9782,-0.9477,0.0,0.0,0.0,0.0,0.0,0.0,0.0,0.0,0.0,0.0,0.0,0.0,0.0,0.0,0.0,0.0,0.0,0.0,0.0,0.0,0.0,0.0,0.0,0.0,0.0,0.0,0.0,0.0,-0.0,-0.0,-0.0,0.0,0.0,0.0,0.0,0.0,0.0,0.0,0.0,0.0,0.0,-0.0944,-0.1508,-0.1956,0.0,0.0,-0.2119,-0.2419,-0.2573,-0.2553,-0.2674,-0.2947,-0.2879,0.0,0.0,0.0,0.0,0.0,0.0,0.0,0.0,0.0,0.0,0.0,0.0,0.0,0.0,0.0,0.0,0.0,0.0,0.0,0.0,0.0,0.0,0.0,0.0,0.0,0.0,0.0,0.0,0.0,0.0,0.0,0.0,0.0,0.0,0.0,0.0,0.0,0.0,0.0,0.0,0.0,0.0,0.0,0.0,0.0,0.0,0.0,0.0,0.0,0.0,0.0,0.0,-0.3428,-0.4236,-0.5231,-0.6331,-0.7726,-0.8627,-0.9624,-1.052,-1.0262,-1.0058,0.0,0.0,0.0,0.0,0.0,0.0,0.0,0.0,0.0,0.0,0.0,0.0,0.0,0.0,0.0,0.0,0.0,0.0,0.0,0.0,0.0,0.0,0.0,0.0,0.0,0.0,0.0,0.0,-0.0,-0.0109,-0.0543,0.0,0.0,0.0,0.0,0.0,0.0,0.0,0.0,0.0,0.0,-0.1474,-0.1516,-0.2099,-0.2544,-0.2555,-0.2576,-0.2736,-0.3022,-0.3011,-0.3132,-0.3371,0.0,0.0,0.0,0.0,0.0,0.0,0.0,0.0,0.0,0.0,0.0,0.0,0.0,0.0,0.0,0.0,0.0,0.0,0.0,0.0,0.0,0.0,0.0,0.0,0.0,0.0,0.0,0.0,0.0,0.0,0.0,0.0,0.0,0.0,0.0,0.0,0.0,0.0,0.0,0.0,0.0,0.0,0.0,0.0,0.0,0.0,0.0,0.0,0.0,0.0,0.0,0.0,0.0,-0.4031,-0.4834,-0.6137,-0.7329,-0.8336,-0.9426,-1.0126,-1.0413,-1.043,-1.0325,-1.0019,0.0,0.0,0.0,0.0,0.0,0.0,0.0,0.0,0.0,0.0,0.0,0.0,0.0,0.0,0.0,0.0,0.0,0.0,0.0,0.0,0.0,0.0,0.0,0.0,0.0,0.0,-0.0,-0.0,-0.0535,0.0,0.0,0.0,0.0,0.0,0.0,0.0,0.0,0.0,0.0,-0.2116,-0.2176,-0.2234,-0.2694,-0.3013,-0.2905,-0.3205,-0.3498,-0.3496,-0.3461,-0.3416,0.0,0.0,0.0,0.0,0.0,0.0,0.0,0.0,0.0,0.0,0.0,0.0,0.0,0.0,0.0,0.0,0.0,0.0,0.0,0.0,0.0,0.0,0.0,0.0,0.0,0.0,0.0,0.0,-0.1546,0.0,0.0,0.0,0.0,0.0,0.0,0.0,0.0,0.0,0.0,0.0,-0.265,-0.2787,0.0,0.0,0.0,0.0,0.0,0.0,0.0,0.0,0.0,0.0,0.0,0.0,-0.4863,-0.5843,-0.6963,-0.7978,-0.8787,-0.9593,-1.0037,-1.0422,-1.0253,-0.992,-0.9392,0.0,0.0,0.0,0.0,0.0,0.0,0.0,0.0,0.0,0.0,0.0,0.0,0.0,0.0,0.0,0.0,0.0,0.0,0.0,0.0,0.0,0.0,0.0,0.0,0.0,-0.0332,0.0,0.0,0.0,0.0,0.0,0.0,0.0,0.0,0.0,0.0,0.0,-0.2031,-0.206,-0.2382,-0.2584,-0.2655,-0.2979,-0.3295,0.0,0.0,0.0,0.0,0.0,0.0,0.0,0.0,0.0,0.0,0.0,0.0,0.0,0.0,-0.4667,-0.3769,-0.3455,-0.3455,-0.3599,0.0,0.0,0.0,0.0,0.0,0.0,0.0,0.0,0.0,0.0,0.0,0.0,0.0,0.0,0.0,0.0,-0.2174,0.0,0.0,0.0,0.0,0.0,0.0,0.0,0.0,-0.2271,-0.2523,-0.297,-0.3114,-0.3229,0.0,-0.3031,-0.2962,0.0,0.0,0.0,0.0,0.0,0.0,0.0,0.0,-0.5625,-0.6519,-0.7589,-0.8419,-0.9086,-0.9478,-0.9928,-1.022,-0.9979,-0.9665,-0.916,-0.8543,-0.7858,0.0,0.0,0.0,0.0,0.0,0.0,0.0,0.0,0.0,0.0,0.0,0.0,0.0,0.0,0.0,0.0,0.0,0.0,0.0,0.0,0.0,0.0,0.0,-0.0679,0.0,0.0,0.0,0.0,0.0,0.0,0.0,0.0,0.0,-0.1977,-0.2001,-0.2038,-0.2219,-0.2519,-0.2711,-0.295,0.0,0.0,0.0,0.0,0.0,0.0,0.0,-0.4725,-0.5317,-0.5465,-0.5786,-0.6312,-0.6302,-0.6295,-0.6123,0.0,0.0,-0.4264,-0.4084,-0.4096,-0.4096,-0.4396,-0.4548,-0.4548,-0.4728,-0.4929,0.0,0.0,0.0,0.0,0.0,0.0,0.0,0.0,-0.2809,-0.292,0.0,-0.2879,0.0,0.0,0.0,0.0,0.0,0.0,0.0,0.0,-0.2979,-0.3139,-0.3303,-0.3661,-0.3779,-0.3774,-0.3714,-0.3651,-0.3583,-0.2881,0.0,0.0,0.0,0.0,0.0,0.0,-0.6313,-0.7141,-0.7994,-0.873,-0.9108,-0.9407,-0.9595,-0.979,-0.9657,-0.9541,-0.9227,-0.8394,-0.7663,-0.6823,-0.5757,0.0,0.0,0.0,0.0,0.0,0.0,0.0,0.0,0.0,0.0,0.0,0.0,0.0,0.0,0.0,0.0,0.0,0.0,0.0,0.0,-0.1402,0.0,0.0,0.0,0.0,0.0,0.0,0.0,0.0,0.0,0.0,-0.2123,-0.2012,-0.2186,-0.268,0.0,0.0,0.0,0.0,-0.399,-0.414,-0.4609,-0.4782,-0.4839,-0.5153,-0.5461,-0.5613,0.0,0.0,-0.7012,-0.6859,-0.6669,-0.6816,-0.6502,-0.5915,-0.5183,-0.5177,-0.5207,-0.5207,-0.5204,-0.5213,-0.5213,-0.5207,-0.5264,-0.3753,0.0,0.0,0.0,0.0,-0.363,-0.3524,-0.3386,-0.3605,-0.3584,-0.3569,-0.3331,0.0,0.0,0.0,0.0,0.0,0.0,-0.2717,-0.3196,-0.3158,-0.3451,-0.3836,-0.3959,-0.3959,-0.3954,-0.3858,-0.3777,-0.3711,-0.3466,-0.3353,-0.3362,0.0,0.0,0.0,0.0,-0.6537,-0.7276,-0.8355,-0.9048,-0.9111,-0.9315,-0.9362,-0.9139,-0.8991,-0.8749,-0.8214,-0.7877,-0.743,-0.6847,-0.5996,0.0,0.0,0.0,0.0,0.0,0.0,0.0,0.0,0.0,0.0,0.0,0.0,0.0,0.0,0.0,0.0,0.0,0.0,0.0,-0.1986,-0.1782,-0.1683,0.0,0.0,0.0,0.0,0.0,0.0,0.0,0.0,0.0,-0.3113,-0.283,-0.2697,0.0,0.0,-0.3667,-0.39,-0.4223,-0.4564,-0.4657,0.0,0.0,0.0,-0.5329,-0.5896,-0.6214,-0.6989,-0.7667,-0.8037,-0.7765,-0.7309,-0.7061,-0.6764,-0.6237,-0.564,-0.5529,-0.5466,-0.5458,-0.5458,-0.5458,-0.5458,-0.5491,-0.5551,-0.4256,-0.4076,-0.4087,-0.4057,-0.4008,-0.4065,-0.3949,-0.3799,-0.4016,-0.3986,-0.3962,-0.3694,-0.3277,-0.2616,-0.226,0.0,0.0,0.0,-0.2823,-0.3444,-0.3653,-0.3817,-0.4071,-0.4071,-0.4071,-0.4068,-0.4,-0.3935,-0.3875,-0.3777,-0.3684,-0.3586,0.0,0.0,-0.4717,-0.5647,-0.644,-0.7197,-0.8075,-0.8553,-0.8602,-0.8595,-0.8548,-0.8255,-0.817,-0.7834,-0.7442,-0.7187,-0.6719,-0.6134,-0.5508,-0.4804,0.0,0.0,0.0,0.0,0.0,0.0,0.0,0.0,0.0,0.0,0.0,-0.1587,-0.1247,0.0,0.0,0.0,-0.1397,-0.1545,-0.1919,-0.197,0.0,0.0,0.0,0.0,0.0,0.0,0.0,-0.3077,-0.3404,-0.359,-0.3782,-0.3654,-0.3486,-0.3698,-0.3882,-0.4092,-0.4315,0.0,-0.4891,-0.4976,-0.5038,-0.5095,-0.5145,-0.573,-0.6487,-0.7216,-0.7742,-0.8105,-0.8242,-0.7933,-0.7453,-0.7187,-0.6876,-0.6541,-0.6006,-0.5918,-0.5818,-0.5755,-0.5758,-0.5771,-0.5771,-0.5801,-0.5845,-0.448,-0.4428,-0.4373,-0.4305,-0.4237,-0.4294,-0.4155,-0.3973,-0.41,-0.4196,-0.4007,-0.3949,-0.3608,-0.2784,-0.2182,0.0,0.0,-0.2498,-0.2913,-0.3422,-0.3984,-0.4139,-0.401,-0.4139,-0.4139,-0.401,-0.4007,-0.3976,-0.392,-0.3862,-0.3927,-0.3861,-0.3807,-0.4186,-0.5026,-0.5534,-0.6117,-0.6877,-0.732,-0.7656,-0.775,-0.7425,-0.7322,-0.7317,-0.721,-0.6985,-0.6635,-0.6427,-0.5903,-0.5057,-0.4477,-0.3861,-0.3227,0.0,0.0,0.0,0.0,0.0,0.0,0.0,0.0,0.0,0.0,0.0,0.0,0.0,0.0,0.0,-0.193,0.0,-0.199,-0.2069,0.0,0.0,0.0,-0.2745,-0.2954,-0.3248,-0.3586,-0.3724,0.0,0.0,0.0,0.0,-0.4584,-0.4386,-0.4352,-0.4384,-0.4794,-0.5019,-0.5098,-0.5215,-0.5281,-0.5363,-0.5458,-0.6179,-0.7104,-0.7964,-0.8121,-0.8065,-0.7977,-0.767,-0.721,-0.693,-0.6776,-0.6788,-0.6463,-0.6256,-0.6237,-0.6066,-0.6074,-0.6106,-0.6096,-0.6096,-0.6112,-0.4752,-0.4739,-0.4725,-0.4578,-0.436,-0.4417,-0.4433,-0.4414,-0.4373,-0.4184,-0.3727,-0.3803,-0.3337,-0.2623,-0.2274,-0.2273,-0.25,-0.2575,-0.2741,-0.3136,-0.3309,-0.3461,-0.3464,-0.3464,-0.3464,-0.3461,-0.3296,-0.3273,-0.3388,-0.356,-0.3613,-0.3556,-0.3809,-0.4141,-0.4543,-0.5333,-0.5969,-0.6325,-0.6984,-0.7143,-0.7006,-0.6895,-0.6674,-0.6232,-0.6139,-0.5751,-0.5047,-0.5114,-0.4829,-0.4187,-0.3834,-0.345,-0.3045,-0.2577,0.0,0.0,0.0,0.0,0.0,0.0,0.0,0.0,0.0,-0.1876,-0.1757,0.0,-0.191,0.0,-0.199,-0.2063,-0.2108,-0.2173,0.0,0.0,-0.2703,-0.3072,-0.312,-0.3752,-0.4271,-0.4234,-0.4606,-0.4979,-0.5039,-0.5111,-0.515,-0.5137,-0.5058,-0.5013,-0.5207,-0.53,-0.5392,-0.5463,-0.5523,-0.5591,-0.5665,-0.6249,-0.6887,-0.7638,-0.7705,-0.7774,-0.791,-0.7365,-0.7,-0.7031,-0.6647,-0.646,-0.6281,-0.6316,-0.6335,-0.6292,-0.6259,-0.6237,-0.6234,-0.6237,-0.6254,-0.4391,-0.424,-0.424,-0.4302,-0.431,-0.4602,-0.4589,-0.4559,-0.4361,-0.4041,-0.3728,-0.3365,-0.3023,-0.2576,-0.2206,-0.2205,-0.232,-0.2371,-0.2661,-0.2931,-0.2952,-0.3096,-0.3228,-0.3228,-0.3228,-0.3228,-0.3226,-0.3224,-0.322,-0.3415,-0.3622,-0.3591,-0.3745,-0.4007,-0.4257,-0.4861,-0.5354,-0.5643,-0.6261,-0.6266,-0.5998,-0.5773,-0.5547,-0.5096,-0.487,-0.4582,-0.3986,-0.4053,-0.3875,-0.3316,-0.3077,-0.2819,-0.2551,-0.2295,-0.2045,0.0,0.0,0.0,0.0,0.0,0.0,0.0,0.0,0.0,0.0,0.0,-0.1886,0.0,-0.2139,0.0,-0.2249,-0.2309,-0.2345,-0.2345,-0.2865,-0.3087,-0.3125,-0.3952,-0.4498,-0.4602,-0.4974,-0.5357,-0.5442,-0.5504,-0.5564,-0.5624,-0.56,-0.5542,-0.548,-0.5556,-0.5646,-0.5676,-0.5733,-0.5985,-0.6253,-0.6532,-0.7005,-0.7496,-0.7526,-0.7372,-0.7479,-0.7107,-0.6722,-0.6748,-0.6558,-0.6371,-0.6196,-0.6024,-0.6052,-0.5871,-0.5654,-0.5819,-0.6373,-0.6182,-0.6011,-0.3953,-0.3649,-0.3649,-0.3797,-0.4245,-0.4502,-0.4591,-0.4527,-0.4181,-0.3868,-0.3569,-0.2891,-0.2556,-0.2525,-0.226,-0.2127,-0.2128,-0.2154,-0.2303,-0.2572,-0.2707,-0.2843,-0.3111,-0.3111,-0.3111,-0.3113,-0.315,-0.3168,-0.3304,-0.3537,-0.365,-0.3773,-0.3899,-0.4076,-0.4063,-0.4157,-0.4535,-0.4975,-0.5314,-0.5272,-0.485,-0.462,-0.4271,-0.3917,-0.3695,-0.3401,-0.314,-0.3314,-0.2991,-0.2529,-0.2404,-0.2276,-0.2019,-0.2003,-0.2003,0.0,-0.2033,0.0,0.0,0.0,0.0,0.0,0.0,0.0,0.0,-0.1818,-0.1744,-0.1835,-0.2028,-0.2216,-0.2398,-0.2453,-0.2488,-0.2493,-0.2863,-0.3239,-0.3271,-0.3968,-0.4533,-0.4636,-0.5163,-0.538,-0.5491,-0.5554,-0.5607,-0.5472,-0.5511,-0.5488,-0.5573,-0.5607,-0.5848,-0.5856,-0.5913,-0.6179,-0.6666,-0.6779,-0.6854,-0.7263,-0.707,-0.6704,-0.6765,-0.6379,-0.6198,-0.6243,-0.6259,-0.608,-0.5723,-0.5528,-0.5549,-0.5168,-0.4964,-0.5147,-0.5903,-0.5908,-0.5533,-0.3899,-0.3743,-0.3741,-0.3721,-0.3842,-0.3831,-0.4082,-0.429,-0.409,-0.3754,-0.3,-0.2526,-0.2225,-0.2219,-0.2219,-0.2219,-0.2219,-0.2225,-0.2228,-0.2229,-0.2229,-0.2367,-0.2367,-0.2367,-0.2367,-0.2367,-0.2374,-0.2515,-0.2932,-0.3064,-0.332,-0.3832,-0.4208,-0.4305,0.0,0.0,0.0,0.0,-0.4831,-0.4674,-0.4064,-0.3942,-0.368,-0.3049,-0.2966,0.0,-0.2578,-0.2617,-0.253,-0.2181,-0.2184,0.0,0.0,0.0,0.0,0.0,0.0,0.0,0.0,0.0,0.0,0.0,-0.087,-0.1135,-0.1225,-0.1119,-0.1012,-0.0447,-0.0908,-0.1695,-0.2521,-0.2557,-0.2589,-0.2612,-0.3001,-0.3384,-0.3391,-0.3936,-0.4168,-0.4436,-0.4448,-0.4483,-0.475,-0.4598,-0.4619,-0.4845,-0.4676,-0.4687,-0.4881,-0.5424,-0.5978,-0.5987,-0.6066,-0.6161,-0.6429,-0.6072,-0.5914,-0.594,-0.5559,-0.5381,-0.5423,-0.5235,-0.5036,-0.5253,-0.5079,-0.5308,-0.5117,-0.5147,-0.497,-0.4978,-0.498,-0.4974,-0.5164,-0.5166,-0.4966,-0.3456,0.0,-0.314,-0.313,0.0,-0.3093,-0.337,-0.3631,-0.3584,-0.3246,-0.2622,-0.2318,-0.2294,-0.2267,-0.2267,-0.2259,-0.2245,-0.2245,-0.2253,-0.2268,-0.2267,-0.2275,-0.2289,-0.2289,-0.2289,-0.2289,-0.2304,-0.2455,-0.2598,-0.2886,-0.3309,-0.3716,-0.4261,-0.4515,-0.4485,-0.4455,-0.4335,-0.4383,-0.4479,-0.4178,-0.3496,-0.3494,-0.3096,-0.244,0.0,0.0,0.0,0.0,0.0,0.0,0.0,0.0,0.0,0.0,0.0,-0.206,-0.2101,-0.1852,-0.1011,-0.1023,-0.0742,-0.0,-0.0306,-0.0456,-0.0438,-0.0448,-0.0306,-0.0,-0.0319,-0.0812,-0.1321,-0.2173,-0.2699,-0.2714,-0.2927,-0.3136,-0.3156,-0.3362,-0.3582,-0.3633,-0.4011,-0.4402,-0.4467,-0.4477,-0.4496,-0.4532,-0.4541,-0.4549,-0.4569,-0.4936,-0.5306,-0.5337,-0.5428,-0.5502,-0.553,-0.5363,-0.5182,-0.5209,-0.5213,-0.5023,-0.5047,-0.4847,-0.4853,-0.4876,-0.49,-0.4923,-0.4974,-0.4998,-0.4812,-0.4202,-0.4205,-0.4207,-0.4205,-0.4401,-0.4597,-0.2671,-0.2357,-0.2357,-0.2357,-0.2356,-0.2487,-0.2632,-0.294,0.0,0.0,0.0,-0.2237,-0.2065,-0.2026,-0.2026,-0.2156,-0.2278,-0.2277,-0.2147,-0.2169,-0.2169,-0.218,-0.2349,-0.2349,-0.2349,-0.235,-0.2375,-0.2387,-0.2535,-0.2834,-0.3133,-0.3576,-0.4278,-0.4551,-0.4692,-0.4501,-0.4406,-0.4271,-0.4371,-0.4037,-0.3159,-0.3157,-0.2743,-0.206,-0.2087,-0.2116,-0.2142,-0.2193,-0.2223,-0.2223,-0.2223,-0.2248,-0.2157,-0.2145,-0.2157,-0.2209,-0.1941,-0.1203,-0.0,-0.0,0.0156,0.047,0.048,0.0321,-0.0,-0.0,-0.0,-0.0,-0.0,-0.0,-0.0,-0.1387,-0.2444,-0.2449,-0.2649,-0.2498,-0.2518,-0.2544,-0.2566,-0.2777,-0.3339,-0.3913,-0.3762,-0.3769,-0.3968,-0.3995,-0.381,-0.4007,-0.4013,-0.4399,-0.4606,-0.4661,-0.4923,-0.4778,-0.4794,-0.4819,-0.4845,-0.4843,-0.4847,-0.4849,-0.4647,-0.4449,-0.4265,-0.4088,-0.4308,-0.414,-0.4193,-0.4212,-0.4018,-0.3194,-0.3198,-0.3198,-0.3196,-0.3392,-0.3797,-0.157,-0.1413,-0.1413,-0.1413,-0.157,-0.2196,-0.2508,-0.2503,-0.2448,-0.2421,-0.2266,-0.1661,-0.1357,-0.1352,-0.1352,-0.1652,-0.2248,-0.2248,-0.2251,0.0,-0.1953,-0.1955,-0.241,-0.241,-0.241,-0.2412,-0.2416,-0.2568,-0.2872,-0.257,-0.287,-0.3472,-0.3767,-0.4216,-0.467,-0.4059,-0.3744,-0.3871,-0.4328,-0.4246,-0.3526,-0.3385,-0.3085,-0.2217,-0.2243,-0.226,-0.2266,-0.2297,-0.2313,-0.2313,-0.2313,-0.233,-0.2216,-0.2238,-0.2263,-0.2141,-0.1084,-0.0157,-0.0,-0.0,0.0645,0.2324,0.2525,0.1847,-0.0,-0.0,-0.0,-0.0,-0.0,-0.0,-0.0,-0.0176,-0.0708,-0.1428,-0.1624,-0.1636,-0.1639,-0.1653,-0.167,-0.1685,-0.1687,-0.1882,-0.1898,-0.1902,-0.1903,-0.1906,-0.229,-0.2104,-0.2313,-0.3475,-0.4475,-0.4737,-0.477,-0.4796,-0.4624,-0.4841,-0.4645,-0.4847,-0.4042,-0.3436,-0.263,-0.244,-0.2249,-0.2049,-0.2073,-0.2094,-0.2105,-0.2118,-0.2126,-0.1918,-0.1918,-0.2131,-0.2131,-0.2128,-0.234,-0.1413,-0.0628,-0.0628,-0.0628,-0.0628,-0.1413,-0.2043,-0.2512,-0.2485,-0.2473,-0.2318,-0.1081,-0.0462,-0.0612,-0.0612,-0.0762,-0.106,-0.1514,-0.1976,-0.2294,-0.1683,-0.1695,-0.2496,-0.2497,-0.2506,-0.2521,-0.2521,-0.2521,-0.2678,-0.2521,-0.2825,-0.343,-0.3874,-0.4028,-0.4211,-0.3899,-0.3441,-0.3145,-0.3771,-0.3822,-0.3214,-0.3214,-0.2914,-0.2318,-0.2348,-0.2371,-0.2387,-0.2416,-0.2279,-0.2279,-0.2279,-0.2292,-0.232,-0.2334,-0.1882,-0.1111,-0.0321,-0.0,-0.0,-0.0,0.0835,0.2716,0.2917,0.2587,0.1717,0.1029,0.0689,0.0696,0.07,0.0705,0.0712,0.0713,0.0537,0.0181,0.0182,-0.0,-0.0555,-0.0558,-0.0562,-0.0567,-0.0569,-0.057,-0.0763,-0.0763,-0.0763,-0.0764,-0.1149,-0.1543,-0.1558,-0.2352,-0.2956,-0.2983,-0.3,-0.3014,-0.3028,-0.303,-0.303,-0.303,-0.3234,-0.3038,-0.244,-0.1636,-0.0823,-0.083,-0.0,-0.0632,-0.0,-0.085,-0.0852,-0.0853,-0.1279,-0.1705,-0.1705,-0.1705,-0.2131,-0.1256,-0.0,-0.0,0.0157,0.0471,-0.063,-0.1262,-0.1736,-0.2215,-0.2534,-0.2216,-0.079,-0.0,-0.0,-0.0,-0.0,-0.0,-0.0616,-0.1238,-0.1717,-0.125,-0.1262,-0.1924,-0.2249,-0.2421,-0.2602,-0.2602,-0.2602,-0.2602,-0.244,-0.2592,-0.3048,-0.3499,-0.3658,-0.3531,-0.3371,-0.3063,-0.2594,-0.2823,-0.3065,-0.319,-0.3188,-0.2885,-0.2431,-0.2451,-0.2321,-0.2499,-0.2207,-0.2218,-0.2218,-0.2376,-0.239,-0.2255,-0.1935,-0.1135,0.0328,0.0662,0.0499,-0.0,0.0339,0.12,0.2758,0.2953,0.2981,0.2831,0.2113,0.1758,0.1772,0.1773,0.178,0.1793,0.18,0.1808,0.1823,0.1832,0.1479,0.0937,0.0565,0.0378,0.0381,0.0191,-0.0,-0.0,-0.0,-0.0,-0.0,-0.0771,-0.1168,-0.1178,-0.119,-0.1199,-0.1201,-0.1207,-0.1211,-0.1212,-0.1212,-0.1212,-0.1212,-0.1822,-0.2236,-0.2045,-0.0822,-0.0,-0.0,-0.0,-0.0,-0.0,-0.0,-0.0,-0.0,-0.0639,-0.1279,-0.1279,-0.0639,-0.1066,-0.0157,-0.0,-0.0,0.0942,0.1889,0.0477,0.0319,0.0639,-0.1453,-0.2435,-0.2267,-0.0802,-0.0,-0.0,-0.0,-0.0,-0.0,-0.0,-0.0,-0.0,-0.0,-0.0,-0.0,-0.1138,-0.1789,-0.2444,-0.2608,-0.2446,-0.2446,-0.2444,-0.2441,-0.2601,-0.2598,-0.2758,-0.26,-0.195,-0.1788,-0.2442,-0.1783,-0.2263,-0.3551,-0.3713,-0.339,-0.2585,-0.2585,-0.259,-0.259,-0.1784,-0.146,-0.146,-0.2109,-0.2446,-0.2307,-0.099,0.0498,0.218,0.2354,0.1858,0.0341,0.1538,0.2591,0.2814,0.2822,0.2837,0.2866,0.2866,0.2687,0.2689,0.2689,0.269,0.2695,0.2717,0.2734,0.2745,0.2781,0.3002,0.2634,0.1894,0.1334,0.1334,0.0763,-0.0,-0.0,-0.0,-0.0,-0.0,-0.0,-0.0,-0.0,-0.0,-0.0,-0.0,-0.0,-0.0,-0.0,-0.0,-0.0,-0.0,-0.0,-0.0,-0.0,-0.0,-0.0,-0.0,-0.0,-0.0,-0.0,-0.0,-0.0,-0.0,-0.0,-0.0,-0.0,0.1066,0.1492,0.1256,0.0785,0.0785,0.1104,0.1747,0.1596,0.1767,0.1941,0.0975,-0.0,-0.0814,-0.0326,-0.0,-0.0,-0.0,-0.0,-0.0,-0.0,-0.0,-0.0,-0.0,-0.0,-0.0,-0.0329,-0.066,-0.1162,-0.1495,-0.1826,-0.1824,-0.1815,-0.148,-0.115,-0.196,-0.245,-0.2465,-0.1151,-0.066,-0.0997,-0.1163,-0.1661,-0.2156,-0.2294,-0.2122,-0.1971,-0.2302,-0.2641,-0.249,-0.1329,-0.0498,-0.0498,-0.083,-0.0499,0.0502,0.1171,0.1676,0.1852,0.2372,0.2392,0.1726,0.2432,0.2803,0.2827,0.2845,0.2861,0.2872,0.2874,0.2874,0.2874,0.2874,0.2879,0.2896,0.2911,0.2931,0.2965,0.2994,0.3013,0.3033,0.2663,0.2479,0.2479,0.2098,0.1335,-0.0,-0.0,-0.0,-0.0,-0.0,-0.0,-0.0,-0.0,-0.0,-0.0,-0.0,-0.0,-0.0,-0.0,-0.0,-0.0,-0.0,-0.0,-0.0,-0.0,-0.0,-0.0,-0.0,-0.0,-0.0,-0.0,-0.0,-0.0,0.1492,0.1918,0.1918,0.2131,0.2131,0.22,0.1728,0.157,0.1582,0.1759,0.2408,0.2589,0.2616,0.2626,0.1971,0.0822,0.0497,0.0166,-0.0,-0.0,-0.0,-0.0,-0.0,-0.0,-0.0,-0.0,-0.0,-0.0,-0.0,-0.0,-0.0,-0.0673,-0.1009,-0.1009,-0.1003,-0.0665,-0.0332,-0.1155,-0.1815,-0.1663,-0.0499,-0.0,-0.0,-0.0674,-0.1011,-0.084,-0.0497,-0.0495,-0.0998,-0.1498,-0.167,-0.1179,-0.0,0.0674,0.0337,0.0337,0.101,0.2189,0.2525,0.2361,0.1861,0.2392,0.2763,0.2793,0.2816,0.2833,0.2841,0.2863,0.2874,0.2874,0.2874,0.2874,0.2875,0.2881,0.2896,0.2912,0.2924,0.2951,0.2999,0.3013,0.3029,0.3048,0.3052,0.3052,0.3052,0.2862,0.2479,-0.0,-0.0,-0.0,-0.0,-0.0,-0.0,-0.0,-0.0,-0.0,-0.0,-0.0,-0.0,-0.0,-0.0,-0.0,-0.0,-0.0,-0.0,-0.0,-0.0,-0.0,-0.0,-0.0,-0.0,-0.0,-0.0,-0.0,-0.0,0.1705,0.2985,0.2985,0.2558,0.2558,0.2514,0.2514,0.2514,0.2376,0.2563,0.2592,0.2619,0.2647,0.2673,0.2687,0.2349,0.168,0.084,-0.0,-0.0,-0.0,-0.0,-0.0,-0.0,-0.0,-0.0,-0.0,-0.0,-0.0,-0.0,-0.0,-0.0,-0.0,-0.0,-0.0,-0.0,-0.0,-0.0,-0.0,-0.0,-0.0,-0.0,-0.0,0.0168,-0.0,0.0168,0.1514,0.1512,0.0168,-0.0168,0.0505,0.2022,0.2528,0.2189,0.1346,0.1178,0.1346,0.1514,0.2188,0.2707,0.2736,0.2765,0.2795,0.2822,0.283,0.2841,0.2866,0.2871,0.2874,0.2874,0.2874,0.2874,0.2874,0.2897,0.2913,0.2921,0.2945,0.2972,0.3006,0.3033,0.3048,0.3051,0.3052,0.3052,0.3052,0.3052,0.2671,0.1526,0.1335,0.1144,0.0383,-0.0,-0.0,-0.0,-0.0,-0.0,-0.0,-0.0,-0.0,-0.0,-0.0,-0.0,-0.0,-0.0,-0.0,-0.0,-0.0,-0.0,-0.0,-0.0,0.2558,0.2985,-0.0,-0.0,0.2131,0.1918,0.2558,0.3198,0.3411,0.3411,0.2514,0.2517,0.2536,0.256,0.2589,0.2619,0.2649,0.2676,0.2687,0.2692,0.2692,0.2355,0.202,0.1683,0.101,0.0505,-0.0,-0.0,-0.0,-0.0,-0.0,-0.0,-0.0,-0.0,-0.0,-0.0,-0.0,-0.0,-0.0,-0.0,-0.0,-0.0,-0.0,-0.0,-0.0,-0.0,0.0505,0.1516,0.1685,0.1515,0.0842,0.1515,0.1683,0.1683,0.1178,0.1178,0.1683,0.2357,0.2524,0.2187,0.2187,0.2187,0.2189,0.2541,0.2744,0.2791,0.2807,0.2826,0.2852,0.2857,0.2861,0.2872,0.2874,0.2874,0.2874,0.2874,0.2874,0.2879,0.29,0.2921,0.2946,0.2972,0.3002,0.3031,0.3046,0.3052,0.3052,0.3052,0.3052,0.3052,0.3052,0.2862,0.2671,0.2479,0.2479,0.2101,0.1351,0.0974,0.0982,0.0993,0.1003,0.1009,0.101,0.101,-0.0,-0.0,-0.0,-0.0,-0.0,-0.0,-0.0,-0.0,-0.0,-0.0,-0.0,0.2985,0.2985,0.3198,0.2772,0.2985,0.2558,0.2772,0.3411,0.3411,0.3411,0.2514,0.2519,0.2547,0.2575,0.2604,0.2634,0.2664,0.2691,0.2692,0.2692,0.2692,0.2692,0.2692,0.2524,0.2018,0.1515,0.0842,-0.0,-0.0,-0.0,-0.0,-0.0,-0.0,-0.0,-0.0,-0.0,-0.0,-0.0,-0.0,0.0677,0.0848,-0.0,0.0681,0.034,0.017,0.034,0.1191,0.2554,0.2724,0.2383,0.1871,0.1701,0.2041,0.2552,0.2041,0.1694,0.1683,0.2355,0.2692,0.2694,0.2701,0.2712,0.2722,0.275,0.2785,0.2823,0.2838,0.2852,0.287,0.2874,0.2874,0.2874,0.2874,0.2874,0.2874,0.2874,0.2874,0.2881,0.2911,0.2941,0.2964,0.2996,0.3029,0.3048,0.3052,0.3052,0.3052,0.3052,0.3052,0.3052,0.3052,0.3052,0.3052,0.3052,0.3052,0.3052,0.2501,0.2136,0.2158,0.2178,0.2199,0.2218,0.202,0.202,0.202,0.2424,0.2828,0.2636,0.2666,0.2275,0.2083,0.1267,0.1277,0.2131,0.2558,0.2772,0.2772,0.2985,0.3198,0.3411,0.3198,0.3198,0.3411,0.3411,0.3411,0.2515,0.2521,0.2548,0.2579,0.2609,0.2638,0.2667,0.269,0.2692,0.2692,0.2692,0.2692,0.2692,0.2692,0.2524,0.2524,0.2188,0.101,-0.0,-0.0,-0.0,-0.0,-0.0,-0.0,-0.0,-0.0,-0.0,-0.0,-0.0,0.1712,0.2407,0.2602,0.1734,0.1039,0.0174,0.104,0.1909,0.2602,0.2774,0.2777,0.2782,0.2602,0.2774,0.2777,0.2777,0.2579,0.2699,0.2698,0.2701,0.2702,0.2724,0.2752,0.2778,0.2806,0.2827,0.2834,0.2857,0.2871,0.2874,0.2874,0.2874,0.2874,0.2874,0.2874,0.2874,0.2874,0.2874,0.2882,0.2923,0.2961,0.2969,0.3201,0.3048,0.3052,0.3052,0.3052,0.3052,0.3052,0.3052,0.3052,0.3052,0.3052,0.3052,0.3052,0.3052,0.3058,0.3074,0.291,0.294,0.2966,0.2997,0.3023,0.303,0.2828,0.303,0.3234,0.3234,0.324,0.308,0.2907,0.2919,0.2527,0.2339,0.2985,0.2985,0.3198,0.3198,0.3198,0.3198,0.3411,0.3411,0.3411,0.3411,0.3411,0.3411,0.2526,0.2548,0.2577,0.2605,0.2635,0.2665,0.2684,0.2692,0.2692,0.2692,0.2692,0.2692,0.2692,0.2692,0.2692,0.2692,0.2692,0.202,0.1515,0.101,0.0842,0.0842,0.0842,0.0842,0.0845,0.102,0.1022,0.1027,0.1036,0.1558,0.2254,0.2607,0.2611,0.2262,0.1915,0.2262,0.261,0.2784,0.2784,0.2784,0.2784,0.2784,0.2784,0.2784,0.2784,0.2773,0.2757,0.2755,0.2755,0.2754,0.2763,0.2782,0.281,0.2823,0.2838,0.2857,0.2868,0.2874,0.2874,0.2874,0.2874,0.2874,0.2874,0.2874,0.2874,0.2874,0.2874,0.2879,0.2927,0.2962,0.2972,0.3394,0.3431,0.3243,0.3052,0.3243,0.3243,0.3243,0.3052,0.3052,0.3052,0.3052,0.3052,0.3052,0.3243,0.3243,0.3253,0.3084,0.3131,0.3152,0.3178,0.3219,0.3224,0.3434,0.3434,0.3434,0.3434,0.3444,0.3485,0.3317,0.3335,0.336,0.3392,0.3411,0.3411,0.3411,0.3411,0.3411,0.3411,0.3411,0.3411,0.3411,0.3411,0.3411,0.3411,0.2533,0.2562,0.259,0.2619,0.2649,0.2679,0.2692,0.2692,0.2692,0.2692,0.2692,0.2692,0.2692,0.2692,0.2692,0.2692,0.2692,0.2692,0.2355,0.185,0.185,0.1854,0.1862,0.1871,0.1879,0.1891,0.1893,0.1905,0.1923,0.1925,0.228,0.2815,0.2816,0.2818,0.2818,0.2816,0.2816,0.2816,0.2818,0.2818,0.2818,0.2816,0.2818,0.2818,0.2992,0.3168,0.3168,0.3344,0.3156,0.2965,0.2966,0.3165,0.3373,0.3378,0.3388,0.3406,0.3233,0.3231,0.2872,0.2872,0.3052,0.3233,0.3412,0.3412,0.3412,0.3412,0.3416,0.3438,0.3484,0.3522,0.3542,0.3776,0.4002,0.3623,0.3623,0.3624,0.3623,0.3623,0.3623,0.3813,0.3623,0.3624,0.3624,0.3624,0.3623,0.3623,0.3624,0.365,0.3707,0.3731,0.3773,0.3811,0.3832,0.404,0.3836,0.3836,0.3836,0.3653,0.3678,0.3505,0.3322,0.3356,0.3389,0.3405,0.3411,0.3411,0.3411,0.3411,0.3411,0.3411,0.3411,0.3411,0.3411,0.3411,0.3411,0.2691,0.2724,0.2753,0.2785,0.2819,0.2848,0.2861,0.2861,0.2861,0.2861,0.2861,0.2861,0.2861,0.2861,0.2861,0.2859,0.2861,0.2861,0.2859,0.2861,0.2698,0.2712,0.2569,0.2589,0.2602,0.261,0.2785,0.2803,0.2653,0.2655,0.2845,0.2864,0.2866,0.2872,0.2866,0.2871,0.2867,0.2864,0.2868,0.2867,0.2868,0.3049,0.3047,0.3047,0.3403,0.358,0.3757,0.3934,0.373,0.3152,0.3346,0.3728,0.4118,0.4307,0.4124,0.4128,0.3947,0.3588,0.305,0.2871,0.3409,0.4307,0.4307,0.4307,0.4128,0.413,0.4146,0.4183,0.423,0.4275,0.4312,0.4547,0.4573,0.4766,0.4575,0.4385,0.4575,0.4575,0.4385,0.4385,0.4575,0.4575,0.4385,0.4385,0.4385,0.4575,0.4387,0.4428,0.4487,0.4526,0.4561,0.46,0.444,0.4444,0.4242,0.4242,0.4242,0.4249,0.4071,0.3893,0.3518,0.3556,0.3384,0.34,0.341,0.341,0.3411,0.3411,0.3411,0.3411,0.3411,0.3411,0.341,0.3408,0.34,0.3497,0.3563,0.3574,0.3619,0.3681,0.3696,0.37,0.37,0.37,0.3532,0.37,0.37,0.3532,0.37,0.37,0.37,0.3532,0.37,0.37,0.3705,0.3733,0.3255,0.2939,0.278,0.2796,0.2814,0.2994,0.2833,0.286,0.3037,0.2866,0.2874,0.3053,0.2874,0.2874,0.2874,0.2874,0.2874,0.2874,0.2874,0.3053,0.3231,0.3411,0.3409,0.3949,0.4128,0.4128,0.4307,0.4301,0.3921,0.3924,0.4114,0.4305,0.4307,0.4307,0.4307,0.4128,0.3947,0.3768,0.3409,0.3768,0.5027,0.5206,0.5027,0.4307,0.4307,0.433,0.4373,0.4418,0.4463,0.4506,0.4927,0.5144,0.5527,0.5147,0.4766,0.4766,0.4575,0.4575,0.4575,0.4575,0.4766,0.4766,0.4766,0.4766,0.4766,0.4772,0.48,0.4876,0.4913,0.494,0.4806,0.4645,0.4847,0.4645,0.4645,0.4645,0.4645,0.4459,0.4474,0.3908,0.3748,0.3582,0.3404,0.3614,0.3826,0.3621,0.3411,0.3411,0.3624,0.3411,0.3624,0.3403,0.3397,0.3381,0.3821,0.3905,0.3905,0.3956,0.4031,0.4036,0.4036,0.4036,0.4036,0.4036,0.4036,0.4036,0.4036,0.4036,0.4036,0.4036,0.4036,0.4036,0.4036,0.4048,0.4103,0.381,0.3496,0.3515,0.336,0.3377,0.338,0.3393,0.3587,0.3412,0.3411,0.3592,0.3412,0.3231,0.2872,0.3412,0.3412,0.3592,0.3412,0.3412,0.359,0.3769,0.3949,0.3947,0.4307,0.4664,0.4845,0.4845,0.4845,0.4664,0.4664,0.4666,0.4845,0.4845,0.4845,0.4845,0.4666,0.4666,0.4845,0.4305,0.4664,0.5386,0.5747,0.5386,0.5029,0.4864,0.4898,0.5134,0.5002,0.505,0.5282,0.551,0.5715,0.5908,0.5527,0.5147,0.5147,0.5337,0.5147,0.5147,0.5147,0.5147,0.5147,0.5147,0.5147,0.5337,0.5337,0.5397,0.5471,0.5294,0.5333,0.5411,0.5452,0.5452,0.5452,0.5452,0.5452,0.5452,0.5253,0.5066,0.4702,0.414,0.4176,0.4003,0.4018,0.4029,0.4029,0.4037,0.4263,0.4263,0.405,0.3826,0.3602,0.3374,0.3359,0.3978,0.4059,0.4063,0.4116,0.4189,0.4201,0.4204,0.4204,0.4204,0.4204,0.4204,0.4204,0.4204,0.4204,0.4372,0.4204,0.4204,0.4372,0.4216,0.4246,0.4476,0.4368,0.4423,0.4099,0.4114,0.412,0.4305,0.4305,0.4128,0.4128,0.4307,0.4128,0.4128,0.3769,0.3409,0.3949,0.4307,0.4307,0.4128,0.4128,0.4128,0.4307,0.4307,0.4487,0.4843,0.5201,0.5562,0.5562,0.538,0.5022,0.5022,0.5201,0.5562,0.5741,0.5741,0.5562,0.5562,0.5562,0.5562,0.5562,0.5559,0.5741,0.5741,0.5747,0.5581,0.5618,0.5668,0.5742,0.5981,0.5839,0.5887,0.6096,0.6098,0.6098,0.6096,0.6098,0.6098,0.6098,0.6098,0.6098,0.6098,0.6098,0.6098,0.6098,0.6098,0.5718,0.5725,0.5776,0.5845,0.5881,0.5945,0.6235,0.6259,0.6461,0.6463,0.6461,0.6259,0.6259,0.5856,0.5666,0.5291,0.4931,0.496,0.4785,0.4607,0.4622,0.4622,0.4849,0.4873,0.4661,0.4221,0.4215,0.4209,0.3556,0.333,0.4749,0.4813,0.4859,0.4918,0.4982,0.5028,0.5046,0.5046,0.5046,0.5046,0.5046,0.5046,0.5046,0.5046,0.5046,0.5046,0.5046,0.5051,0.5089,0.5176,0.5194,0.5273,0.5164,0.4662,0.4305,0.4307,0.4307,0.4307,0.4307,0.4487,0.4307,0.4307,0.4487,0.4128,0.4128,0.4307,0.4666,0.5206,0.4666,0.4307,0.4487,0.4664,0.4843,0.4843,0.5201,0.5559,0.5741,0.5741,0.5562,0.5559,0.5559,0.5559,0.5741,0.5741,0.5741,0.5741,0.5741,0.5741,0.5741,0.5741,0.5741,0.5741,0.5741,0.576,0.5809,0.5823,0.5886,0.5965,0.6008,0.6232,0.6277,0.6098,0.6098,0.6098,0.6098,0.6098,0.6098,0.6098,0.6098,0.6098,0.6098,0.6098,0.6098,0.6098,0.6098,0.6098,0.6123,0.6158,0.6215,0.6273,0.6352,0.6442,0.6461,0.6463,0.6463,0.6463,0.6463,0.6463,0.6259,0.606,0.5888,0.5505,0.5333,0.516,0.4779,0.4994,0.5202,0.5211,0.5234,0.481,0.4599,0.4385,0.4168,0.373,0.33,0.5055,0.5115,0.5147,0.5213,0.5292,0.5327,0.5357,0.5382,0.5384,0.5384,0.5384,0.5384,0.5384,0.5384,0.5384,0.5384,0.5384,0.5387,0.5431,0.5507,0.5545,0.561,0.5687,0.5191,0.5025,0.5025,0.5025,0.5025,0.5025,0.5025,0.5025,0.5025,0.5025,0.5025,0.5025,0.5025,0.5204,0.5565,0.5204,0.5025,0.5025,0.5201,0.538,0.538,0.5559,0.5741,0.5741,0.5741,0.5741,0.5741,0.5741,0.5741,0.5741,0.5741,0.5741,0.5741,0.5741,0.5741,0.5741,0.5741,0.5741,0.5741,0.6099,0.6317,0.6368,0.6401,0.6651,0.6736,0.6789,0.6825,0.6856,0.6479,0.6479,0.6479,0.6288,0.6098,0.6098,0.6098,0.6098,0.6098,0.6098,0.6098,0.6098,0.6098,0.6098,0.6098,0.6101,0.6139,0.6229,0.6289,0.6352,0.6417,0.645,0.6463,0.6463,0.6463,0.6463,0.6463,0.6461,0.6461,0.6272,0.6088,0.5699,0.5526,0.5554,0.5771,0.5776,0.5579,0.5593,0.5609,0.5401,0.4763,0.4335,0.3704,0.3481,0.5044,0.5098,0.5106,0.5172,0.5259,0.5286,0.5324,0.5365,0.5382,0.5384,0.5384,0.5384,0.5384,0.5384,0.5384,0.5384,0.5384,0.5387,0.5425,0.5482,0.5537,0.5771,0.5836,0.5711,0.592,0.592,0.5741,0.5741,0.5741,0.592,0.592,0.592,0.5918,0.5739,0.5739,0.592,0.592,0.6099,0.6099,0.592,0.592,0.592,0.592,0.6099,0.6099,0.6099,0.6099,0.6099,0.592,0.592,0.592,0.592,0.592,0.5741,0.5741,0.592,0.592,0.592,0.5739,0.5739,0.5739,0.5739,0.6637,0.7041,0.7111,0.7174,0.7247,0.7323,0.7386,0.7423,0.7619,0.7239,0.7052,0.6862,0.6669,0.6288,0.6288,0.6288,0.6288,0.6098,0.6098,0.6098,0.6098,0.6098,0.6098,0.6098,0.6101,0.6128,0.6218,0.6292,0.6346,0.6403,0.6436,0.6461,0.6463,0.6463,0.6463,0.6463,0.6463,0.6461,0.6461,0.6272,0.6083,0.6283,0.6304,0.6322,0.6338,0.6144,0.6165,0.6399,0.5771,0.4923,0.4295,0.3882,0.3457,0.4984,0.5038,0.509,0.5125,0.5158,0.5248,0.5294,0.5316,0.5363,0.5384,0.5384,0.5384,0.5384,0.5384,0.5384,0.5384,0.5384,0.5555,0.5583,0.5642,0.5701,0.594,0.6171,0.6243,0.6454,0.6815,0.6633,0.6454,0.6454,0.6454,0.6458,0.6815,0.6637,0.6276,0.6097,0.6454,0.6815,0.6819,0.6815,0.6815,0.6815,0.6815,0.6815,0.6815,0.6815,0.6815,0.6815,0.6994,0.6994,0.6994,0.6994,0.6994,0.6815,0.6633,0.6454,0.6454,0.6637,0.6458,0.6097,0.5736,0.5736,0.5915,0.6812,0.7422,0.7513,0.7572,0.7642,0.7743,0.7792,0.7619,0.7619,0.7619,0.7429,0.7429,0.7239,0.7049,0.6862,0.6672,0.6669,0.6288,0.6288,0.6098,0.6098,0.6098,0.6288,0.6288,0.6288,0.6319,0.658,0.6457,0.6513,0.6572,0.6428,0.6447,0.6463,0.6463,0.6463,0.6463,0.6461,0.6662,0.6662,0.6461,0.6466,0.6671,0.6671,0.6482,0.6493,0.6504,0.6304,0.6121,0.5496,0.4669,0.4263,0.3859,0.3449,0.4951,0.4981,0.5041,0.5085,0.512,0.5172,0.5237,0.546,0.5324,0.5357,0.5379,0.5384,0.5384,0.5384,0.5384,0.5552,0.572,0.6056,0.6078,0.612,0.6203,0.6438,0.6673,0.676,0.6984,0.7173,0.717,0.6991,0.6815,0.6633,0.6994,0.7173,0.7173,0.6994,0.6633,0.6994,0.7535,0.7713,0.7535,0.7173,0.7173,0.7173,0.7173,0.7173,0.7173,0.7173,0.7173,0.7173,0.7173,0.7173,0.7173,0.7173,0.7173,0.717,0.717,0.6994,0.7173,0.6994,0.6633,0.6454,0.6633,0.7173,0.7713,0.7948,0.8228,0.8301,0.8207,0.8327,0.8379,0.8383,0.8383,0.8189,0.7999,0.7999,0.7809,0.7619,0.7239,0.7242,0.7049,0.6669,0.6479,0.6288,0.6098,0.6098,0.6288,0.6288,0.6479,0.6705,0.6755,0.6824,0.6889,0.6964,0.7029,0.6849,0.6864,0.6864,0.6864,0.6662,0.6662,0.6864,0.6662,0.6662,0.6864,0.6864,0.6864,0.6461,0.6466,0.6482,0.6065,0.5856,0.5257,0.4655,0.4043,0.3635,0.3433,0.4916,0.494,0.4986,0.5038,0.509,0.5109,0.5166,0.5248,0.5283,0.5322,0.5363,0.5379,0.5552,0.5552,0.572,0.5888,0.6221,0.656,0.6563,0.6593,0.6706,0.6949,0.7164,0.7261,0.7352,0.771,0.7889,0.771,0.7352,0.7352,0.7352,0.7531,0.7713,0.7713,0.7535,0.7531,0.8075,0.8075,0.7896,0.7535,0.7535,0.7535,0.7535,0.7535,0.7531,0.7531,0.7535,0.7531,0.7535,0.7535,0.7531,0.7531,0.7531,0.7889,0.7889,0.7531,0.7531,0.7531,0.7531,0.7531,0.7713,0.8254,0.8429,0.866,0.8565,0.8668,0.8962,0.9085,0.9138,0.8952,0.8952,0.8763,0.8569,0.8569,0.8189,0.7809,0.7809,0.7809,0.7619,0.7239,0.6669,0.6669,0.6669,0.6669,0.6859,0.6859,0.7049,0.7059,0.7307,0.7404,0.7482,0.7569,0.7631,0.7251,0.7264,0.7062,0.7264,0.7264,0.7264,0.7264,0.7264,0.7065,0.7062,0.7062,0.6662,0.6463,0.6463,0.6461,0.6057,0.5654,0.5049,0.4444,0.3836,0.3433,0.3231,0.4839,0.4937,0.4946,0.4978,0.5036,0.5085,0.5117,0.515,0.5243,0.5294,0.5316,0.5357,0.5714,0.6053,0.6392,0.656,0.6727,0.6727,0.6895,0.6916,0.7045,0.7295,0.7494,0.781,0.806,0.825,0.8429,0.825,0.7889,0.8067,0.825,0.8429,0.825,0.8429,0.825,0.825,0.8429,0.8607,0.8429,0.8429,0.8429,0.825,0.8429,0.8429,0.8429,0.825,0.825,0.825,0.825,0.825,0.8429,0.8429,0.8429,0.8429,0.8429,0.8429,0.8429,0.8429,0.825,0.825,0.825,0.8611,0.8607,0.8656,0.8742,0.886,0.8967,0.9011,0.9089,0.9138,0.9142,0.8952,0.8952,0.8952,0.8763,0.8573,0.8379,0.8189,0.8189,0.7999,0.7619,0.7429,0.7429,0.7429,0.7429,0.7429,0.7623,0.7633,0.767,0.7966,0.8095,0.8197,0.8238,0.7861,0.7666,0.7465,0.7666,0.7666,0.7666,0.7666,0.7666,0.7465,0.7264,0.7264,0.6864,0.6463,0.6463,0.6259,0.5856,0.5452,0.5049,0.424,0.3433,0.3231,0.323,0.4755,0.4839,0.4907,0.4951,0.4978,0.5036,0.5082,0.5117,0.5166,0.5229,0.5289,0.5651,0.6016,0.655,0.6895,0.7063,0.723,0.7394,0.7562,0.7428,0.7552,0.7815,0.8031,0.8156,0.8429,0.8607,0.8607,0.8607,0.8429,0.8429,0.8607,0.8607,0.8607,0.8607,0.8607,0.8607,0.8607,0.8607,0.8607,0.8607,0.8607,0.8607,0.8607,0.8607,0.8607,0.8607,0.8607,0.8607,0.8607,0.8607,0.8607,0.8607,0.8607,0.8607,0.8607,0.8607,0.8607,0.8607,0.8607,0.8607,0.8607,0.8607,0.8615,0.8648,0.873,0.8803,0.8913,0.9003,0.904,0.9085,0.913,0.9142,0.9146,0.9146,0.9146,0.8952,0.8763,0.8763,0.8763,0.8573,0.8383,0.8379,0.8189,0.7809,0.7809,0.7999,0.8193,0.8204,0.8446,0.873,0.8686,0.8643,0.8464,0.8471,0.8069,0.7864,0.7867,0.8069,0.8069,0.8069,0.827,0.8072,0.7666,0.7264,0.7065,0.6662,0.6662,0.6461,0.6057,0.5654,0.5049,0.424,0.3635,0.3231,0.323,0.4689,0.4741,0.4848,0.4907,0.494,0.4981,0.5033,0.5085,0.5109,0.5164,0.5564,0.6101,0.649,0.6881,0.7394,0.7562,0.7562,0.7897,0.806,0.8121,0.8228,0.8321,0.8391,0.8509,0.8607,0.8607,0.8607,0.8607,0.8607,0.8607,0.8607,0.8607,0.8607,0.8607,0.8607,0.8607,0.8786,0.9147,0.8964,0.8964,0.8964,0.8964,0.8964,0.8964,0.8964,0.8964,0.8786,0.8786,0.8786,0.8607,0.8607,0.8607,0.8607,0.8607,0.8607,0.8607,0.8607,0.8607,0.8607,0.8607,0.8607,0.8607,0.8611,0.8632,0.8681,0.8717,0.8766,0.8909,0.8995,0.9044,0.9093,0.9122,0.9146,0.9146,0.9146,0.9146,0.9146,0.8952,0.8952,0.8952,0.8763,0.8952,0.8763,0.8383,0.8383,0.8569,0.8576,0.8778,0.9048,0.9334,0.9276,0.9047,0.9074,0.9078,0.8873,0.8471,0.8471,0.8471,0.8471,0.8471,0.8676,0.8471,0.7867,0.7465,0.7065,0.6864,0.6463,0.6461,0.6259,0.5654,0.5047,0.4645,0.4038,0.3635,0.323,0.4668,0.4676,0.4741,0.4831,0.4929,0.494,0.4976,0.503,0.5085,0.5437,0.5799,0.671,0.715,0.7372,0.7725,0.7893,0.806,0.806,0.806,0.8121,0.8236,0.8317,0.8395,0.8497,0.8607,0.8607,0.8607,0.8607,0.8607,0.8607,0.8607,0.8607,0.8786,0.8786,0.8786,0.8964,0.9143,0.9505,0.95,0.9496,0.9674,0.9852,0.9852,0.9852,0.9852,0.9674,0.9322,0.9322,0.9143,0.8786,0.8786,0.8786,0.8786,0.8786,0.8786,0.8786,0.8607,0.8607,0.8607,0.8607,0.8607,0.8607,0.8611,0.8615,0.864,0.8697,0.8746,0.8791,0.8909,0.8995,0.9044,0.9085,0.9138,0.9146,0.9146,0.9146,0.9146,0.9146,0.9142,0.9146,0.9146,0.9146,0.9146,0.8763,0.8573,0.8763,0.8774,0.8976,0.91,0.9395,0.9501,0.942,0.9464,0.948,0.948,0.948,0.9074,0.9074,0.9074,0.9275,0.948,0.8873,0.7867,0.7666,0.7267,0.6864,0.6463,0.6461,0.6259,0.5853,0.5248,0.4845,0.424,0.3635,0.3231,0.4665,0.4668,0.4689,0.4749,0.4831,0.4905,0.5103,0.5283,0.5501,0.5874,0.656,0.7029,0.7455,0.7659,0.7877,0.806,0.806,0.806,0.806,0.8121,0.8232,0.8317,0.8399,0.8493,0.8607,0.8607,0.8607,0.8786,0.8964,0.8782,0.9139,0.9317,0.95,0.9326,0.9326,0.95,0.9857,0.9857,0.9857,0.9852,0.9852,1.003,1.003,1.003,1.003,0.9852,0.9674,0.9674,0.9674,0.9496,0.9496,0.9317,0.9322,0.9143,0.8964,0.8964,0.8786,0.8607,0.8607,0.8607,0.8607,0.8607,0.8607,0.8607,0.8607,0.8644,0.8689,0.8754,0.8848,0.8942,0.9011,0.9085,0.9146,0.9146,0.9146,0.9146,0.9146,0.9146,0.9146,0.9146,0.9146,0.9146,0.9146,0.9146,0.8952,0.9146,0.9158,0.9199,0.9322,0.9428,0.9518,0.9612,0.9665,0.9681,0.9681,0.9681,0.9681,0.9681,0.9681,0.9681,0.9681,0.8873,0.8069,0.7666,0.7267,0.6864,0.6463,0.6463,0.6259,0.6057,0.5652,0.5047,0.4442,0.3635,0.3433,0.4665,0.4665,0.481,0.4847,0.4766,0.5018,0.5225,0.556,0.5777,0.6161,0.6879,0.7336,0.7581,0.795,0.8019,0.806,0.806,0.806,0.806,0.813,0.8232,0.8317,0.8395,0.8493,0.8607,0.8786,0.8786,0.9143,0.95,0.9134,0.9491,0.9852,1.0218,1.0218,1.004,1.0213,1.0392,1.0392,1.0209,1.0387,1.0387,1.0565,1.0565,1.0565,1.0565,1.0387,1.0209,1.0209,1.003,1.003,0.9852,1.003,0.9852,0.9674,0.9496,0.9317,0.9143,0.8786,0.8786,0.8607,0.8607,0.8607,0.8607,0.8607,0.8607,0.8611,0.8648,0.8689,0.8795,0.8901,0.8979,0.906,0.9134,0.9146,0.9146,0.9146,0.9146,0.9146,0.9146,0.9146,0.9146,0.9146,0.9146,0.9146,0.9146,0.9146,0.915,0.9216,0.935,0.944,0.9501,0.9591,0.9673,0.9681,0.9681,0.9681,0.9681,0.9681,0.9681,0.9681,0.948,0.8672,0.8065,0.7867,0.7465,0.6662,0.6463,0.6463,0.6463,0.6461,0.5856,0.5248,0.4442,0.3836,0.3433,0.4665,0.481,0.5101,0.4994,0.4909,0.5271,0.5486,0.5698,0.5926,0.6312,0.6861,0.7444,0.7856,0.7929,0.8011,0.806,0.806,0.806,0.806,0.8105,0.8244,0.8317,0.8399,0.8673,0.8964,0.9139,0.9322,0.95,1.003,0.9847,0.9852,1.0387,1.0748,1.0931,1.0575,1.0575,1.0753,1.1287,1.0921,1.0921,1.1099,1.1277,1.1277,1.1277,1.1277,1.0921,1.0743,1.0743,1.0565,1.0387,1.0209,1.0209,1.0209,1.003,1.003,1.003,0.95,0.9322,0.9139,0.8786,0.8607,0.8607,0.8607,0.8607,0.8607,0.8611,0.8624,0.8677,0.8783,0.8864,0.8942,0.9028,0.9109,0.9146,0.9146,0.9146,0.9146,0.9146,0.9146,0.9146,0.9146,0.9146,0.9146,0.9146,0.9146,0.9146,0.9146,0.9228,0.9363,0.9436,0.9489,0.9591,0.9681,0.9681,0.9681,0.9681,0.9681,0.9681,0.9681,0.9681,0.948,0.8672,0.827,0.8069,0.7465,0.6662,0.6463,0.6463,0.6463,0.6461,0.6057,0.545,0.4643,0.3836,0.3635,0.5104,0.5101,0.5392,0.558,0.5651,0.5872,0.607,0.626,0.6678,0.7072,0.7283,0.7725,0.7811,0.788,0.7991,0.806,0.806,0.806,0.806,0.8085,0.824,0.8482,0.8735,0.9198,0.9487,0.9674,0.9852,1.003,1.0387,1.0204,1.056,1.0921,1.1282,1.1282,1.1277,1.1099,1.1282,1.146,1.1277,1.1277,1.1455,1.1455,1.1455,1.1455,1.1455,1.1455,1.1277,1.1099,1.1099,1.0921,1.0921,1.0921,1.0743,1.0743,1.0387,1.0387,1.003,0.9496,0.9139,0.8603,0.8607,0.8607,0.8607,0.8607,0.8607,0.8607,0.8636,0.8697,0.8803,0.8889,0.8979,0.9069,0.9134,0.9142,0.9146,0.9146,0.9146,0.9146,0.9146,0.9146,0.9146,0.9146,0.9146,0.9146,0.9146,0.9146,0.9146,0.9232,0.9363,0.9416,0.9469,0.9595,0.9681,0.9681,0.9681,0.9681,0.9681,0.9681,0.9681,0.9681,0.9275,0.8672,0.827,0.8069,0.7264,0.6463,0.6463,0.6463,0.6463,0.6259,0.6057,0.545,0.4847,0.424,0.3836,0.5392,0.5392,0.5829,0.6016,0.6241,0.6319,0.6532,0.6899,0.7317,0.7525,0.7566,0.7717,0.7799,0.7852,0.797,0.8232,0.8232,0.8232,0.8566,0.842,0.8548,0.88,0.9239,0.9707,0.9978,1.0189,1.0209,1.0565,1.0921,1.0738,1.0916,1.1277,1.1455,1.146,1.1455,1.1455,1.1455,1.1455,1.1455,1.1455,1.1455,1.1455,1.1455,1.1455,1.1455,1.1455,1.1455,1.1455,1.1455,1.1455,1.1455,1.1455,1.1277,1.1277,1.0921,1.0921,1.0565,0.9669,0.8956,0.8595,0.8778,0.9139,0.8786,0.8607,0.8619,0.864,0.8677,0.8746,0.9032,0.9111,0.9381,0.9286,0.9513,0.9522,0.9522,0.9522,0.9711,0.9711,0.9522,0.9522,0.9332,0.9336,0.9142,0.9146,0.9146,0.9146,0.9146,0.9248,0.9338,0.9387,0.9448,0.9571,0.9665,0.9677,0.9677,0.9681,0.9681,0.9681,0.9681,0.9681,0.9275,0.8873,0.8471,0.7864,0.7264,0.6659,0.6461,0.6461,0.645,0.6251,0.6057,0.5452,0.4847,0.4444,0.3836,0.5825,0.5825,0.6268,0.6466,0.6541,0.6642,0.7064,0.7513,0.7521,0.7525,0.7537,0.7717,0.7961,0.7998,0.8148,0.8395,0.8738,0.8738,0.8905,0.91,0.9022,0.9445,0.9711,1.0349,1.0631,1.0702,1.0738,1.0921,1.1455,1.1277,1.1277,1.1455,1.1455,1.1455,1.1455,1.1455,1.1455,1.1455,1.1455,1.1455,1.1455,1.1455,1.1455,1.1455,1.1455,1.1455,1.1455,1.1455,1.1455,1.1455,1.1455,1.1455,1.1455,1.1455,1.1455,1.1277,1.0921,1.0021,0.9308,0.913,0.9313,0.9857,0.9322,0.8964,0.8819,0.9045,0.9096,0.9173,0.946,0.9706,0.9781,1.0216,1.0465,1.0469,1.0469,1.0469,1.0469,1.0469,1.028,1.009,0.9901,0.9901,0.9522,0.9522,0.9522,0.9522,0.9526,0.9369,0.9461,0.954,0.9611,0.953,0.9616,0.9665,0.9673,0.9673,0.9681,0.9681,0.9681,0.9681,0.9275,0.8873,0.8471,0.7864,0.7056,0.6651,0.6436,0.6431,0.6428,0.623,0.5819,0.5446,0.4841,0.4442,0.3836,0.5974,0.6272,0.6767,0.6993,0.7089,0.7229,0.7325,0.7521,0.7525,0.7525,0.7533,0.8037,0.8284,0.8302,0.8811,0.9049,0.9072,0.924,0.924,0.944,0.9497,0.9729,1.0169,1.0814,1.1095,1.117,1.1223,1.1266,1.1455,1.1455,1.1455,1.1455,1.1455,1.1455,1.1455,1.1455,1.1455,1.1455,1.1455,1.1455,1.1455,1.1455,1.1455,1.1455,1.1455,1.1455,1.1455,1.1455,1.1455,1.1455,1.1455,1.1455,1.1455,1.1455,1.1455,1.1455,1.1099,1.0565,1.0565,1.0026,1.003,1.0753,1.058,1.0272,0.995,0.964,0.9707,0.9806,1.0078,1.0334,1.0381,1.0625,1.0848,1.1037,1.1037,1.1037,1.1037,1.0848,1.0659,1.0659,1.0469,1.028,1.009,1.009,1.009,1.009,1.0095,0.9927,0.9776,0.967,0.9553,0.9473,0.9542,0.9587,0.9648,0.9661,0.9673,0.9681,0.9677,0.9677,0.9476,0.9074,0.8467,0.7647,0.702,0.6603,0.6393,0.6387,0.6172,0.5764,0.5363,0.5004,0.4835,0.4233,0.3835,0.6264,0.6716,0.6941,0.7194,0.7325,0.7623,0.7842,0.7842,0.7842,0.7859,0.8067,0.8536,0.8788,0.8852,0.916,0.9407,0.9736,0.9741,0.9741,0.9923,0.9805,1.0197,1.063,1.0891,1.1172,1.1259,1.134,1.14,1.1438,1.1455,1.1455,1.1455,1.1455,1.1455,1.1455,1.1455,1.1455,1.1455,1.1455,1.1455,1.1455,1.1455,1.1455,1.1455,1.1455,1.1455,1.1455,1.1455,1.1455,1.1455,1.1455,1.1455,1.1455,1.1455,1.1455,1.1455,1.1277,1.1277,1.1104,1.0921,1.1104,1.1293,1.1476,1.1173,1.071,1.0417,1.034,1.0264,1.0708,1.0959,1.1003,1.1227,1.1227,1.1416,1.1416,1.1416,1.1416,1.1416,1.1227,1.1037,1.0848,1.0659,1.0659,1.0659,1.0659,1.0469,1.0469,1.0284,1.0135,1.0016,0.9692,0.9379,0.9444,0.9501,0.9563,0.9612,0.9616,0.9628,0.9669,0.9669,0.9472,0.8858,0.8045,0.7405,0.6768,0.6553,0.6335,0.6117,0.5907,0.5308,0.4917,0.4551,0.4192,0.3819,0.3624,0.6559,0.7011,0.7105,0.7252,0.7552,0.7963,0.8159,0.8315,0.8485,0.8531,0.8618,0.904,0.9307,0.9395,0.9682,0.9903,1.007,1.007,1.0237,1.057,1.0586,1.0634,1.0693,1.0758,1.1052,1.1183,1.1291,1.1351,1.1427,1.1632,1.181,1.1632,1.1632,1.1632,1.1449,1.181,1.181,1.181,1.181,1.1632,1.1455,1.1455,1.1455,1.1455,1.1455,1.1455,1.1455,1.1455,1.1455,1.1455,1.1455,1.1455,1.1455,1.1455,1.1455,1.1455,1.1455,1.1455,1.146,1.1277,1.1277,1.146,1.146,1.1531,1.1252,1.0957,1.0881,1.0991,1.1248,1.1304,1.1533,1.1584,1.1794,1.1794,1.1794,1.1794,1.1794,1.1794,1.1605,1.1605,1.1416,1.1227,1.1227,1.1227,1.1227,1.1037,1.1037,1.0848,1.0683,1.0554,1.0029,0.9687,0.9549,0.9611,0.9461,0.9506,0.9526,0.9559,0.9604,0.9612,0.9579,0.8595,0.7618,0.7162,0.6513,0.6485,0.627,0.5856,0.5451,0.5259,0.4682,0.4111,0.3747,0.3384,0.3398,0.6447,0.7105,0.726,0.7548,0.7959,0.8145,0.8471,0.8632,0.9184,0.9228,0.9109,0.9366,0.9637,0.9758,1.0185,1.0404,1.0404,1.0404,1.057,1.0737,1.0737,1.0753,1.0802,1.0873,1.0954,1.1036,1.1156,1.1483,1.1754,1.2148,1.252,1.252,1.252,1.216,1.1799,1.216,1.2343,1.2526,1.2165,1.181,1.1632,1.1632,1.1455,1.1455,1.1455,1.1455,1.1455,1.1455,1.1455,1.1455,1.1455,1.1455,1.1455,1.1455,1.1455,1.1455,1.1455,1.1455,1.1455,1.1455,1.1455,1.1455,1.1471,1.1536,1.1421,1.1288,1.1367,1.1483,1.1573,1.1812,1.1865,1.2112,1.2161,1.2161,1.2172,1.2172,1.2172,1.2172,1.2172,1.1983,1.1794,1.1794,1.1794,1.1794,1.1794,1.1794,1.1794,1.1794,1.1411,1.1077,1.074,1.0212,0.9854,0.9713,0.9561,0.9408,0.9432,0.9448,0.9481,0.9485,0.9485,0.8496,0.7711,0.6886,0.6259,0.6229,0.6003,0.5587,0.5387,0.4823,0.4448,0.3686,0.3503,0.3138,0.3152,0.6458,0.7145,0.7469,0.7907,0.8457,0.8622,0.8934,0.911,0.9682,0.976,0.9652,0.9921,1.0198,1.0293,1.0544,1.0737,1.0737,1.0737,1.0737,1.0737,1.0737,1.0904,1.0942,1.1149,1.1385,1.1464,1.1612,1.194,1.2583,1.2607,1.279,1.3217,1.3236,1.2692,1.2148,1.2698,1.3236,1.3426,1.2881,1.2343,1.1988,1.181,1.1632,1.1455,1.1455,1.1455,1.1455,1.1455,1.1455,1.1455,1.1455,1.1455,1.1455,1.1455,1.1455,1.1455,1.1455,1.1455,1.1455,1.1455,1.1455,1.1455,1.146,1.1514,1.1514,1.1389,1.1485,1.1598,1.1673,1.1732,1.1944,1.1998,1.2047,1.2256,1.2134,1.2172,1.2172,1.2172,1.2172,1.2172,1.1983,1.1983,1.1983,1.1983,1.1983,1.1983,1.2172,1.2172,1.1794,1.16,1.1267,1.073,1.0376,0.9994,0.982,0.949,0.9346,0.9359,0.9371,0.9212,0.9036,0.8405,0.7595,0.6612,0.6199,0.5971,0.5746,0.5351,0.4774,0.4406,0.3839,0.346,0.3085,0.2901,0.2715,0.6759,0.731,0.7794,0.8384,0.8925,0.9246,0.9402,0.9578,1.0008,1.0286,1.0389,1.0514,1.0639,1.0704,1.0737,1.0737,1.0737,1.0904,1.0904,1.107,1.107,1.1237,1.1403,1.1587,1.1837,1.2095,1.2228,1.3051,1.3707,1.3365,1.341,1.3905,1.3584,1.3034,1.3053,1.3236,1.3413,1.3781,1.342,1.3053,1.252,1.2165,1.181,1.1632,1.1455,1.1455,1.1455,1.1455,1.1455,1.1455,1.1455,1.1455,1.1455,1.1455,1.1455,1.1455,1.1455,1.1455,1.1455,1.1455,1.1455,1.1455,1.1455,1.146,1.1465,1.1514,1.1612,1.1672,1.1748,1.1803,1.1835,1.1889,1.1938,1.2207,1.2096,1.2172,1.2172,1.2172,1.2172,1.2172,1.2172,1.2172,1.2172,1.2172,1.2172,1.2172,1.2172,1.2172,1.2172,1.1983,1.1621,1.1067,1.0697,1.0312,0.9923,0.9585,0.9269,0.9269,0.9285,0.895,0.8585,0.7945,0.7333,0.6557,0.6145,0.5932,0.554,0.5153,0.4577,0.4006,0.3629,0.3255,0.3063,0.2877,0.2488,0.6941,0.7853,0.8356,0.8915,0.9241,0.9402,0.9553,0.9901,1.0253,1.0367,1.0427,1.0601,1.0721,1.0737,1.0737,1.0904,1.1237,1.1237,1.157,1.1736,1.157,1.1736,1.2069,1.2075,1.1981,1.2228,1.264,1.3239,1.3707,1.3727,1.3787,1.4116,1.4136,1.3826,1.3938,1.3945,1.3945,1.4129,1.3951,1.3407,1.323,1.2698,1.2165,1.1988,1.1632,1.1632,1.1455,1.1455,1.1455,1.1455,1.1455,1.1455,1.1455,1.1455,1.1455,1.1455,1.1455,1.1455,1.1455,1.1455,1.1455,1.1455,1.1455,1.146,1.146,1.146,1.1525,1.1536,1.1601,1.1661,1.1705,1.1792,1.1857,1.1982,1.2085,1.214,1.2167,1.2172,1.2172,1.2172,1.2172,1.2172,1.2172,1.2172,1.2172,1.2172,1.2172,1.2172,1.2172,1.2172,1.1978,1.1416,1.0848,1.0469,0.9905,0.953,0.9191,0.9187,0.9004,0.8665,0.8284,0.7667,0.688,0.6319,0.5932,0.5725,0.5337,0.4768,0.4387,0.3815,0.3434,0.3054,0.3051,0.2855,0.2469]},{"header":{"parameterUnit":"m.s-1","parameterCategory":1,"la1":31.0,"la2":29.5877,"lo1":-88.7671,"lo2":-86.6584,"dy":0.0162,"dx":0.0185,"nx":115,"ny":88,"refTime":"2023-10-20T06:00:00:Z","depth":0,"parameterNumber":3,"parameterNumberName":"V-component_of_WINDS"},"data":[0.0,0.0,0.0,0.0,0.0,0.0,0.0,0.0,0.0,0.0,0.0,0.0,0.0,0.0,0.0,0.0,0.0,0.0,0.0,0.0,0.0,0.0,0.0,0.0,0.0,0.0,0.0,0.0,0.0,0.0,0.0,0.0,0.0,0.0,0.0,0.0,0.0,0.0,0.0,0.0,0.0,0.0,0.0,0.0,0.0,0.0,0.0,0.0,0.0,0.0,0.0,0.0,0.0,0.0,0.0,0.0,0.0,0.0,0.0,0.0,0.0,0.0,0.0,0.0,0.0,0.0,0.0,0.0,0.0,0.0,0.0,0.0,0.0,0.0,0.0,0.0,0.0,0.0,0.0,0.0,0.0,0.0,0.0,0.0,0.0,0.0,0.0,0.0,0.0,0.0,0.0,0.0,0.0,0.0,0.0,0.0,0.0,0.0,0.0,0.0,0.0,0.0,0.0,0.0,0.0,0.0,0.0,0.0,0.0,0.0,0.0,0.0,0.0,0.0,0.0,0.0,0.0,0.0,0.0,0.0,0.0,0.0,0.0,0.0,0.0,0.0,0.0,0.0,0.0,0.0,0.0,0.0,0.0,0.0,0.0,0.0,0.0,0.0,0.0,0.0,0.0,0.0,0.0,0.0,0.0,0.0,0.0,0.0,0.0,0.0,0.0,0.0,0.0,0.0,0.0,0.0,0.0,0.0,0.0,0.0,0.0,0.0,0.0,0.0,0.0,0.0,0.0,0.0,0.0,0.0,0.0,0.0,0.0,0.0,0.0,0.0,0.0,0.0,0.0,0.0,0.0,0.0,0.0,0.0,0.0,0.0,0.0,0.0,0.0,0.0,0.0,0.0,0.0,0.0,0.0,0.0,0.0,0.0,0.0,0.0,0.0,0.0,0.0,0.0,0.0,0.0,0.0,0.0,0.0,0.0,0.0,0.0,0.0,0.0,0.0,0.0,0.0,0.0,0.0,0.0,0.0,0.0,0.0,0.0,0.0,0.0,0.0,0.0,0.0,0.0,0.0,0.0,0.0,0.0,0.0,0.0,0.0,0.0,0.0,0.0,0.0,0.0,0.0,0.0,0.0,0.0,0.0,0.0,0.0,0.0,0.0,0.0,0.0,0.0,0.0,0.0,0.0,0.0,0.0,0.0,0.0,0.0,0.0,0.0,0.0,0.0,0.0,0.0,0.0,0.0,0.0,0.0,0.0,0.0,0.0,0.0,0.0,0.0,0.0,0.0,0.0,0.0,0.0,0.0,0.0,0.0,0.0,0.0,0.0,0.0,0.0,0.0,0.0,0.0,0.0,0.0,0.0,0.0,0.0,0.0,0.0,0.0,0.0,0.0,0.0,0.0,0.0,0.0,0.0,0.0,0.0,0.0,0.0,0.0,0.0,0.0,0.0,0.0,0.0,0.0,0.0,0.0,0.0,0.0,0.0,0.0,0.0,0.0,0.0,0.0,0.0,0.0,0.0,0.0,0.0,0.0,0.0,0.0,0.0,0.0,0.0,0.0,0.0,0.0,0.0,0.0,0.0,0.0,0.0,0.0,0.0,0.0,0.0,0.0,0.0,0.0,0.0,0.0,0.0,0.0,0.0,0.0,0.0,0.0,0.0,0.0,0.0,0.0,0.0,0.0,0.0,0.0,0.0,0.0,0.0,0.0,0.0,0.0,0.0,0.0,0.0,0.0,0.0,0.0,0.0,0.0,0.0,0.0,0.0,0.0,0.0,0.0,0.0,0.0,0.0,0.0,0.0,0.0,0.0,0.0,0.0,0.0,0.0,0.0,0.0,0.0,0.0,0.0,0.0,0.0,0.0,0.0,0.0,0.0,0.0,0.0,0.0,0.0,0.0,0.0,0.0,0.0,0.0,0.0,0.0,0.0,0.0,0.0,0.0,0.0,0.0,0.0,0.0,0.0,0.0,0.0,0.0,0.0,0.0,0.0,0.0,0.0,0.0,0.0,0.0,0.0,0.0,0.0,0.0,0.0,0.0,0.0,0.0,0.0,0.0,0.0,0.0,0.0,0.0,0.0,0.0,0.0,0.0,0.0,0.0,0.0,0.0,0.0,0.0,0.0,0.0,0.0,0.0,0.0,0.0,0.0,0.0,0.0,0.0,0.0,0.0,0.0,0.0,0.0,0.0,0.0,0.0,0.0,0.0,0.0,0.0,0.0,0.0,0.0,0.0,0.0,0.0,0.0,0.0,0.0,0.0,0.0,0.0,0.0,0.0,0.0,0.0,0.0,0.0,0.0,0.0,0.0,0.0,0.0,0.0,0.0,0.0,0.0,0.0,0.0,0.0,0.0,0.0,0.0,0.0,0.0,0.0,0.0,0.0,0.0,0.0,0.0,0.0,0.0,0.0,0.0,0.0,0.0,0.0,0.0,0.0,0.0,0.0,0.0,0.0,0.0,0.0,0.0,0.0,0.0,0.0,0.0,0.0,0.0,0.0,0.0,0.0,0.0,0.0,0.0,0.0,0.0,0.0,0.0,0.0,0.0,0.0,0.0,0.0,0.0,0.0,0.0,0.0,0.0,0.0,0.0,0.0,0.0,0.0,0.0,0.0,0.0,0.0,0.0,0.0,0.0,0.0,0.0,0.0,0.0,0.0,0.0,0.0,0.0,0.0,0.0,0.0,0.0,0.0,0.0,0.0,0.0,0.0,0.0,0.0,0.0,0.0,0.0,0.0,0.0,0.0,0.0,0.0,0.0,0.0,0.0,0.0,0.0,0.0,0.0,0.0,0.0,0.0,0.0,0.0,0.0,0.0,0.0,0.0,0.0,0.0,0.0,0.0,0.0,0.0,0.0,0.0,0.0,0.0,0.0,0.0,0.0,0.0,0.0,0.0,0.0,0.0,0.0,0.0,0.0,0.0,0.0,0.0,0.0,0.0,0.0,0.0,0.0,0.0,0.0,0.0,0.0,0.0,0.0,0.0,0.0,0.0,0.0,0.0,0.0,0.0,0.0,0.0,0.0,0.0,0.0,0.0,0.0,0.0,0.0,0.0,0.0,0.0,0.0,0.0,0.0,0.0,0.0,0.0,0.0,0.0,0.0,0.0,0.0,0.0,0.0,0.0,0.0,0.0,0.0,0.0,0.0,0.0,0.0,0.0,0.0,0.0,0.0,0.0,0.0,0.0,0.0,0.0,0.0,0.0,0.0,0.0,0.0,0.0,0.0,0.0,0.0,0.0,0.0,0.0,0.0,0.0,0.0,0.0,0.0,0.0,0.0,0.0,0.0,0.0,0.0,0.0,0.0,0.0,0.0,0.0,0.0,0.0,0.0,0.0,0.0,0.0,0.0,0.0,0.0,0.0,0.0,0.0,0.0,0.0,0.0,0.0,0.0,0.0,0.0,0.0,0.0,0.0,0.0,0.0,0.0,0.0,0.0,0.0,0.0,0.0,0.0,0.0,0.0,0.0,0.0,0.0,0.0,0.0,0.0,0.0,0.0,0.0,0.0,0.0,0.0,0.0,0.0,0.0,0.0,0.0,0.0,0.0,0.0,0.0,0.0,0.0,0.0,0.0,0.0,0.0,0.0,0.0,0.0,0.0,0.0,0.0,0.0,0.0,0.0,0.0,0.0,0.0,0.0,0.0,0.0,0.0,0.0,0.0,0.0,0.0,0.0,0.0,0.0,0.0,0.0,0.0,0.0,0.0,0.0,0.0,0.0,0.0,0.0,0.0,0.0,0.0,0.0,0.0,0.0,0.0,0.0,0.0,0.0,0.0,0.0,0.0,0.0,0.0,0.0,0.0,0.0,0.0,0.0,0.0,0.0,0.0,0.0,0.0,0.0,0.0,0.0,0.0,0.0,0.0,0.0,0.0,0.0,0.0,0.0,0.0,0.0,0.0,0.0,0.0,0.0,0.0,0.0,0.0,0.0,0.0,0.0,0.0,0.0,0.0,0.0,0.0,0.0,0.0,0.0,0.0,0.0,0.0,0.0,0.0,0.0,0.0,0.0,0.0,0.0,0.0,0.0,0.0,0.0,0.0,0.0,0.0,0.0,0.0,0.0,0.0,0.0,0.0,0.0,0.0,0.0,0.0,0.0,0.0,0.0,0.0,0.0,0.0,0.0,0.0,0.0,0.0,0.0,0.0,0.0,0.0,0.0,0.0,0.0,0.0,0.0,0.0,0.0,0.0,0.0,0.0,0.0,0.0,0.0,0.0,0.0,0.0,0.0,0.0,0.0,0.0,0.0,0.0,0.0,0.0,0.0,0.0,0.0,0.0,0.0,0.0,0.0,0.0,0.0,0.0,0.0,-5.1287,0.0,0.0,0.0,0.0,0.0,0.0,0.0,0.0,0.0,0.0,0.0,0.0,0.0,0.0,0.0,0.0,0.0,0.0,0.0,0.0,0.0,0.0,0.0,0.0,0.0,0.0,0.0,0.0,0.0,0.0,0.0,0.0,0.0,0.0,0.0,0.0,0.0,0.0,0.0,0.0,0.0,0.0,0.0,0.0,0.0,0.0,0.0,0.0,0.0,0.0,0.0,0.0,0.0,0.0,0.0,0.0,0.0,0.0,0.0,0.0,0.0,0.0,0.0,0.0,0.0,0.0,0.0,0.0,0.0,0.0,0.0,0.0,0.0,0.0,0.0,0.0,0.0,0.0,0.0,0.0,0.0,0.0,0.0,0.0,0.0,0.0,0.0,0.0,0.0,0.0,0.0,0.0,0.0,0.0,0.0,0.0,0.0,0.0,0.0,0.0,0.0,0.0,0.0,0.0,0.0,0.0,0.0,0.0,0.0,0.0,-5.119,-5.1239,-5.1287,-5.1295,-5.1304,0.0,0.0,0.0,0.0,0.0,0.0,0.0,0.0,0.0,0.0,0.0,0.0,0.0,0.0,0.0,0.0,0.0,0.0,0.0,0.0,0.0,0.0,0.0,0.0,0.0,0.0,0.0,0.0,0.0,0.0,0.0,0.0,0.0,0.0,0.0,0.0,0.0,0.0,0.0,0.0,0.0,0.0,0.0,0.0,0.0,0.0,0.0,0.0,0.0,0.0,0.0,0.0,0.0,0.0,0.0,0.0,0.0,0.0,0.0,0.0,0.0,0.0,0.0,0.0,0.0,0.0,0.0,0.0,0.0,0.0,0.0,0.0,0.0,0.0,0.0,0.0,0.0,0.0,0.0,0.0,0.0,0.0,0.0,0.0,0.0,0.0,0.0,0.0,0.0,0.0,0.0,0.0,0.0,0.0,0.0,0.0,0.0,0.0,0.0,0.0,0.0,0.0,0.0,0.0,0.0,0.0,0.0,0.0,0.0,0.0,0.0,0.0,-5.1304,-5.1226,-5.1008,0.0,0.0,0.0,0.0,0.0,0.0,0.0,0.0,0.0,0.0,0.0,0.0,0.0,0.0,0.0,0.0,0.0,0.0,0.0,0.0,0.0,0.0,0.0,0.0,0.0,0.0,0.0,0.0,0.0,0.0,0.0,0.0,0.0,0.0,0.0,0.0,0.0,0.0,0.0,0.0,0.0,0.0,0.0,0.0,0.0,0.0,0.0,0.0,0.0,0.0,0.0,0.0,0.0,0.0,0.0,0.0,0.0,0.0,0.0,0.0,0.0,0.0,0.0,0.0,0.0,0.0,0.0,0.0,0.0,0.0,0.0,0.0,0.0,0.0,0.0,0.0,0.0,0.0,0.0,0.0,0.0,0.0,0.0,0.0,0.0,0.0,0.0,0.0,0.0,0.0,0.0,0.0,0.0,0.0,0.0,0.0,0.0,0.0,0.0,0.0,0.0,0.0,0.0,0.0,0.0,0.0,0.0,0.0,0.0,0.0,-5.1287,-5.1295,-5.1273,0.0,-5.0151,0.0,0.0,0.0,0.0,0.0,0.0,0.0,0.0,0.0,0.0,0.0,0.0,0.0,0.0,0.0,0.0,0.0,0.0,0.0,0.0,0.0,0.0,0.0,0.0,0.0,0.0,0.0,0.0,0.0,0.0,0.0,0.0,0.0,0.0,0.0,0.0,0.0,0.0,0.0,0.0,0.0,0.0,0.0,0.0,0.0,0.0,0.0,0.0,0.0,0.0,0.0,0.0,0.0,0.0,0.0,0.0,0.0,0.0,0.0,0.0,0.0,0.0,0.0,0.0,0.0,0.0,0.0,0.0,0.0,0.0,0.0,0.0,0.0,0.0,0.0,0.0,0.0,0.0,0.0,0.0,0.0,0.0,0.0,0.0,0.0,0.0,0.0,0.0,0.0,0.0,0.0,0.0,0.0,0.0,0.0,0.0,0.0,0.0,0.0,0.0,0.0,0.0,0.0,0.0,0.0,0.0,0.0,0.0,0.0,0.0,-4.9776,-4.9823,-4.9839,-4.9644,0.0,0.0,0.0,0.0,0.0,0.0,0.0,0.0,0.0,0.0,0.0,0.0,0.0,0.0,0.0,0.0,0.0,0.0,0.0,0.0,0.0,0.0,0.0,0.0,0.0,0.0,0.0,0.0,0.0,0.0,0.0,0.0,0.0,0.0,0.0,0.0,0.0,0.0,0.0,0.0,0.0,0.0,0.0,0.0,0.0,0.0,0.0,0.0,0.0,0.0,0.0,0.0,0.0,0.0,0.0,0.0,0.0,0.0,0.0,0.0,0.0,0.0,0.0,0.0,0.0,0.0,0.0,0.0,0.0,0.0,0.0,0.0,0.0,0.0,0.0,0.0,0.0,0.0,0.0,0.0,0.0,0.0,0.0,0.0,0.0,0.0,0.0,0.0,0.0,0.0,0.0,0.0,0.0,0.0,0.0,0.0,0.0,0.0,0.0,0.0,0.0,0.0,0.0,0.0,0.0,0.0,0.0,0.0,0.0,0.0,-4.8716,-4.8772,-4.8787,-4.8553,-4.8436,-4.8436,0.0,0.0,0.0,0.0,0.0,0.0,0.0,0.0,0.0,0.0,0.0,0.0,0.0,0.0,0.0,0.0,0.0,0.0,0.0,0.0,0.0,0.0,0.0,0.0,0.0,0.0,0.0,0.0,0.0,0.0,0.0,0.0,0.0,0.0,0.0,0.0,0.0,0.0,0.0,0.0,0.0,0.0,0.0,0.0,0.0,0.0,0.0,0.0,0.0,0.0,0.0,0.0,0.0,0.0,0.0,0.0,0.0,0.0,0.0,0.0,0.0,0.0,0.0,0.0,0.0,0.0,0.0,0.0,0.0,0.0,0.0,0.0,0.0,0.0,0.0,0.0,0.0,0.0,0.0,0.0,0.0,0.0,0.0,0.0,0.0,0.0,0.0,0.0,0.0,0.0,0.0,0.0,0.0,0.0,0.0,0.0,0.0,0.0,0.0,0.0,0.0,0.0,0.0,0.0,0.0,0.0,0.0,0.0,-4.8669,-4.8733,-4.8787,-4.8709,-4.7969,-4.7579,0.0,0.0,0.0,0.0,0.0,0.0,0.0,0.0,0.0,0.0,0.0,0.0,0.0,0.0,0.0,0.0,0.0,0.0,0.0,0.0,0.0,0.0,0.0,0.0,0.0,0.0,0.0,0.0,0.0,0.0,0.0,0.0,0.0,0.0,0.0,0.0,0.0,0.0,0.0,0.0,0.0,0.0,0.0,0.0,0.0,0.0,0.0,0.0,0.0,0.0,0.0,0.0,0.0,0.0,0.0,0.0,0.0,0.0,0.0,0.0,0.0,0.0,0.0,0.0,0.0,0.0,0.0,0.0,0.0,0.0,0.0,0.0,0.0,0.0,0.0,0.0,0.0,0.0,0.0,0.0,0.0,0.0,0.0,0.0,0.0,0.0,0.0,0.0,0.0,0.0,0.0,0.0,0.0,0.0,0.0,0.0,0.0,0.0,0.0,0.0,0.0,0.0,0.0,0.0,0.0,0.0,0.0,0.0,0.0,-4.7097,-4.7111,-4.7111,-4.7111,-4.6839,-4.6651,0.0,0.0,0.0,0.0,0.0,0.0,0.0,0.0,0.0,0.0,0.0,0.0,0.0,0.0,0.0,0.0,0.0,0.0,0.0,0.0,0.0,0.0,0.0,0.0,0.0,0.0,0.0,0.0,0.0,0.0,0.0,0.0,0.0,0.0,0.0,0.0,0.0,0.0,0.0,0.0,0.0,0.0,0.0,0.0,0.0,0.0,0.0,0.0,0.0,0.0,0.0,0.0,0.0,0.0,0.0,0.0,0.0,0.0,0.0,0.0,0.0,0.0,0.0,0.0,0.0,0.0,0.0,0.0,0.0,0.0,0.0,0.0,0.0,0.0,0.0,0.0,0.0,0.0,0.0,0.0,0.0,0.0,0.0,0.0,0.0,0.0,0.0,0.0,0.0,0.0,0.0,0.0,0.0,0.0,0.0,0.0,0.0,0.0,0.0,0.0,0.0,0.0,0.0,0.0,0.0,0.0,0.0,0.0,0.0,-4.6215,0.0,-4.6222,-4.619,-4.619,-4.6196,0.0,0.0,0.0,0.0,0.0,0.0,0.0,0.0,0.0,0.0,0.0,0.0,0.0,0.0,0.0,0.0,0.0,0.0,0.0,0.0,0.0,0.0,0.0,0.0,0.0,0.0,0.0,0.0,0.0,0.0,0.0,0.0,0.0,0.0,0.0,0.0,0.0,0.0,0.0,0.0,0.0,0.0,0.0,0.0,0.0,0.0,0.0,0.0,0.0,0.0,0.0,0.0,0.0,0.0,0.0,0.0,0.0,0.0,0.0,0.0,0.0,0.0,0.0,0.0,0.0,0.0,0.0,0.0,0.0,0.0,0.0,0.0,0.0,0.0,0.0,0.0,0.0,0.0,0.0,0.0,0.0,0.0,0.0,0.0,0.0,0.0,0.0,0.0,0.0,0.0,0.0,0.0,0.0,0.0,0.0,0.0,0.0,0.0,0.0,0.0,0.0,0.0,0.0,0.0,0.0,0.0,0.0,0.0,-4.6215,-4.6215,-4.6215,-4.619,-4.6203,-4.6203,-4.6209,0.0,0.0,0.0,0.0,0.0,0.0,0.0,0.0,0.0,0.0,0.0,0.0,0.0,0.0,0.0,0.0,0.0,0.0,0.0,0.0,0.0,0.0,0.0,0.0,0.0,0.0,0.0,0.0,0.0,0.0,0.0,0.0,0.0,0.0,0.0,0.0,0.0,0.0,0.0,0.0,0.0,0.0,0.0,0.0,0.0,0.0,0.0,0.0,0.0,0.0,0.0,0.0,0.0,0.0,0.0,0.0,0.0,0.0,0.0,0.0,0.0,0.0,0.0,0.0,0.0,0.0,0.0,0.0,0.0,0.0,0.0,0.0,0.0,0.0,0.0,0.0,0.0,0.0,0.0,0.0,0.0,0.0,0.0,0.0,0.0,0.0,0.0,0.0,0.0,0.0,0.0,0.0,0.0,0.0,0.0,0.0,0.0,0.0,0.0,0.0,0.0,0.0,0.0,0.0,0.0,0.0,0.0,0.0,0.0,-4.6196,-4.6196,-4.6203,-4.622,-4.622,-4.6226,0.0,0.0,0.0,0.0,0.0,0.0,0.0,0.0,0.0,0.0,0.0,0.0,0.0,0.0,0.0,0.0,0.0,0.0,0.0,0.0,0.0,0.0,0.0,0.0,0.0,0.0,0.0,0.0,0.0,0.0,0.0,0.0,0.0,0.0,0.0,0.0,0.0,0.0,0.0,0.0,0.0,0.0,0.0,0.0,0.0,0.0,0.0,0.0,0.0,0.0,0.0,0.0,0.0,0.0,0.0,0.0,0.0,0.0,0.0,0.0,0.0,0.0,0.0,0.0,0.0,0.0,0.0,0.0,0.0,0.0,0.0,0.0,0.0,0.0,0.0,0.0,0.0,0.0,0.0,0.0,0.0,0.0,0.0,0.0,0.0,0.0,0.0,0.0,0.0,0.0,0.0,0.0,0.0,0.0,0.0,0.0,0.0,0.0,0.0,0.0,0.0,0.0,0.0,0.0,0.0,0.0,0.0,0.0,0.0,-4.6649,-4.6371,-4.622,-4.6236,-4.6231,-4.6236,-4.6288,0.0,0.0,0.0,0.0,0.0,0.0,0.0,0.0,0.0,0.0,0.0,0.0,0.0,0.0,0.0,0.0,0.0,0.0,0.0,0.0,0.0,0.0,0.0,0.0,0.0,0.0,0.0,0.0,0.0,0.0,0.0,0.0,0.0,0.0,0.0,0.0,0.0,0.0,0.0,0.0,0.0,0.0,0.0,0.0,0.0,0.0,0.0,0.0,0.0,0.0,0.0,0.0,0.0,0.0,0.0,0.0,0.0,0.0,0.0,0.0,0.0,0.0,0.0,0.0,0.0,0.0,0.0,0.0,0.0,0.0,0.0,0.0,0.0,0.0,0.0,0.0,0.0,0.0,0.0,0.0,0.0,0.0,0.0,0.0,0.0,0.0,0.0,0.0,0.0,0.0,0.0,0.0,0.0,0.0,0.0,0.0,0.0,0.0,0.0,0.0,0.0,0.0,0.0,0.0,0.0,0.0,0.0,0.0,-4.7494,-4.6704,-4.6314,-4.6401,-4.6396,-4.6362,0.0,0.0,0.0,0.0,0.0,0.0,0.0,0.0,0.0,0.0,0.0,0.0,0.0,0.0,0.0,0.0,0.0,0.0,0.0,0.0,0.0,0.0,0.0,0.0,0.0,0.0,0.0,0.0,0.0,0.0,0.0,0.0,0.0,0.0,0.0,0.0,0.0,0.0,0.0,0.0,0.0,0.0,0.0,0.0,0.0,0.0,0.0,0.0,0.0,0.0,0.0,0.0,0.0,0.0,0.0,0.0,0.0,0.0,0.0,0.0,0.0,0.0,0.0,0.0,0.0,0.0,0.0,0.0,0.0,0.0,0.0,0.0,0.0,0.0,0.0,0.0,0.0,0.0,0.0,0.0,0.0,0.0,0.0,0.0,0.0,0.0,0.0,0.0,0.0,0.0,0.0,0.0,0.0,0.0,0.0,0.0,0.0,0.0,0.0,0.0,0.0,0.0,0.0,0.0,0.0,0.0,0.0,0.0,0.0,-4.745,-4.7303,-4.7233,-4.7272,-4.7272,-4.696,0.0,0.0,0.0,0.0,0.0,0.0,0.0,0.0,0.0,0.0,0.0,0.0,0.0,0.0,0.0,0.0,0.0,0.0,0.0,0.0,0.0,0.0,0.0,0.0,0.0,0.0,0.0,0.0,0.0,0.0,0.0,0.0,0.0,0.0,0.0,0.0,0.0,0.0,0.0,0.0,0.0,0.0,0.0,0.0,0.0,0.0,0.0,0.0,0.0,0.0,0.0,0.0,0.0,0.0,0.0,0.0,0.0,0.0,0.0,0.0,0.0,0.0,0.0,0.0,0.0,0.0,0.0,0.0,0.0,0.0,0.0,0.0,0.0,0.0,0.0,0.0,0.0,0.0,0.0,0.0,0.0,0.0,0.0,0.0,0.0,0.0,0.0,0.0,0.0,0.0,0.0,0.0,0.0,0.0,0.0,0.0,0.0,0.0,0.0,0.0,0.0,0.0,0.0,0.0,0.0,0.0,0.0,0.0,-4.7182,-4.8021,-4.8462,-4.8664,-4.8666,-4.7991,-4.7207,0.0,0.0,0.0,0.0,0.0,0.0,0.0,0.0,0.0,0.0,0.0,0.0,0.0,0.0,0.0,0.0,0.0,0.0,0.0,0.0,0.0,0.0,0.0,0.0,0.0,0.0,0.0,0.0,0.0,0.0,0.0,0.0,0.0,0.0,0.0,0.0,0.0,0.0,0.0,0.0,0.0,0.0,0.0,0.0,0.0,0.0,0.0,0.0,0.0,0.0,0.0,0.0,0.0,0.0,0.0,0.0,0.0,0.0,0.0,0.0,0.0,0.0,0.0,0.0,0.0,0.0,0.0,0.0,0.0,0.0,0.0,0.0,0.0,0.0,0.0,0.0,0.0,0.0,0.0,0.0,0.0,0.0,0.0,0.0,0.0,0.0,0.0,0.0,0.0,0.0,0.0,0.0,0.0,0.0,0.0,0.0,0.0,0.0,0.0,0.0,0.0,0.0,0.0,0.0,0.0,0.0,0.0,0.0,-4.7939,-4.8783,-4.9648,-5.0115,-5.0072,-4.8552,-4.7297,0.0,0.0,0.0,0.0,0.0,0.0,0.0,0.0,0.0,0.0,0.0,0.0,0.0,0.0,0.0,0.0,0.0,0.0,0.0,0.0,0.0,0.0,0.0,0.0,0.0,0.0,0.0,0.0,0.0,0.0,0.0,0.0,0.0,0.0,0.0,0.0,0.0,0.0,0.0,0.0,0.0,0.0,0.0,0.0,0.0,0.0,0.0,0.0,0.0,0.0,0.0,0.0,0.0,0.0,0.0,0.0,0.0,0.0,0.0,0.0,0.0,0.0,0.0,0.0,0.0,0.0,0.0,0.0,0.0,0.0,0.0,0.0,0.0,0.0,0.0,0.0,0.0,0.0,0.0,0.0,0.0,0.0,0.0,0.0,0.0,0.0,0.0,0.0,0.0,0.0,0.0,0.0,0.0,0.0,0.0,0.0,0.0,0.0,0.0,0.0,0.0,0.0,0.0,0.0,0.0,0.0,0.0,0.0,-4.79,-4.8786,-4.9643,-5.0126,-5.0098,-4.9121,-4.8147,0.0,0.0,0.0,0.0,0.0,0.0,0.0,0.0,0.0,0.0,0.0,0.0,0.0,0.0,0.0,0.0,0.0,0.0,0.0,0.0,0.0,0.0,0.0,0.0,0.0,0.0,0.0,0.0,0.0,0.0,0.0,0.0,0.0,0.0,0.0,0.0,0.0,0.0,0.0,0.0,0.0,0.0,0.0,0.0,0.0,0.0,0.0,0.0,-5.6624,0.0,0.0,0.0,0.0,0.0,0.0,0.0,0.0,0.0,0.0,0.0,0.0,0.0,0.0,0.0,0.0,0.0,0.0,0.0,0.0,0.0,0.0,0.0,0.0,0.0,0.0,0.0,0.0,0.0,0.0,0.0,0.0,0.0,0.0,0.0,0.0,0.0,0.0,0.0,0.0,0.0,0.0,0.0,0.0,0.0,0.0,0.0,0.0,0.0,0.0,0.0,0.0,0.0,0.0,0.0,0.0,0.0,0.0,0.0,-4.835,-4.8789,-5.0022,-5.0645,-5.0555,-4.9373,-4.8332,0.0,0.0,0.0,0.0,0.0,0.0,0.0,0.0,0.0,0.0,0.0,0.0,0.0,0.0,0.0,0.0,0.0,0.0,0.0,0.0,0.0,0.0,0.0,0.0,0.0,0.0,0.0,0.0,0.0,0.0,0.0,0.0,0.0,0.0,0.0,0.0,0.0,0.0,0.0,0.0,0.0,0.0,0.0,0.0,0.0,0.0,0.0,0.0,0.0,0.0,0.0,0.0,0.0,0.0,0.0,0.0,0.0,0.0,0.0,0.0,0.0,0.0,0.0,0.0,0.0,0.0,0.0,0.0,0.0,0.0,0.0,0.0,0.0,0.0,0.0,0.0,0.0,0.0,0.0,0.0,0.0,0.0,0.0,0.0,0.0,0.0,0.0,0.0,0.0,0.0,0.0,0.0,0.0,0.0,0.0,0.0,0.0,0.0,0.0,0.0,0.0,0.0,0.0,0.0,0.0,0.0,0.0,-4.7963,-4.8789,-4.886,-5.0156,-5.0888,-5.0772,-4.8972,-4.7782,-4.726,0.0,0.0,0.0,0.0,0.0,0.0,0.0,0.0,0.0,0.0,0.0,0.0,0.0,0.0,0.0,0.0,0.0,0.0,0.0,0.0,0.0,0.0,0.0,0.0,0.0,0.0,0.0,0.0,0.0,0.0,0.0,0.0,0.0,0.0,0.0,0.0,0.0,0.0,-5.4541,-5.524,0.0,0.0,0.0,0.0,0.0,0.0,0.0,0.0,-5.7477,0.0,0.0,0.0,0.0,0.0,0.0,0.0,0.0,0.0,0.0,0.0,0.0,0.0,0.0,0.0,0.0,0.0,0.0,0.0,0.0,0.0,0.0,0.0,0.0,0.0,0.0,0.0,0.0,0.0,0.0,0.0,0.0,0.0,0.0,0.0,0.0,0.0,0.0,0.0,0.0,0.0,0.0,0.0,0.0,0.0,0.0,0.0,0.0,0.0,0.0,0.0,0.0,0.0,0.0,0.0,0.0,-4.6288,-4.8008,-4.8864,-4.8798,-4.8996,-4.908,-4.8953,-4.655,-4.5556,-4.613,0.0,0.0,0.0,0.0,0.0,0.0,0.0,0.0,0.0,0.0,0.0,0.0,0.0,0.0,0.0,0.0,0.0,0.0,0.0,0.0,0.0,0.0,0.0,0.0,0.0,0.0,0.0,0.0,0.0,0.0,0.0,0.0,0.0,0.0,0.0,0.0,0.0,0.0,0.0,-5.7399,-5.7699,0.0,0.0,0.0,0.0,0.0,0.0,0.0,0.0,-5.8792,0.0,0.0,0.0,0.0,0.0,0.0,0.0,0.0,0.0,0.0,0.0,0.0,0.0,0.0,0.0,0.0,0.0,0.0,0.0,0.0,0.0,0.0,0.0,0.0,0.0,0.0,0.0,0.0,0.0,0.0,0.0,0.0,0.0,0.0,0.0,0.0,0.0,0.0,0.0,0.0,0.0,0.0,0.0,0.0,0.0,0.0,0.0,0.0,0.0,0.0,0.0,0.0,0.0,0.0,0.0,-4.6362,-4.7571,-4.7988,-4.7484,-4.7782,-4.7688,-4.7144,-4.5465,-4.4945,0.0,0.0,0.0,0.0,0.0,0.0,0.0,0.0,0.0,0.0,0.0,0.0,0.0,0.0,0.0,0.0,0.0,0.0,0.0,0.0,0.0,0.0,0.0,0.0,0.0,0.0,0.0,0.0,0.0,0.0,0.0,0.0,0.0,0.0,0.0,0.0,0.0,0.0,0.0,0.0,-5.6479,-5.6202,-5.7061,0.0,0.0,0.0,0.0,0.0,0.0,-5.8423,-5.8144,0.0,0.0,0.0,0.0,0.0,0.0,0.0,0.0,0.0,0.0,0.0,0.0,0.0,0.0,0.0,0.0,0.0,0.0,0.0,0.0,0.0,0.0,0.0,0.0,0.0,0.0,0.0,0.0,0.0,0.0,0.0,0.0,0.0,0.0,0.0,0.0,0.0,0.0,0.0,0.0,0.0,0.0,0.0,0.0,0.0,0.0,0.0,0.0,0.0,0.0,0.0,0.0,0.0,0.0,0.0,-4.6342,-4.7151,-4.7216,-4.6476,-4.6649,-4.638,-4.5557,-4.4322,-4.4176,0.0,0.0,0.0,0.0,0.0,0.0,0.0,0.0,0.0,0.0,0.0,0.0,0.0,0.0,0.0,0.0,0.0,0.0,0.0,0.0,0.0,0.0,0.0,0.0,0.0,0.0,0.0,0.0,0.0,0.0,0.0,0.0,0.0,0.0,0.0,0.0,0.0,0.0,0.0,0.0,0.0,-5.5625,-5.6484,-5.7344,0.0,0.0,0.0,0.0,-5.9842,-5.8665,0.0,0.0,0.0,0.0,0.0,0.0,0.0,0.0,0.0,0.0,0.0,0.0,0.0,0.0,0.0,0.0,0.0,0.0,0.0,0.0,0.0,0.0,0.0,0.0,0.0,0.0,0.0,0.0,0.0,0.0,0.0,0.0,0.0,0.0,0.0,0.0,0.0,0.0,0.0,0.0,0.0,0.0,0.0,0.0,0.0,0.0,0.0,0.0,0.0,0.0,0.0,0.0,0.0,0.0,0.0,0.0,-4.6339,-4.7078,-4.7437,-4.7182,-4.5716,-4.4834,-4.4631,-4.2264,-4.1709,0.0,0.0,0.0,0.0,0.0,0.0,0.0,0.0,0.0,0.0,0.0,0.0,0.0,0.0,0.0,0.0,0.0,0.0,0.0,0.0,0.0,0.0,0.0,0.0,0.0,0.0,0.0,0.0,0.0,0.0,0.0,0.0,0.0,0.0,0.0,0.0,0.0,0.0,0.0,0.0,0.0,-5.9961,-6.082,-6.1719,-6.1992,0.0,0.0,-6.156,-6.2436,-6.1764,0.0,0.0,0.0,0.0,0.0,0.0,0.0,0.0,0.0,0.0,0.0,0.0,0.0,0.0,0.0,0.0,0.0,0.0,0.0,0.0,0.0,0.0,0.0,0.0,0.0,0.0,0.0,0.0,0.0,0.0,0.0,0.0,0.0,0.0,0.0,0.0,0.0,0.0,0.0,0.0,0.0,0.0,0.0,0.0,0.0,0.0,0.0,0.0,0.0,0.0,0.0,0.0,0.0,0.0,0.0,-4.6287,-4.6327,-4.6625,-4.6434,-4.5811,-4.4993,-4.4259,-4.3614,-4.2462,-4.2458,0.0,0.0,0.0,0.0,0.0,0.0,0.0,0.0,0.0,0.0,0.0,0.0,0.0,0.0,0.0,0.0,0.0,0.0,0.0,0.0,0.0,0.0,0.0,0.0,0.0,0.0,0.0,0.0,0.0,0.0,0.0,0.0,0.0,0.0,0.0,0.0,0.0,0.0,0.0,0.0,0.0,0.0,-6.0703,-6.0898,0.0,0.0,0.0,-6.1235,-6.2127,0.0,0.0,0.0,0.0,0.0,0.0,0.0,0.0,0.0,0.0,0.0,0.0,0.0,0.0,0.0,0.0,0.0,0.0,0.0,0.0,0.0,0.0,0.0,0.0,0.0,0.0,0.0,0.0,0.0,0.0,0.0,0.0,0.0,0.0,0.0,0.0,0.0,0.0,0.0,0.0,0.0,0.0,0.0,0.0,0.0,0.0,0.0,0.0,0.0,0.0,0.0,0.0,0.0,0.0,0.0,0.0,0.0,-4.627,-4.6193,-4.5754,-4.4945,-4.4615,-4.4025,-4.3234,-4.2795,0.0,0.0,0.0,0.0,0.0,0.0,0.0,0.0,0.0,0.0,0.0,0.0,0.0,0.0,0.0,0.0,0.0,0.0,0.0,0.0,0.0,0.0,0.0,0.0,0.0,0.0,0.0,-5.1094,0.0,0.0,0.0,0.0,0.0,0.0,0.0,0.0,0.0,0.0,0.0,0.0,0.0,0.0,-5.8906,-6.0779,-6.0935,-6.0735,0.0,0.0,-6.1686,-6.256,-6.2315,-6.2301,0.0,0.0,0.0,0.0,0.0,0.0,0.0,0.0,0.0,0.0,0.0,0.0,0.0,0.0,0.0,0.0,0.0,0.0,0.0,0.0,0.0,0.0,0.0,0.0,0.0,0.0,0.0,0.0,0.0,0.0,0.0,0.0,0.0,0.0,0.0,0.0,0.0,0.0,0.0,0.0,0.0,0.0,0.0,0.0,0.0,0.0,0.0,0.0,0.0,0.0,0.0,0.0,0.0,0.0,0.0,-4.6209,-4.6076,-4.5929,-4.5776,-4.4762,-4.4192,-4.4075,-4.245,-4.2432,0.0,0.0,0.0,0.0,0.0,0.0,0.0,0.0,0.0,0.0,0.0,0.0,0.0,0.0,0.0,0.0,0.0,0.0,0.0,0.0,0.0,0.0,0.0,0.0,0.0,0.0,0.0,0.0,0.0,0.0,0.0,0.0,0.0,0.0,0.0,0.0,0.0,0.0,0.0,0.0,0.0,-6.2615,-6.2783,-6.4184,-6.4852,0.0,0.0,-6.4336,-6.5194,-6.3984,-6.3204,-6.4062,0.0,0.0,0.0,0.0,0.0,0.0,0.0,0.0,0.0,0.0,0.0,0.0,0.0,0.0,0.0,0.0,0.0,0.0,0.0,0.0,0.0,0.0,0.0,0.0,0.0,0.0,0.0,0.0,0.0,0.0,0.0,0.0,0.0,0.0,0.0,0.0,0.0,0.0,0.0,0.0,0.0,0.0,0.0,0.0,0.0,0.0,0.0,0.0,0.0,0.0,0.0,0.0,0.0,-4.6215,-4.6115,-4.6017,-4.5841,-4.5703,-4.5201,-4.4882,-4.4767,-4.4124,-4.4111,0.0,0.0,0.0,0.0,0.0,0.0,0.0,0.0,0.0,0.0,0.0,0.0,0.0,0.0,0.0,0.0,0.0,0.0,0.0,0.0,0.0,0.0,0.0,0.0,0.0,0.0,0.0,0.0,-5.0195,-4.9726,-4.9687,0.0,0.0,0.0,0.0,0.0,0.0,0.0,0.0,0.0,0.0,-6.179,-6.2833,-6.4032,0.0,0.0,-6.4731,-6.5189,-6.5496,-6.4989,-6.4476,-6.4268,-6.2785,0.0,0.0,0.0,0.0,0.0,0.0,0.0,0.0,0.0,0.0,0.0,0.0,0.0,0.0,0.0,0.0,0.0,0.0,0.0,0.0,0.0,0.0,0.0,0.0,0.0,0.0,0.0,0.0,0.0,0.0,0.0,0.0,0.0,0.0,0.0,0.0,0.0,0.0,0.0,0.0,0.0,0.0,0.0,0.0,0.0,0.0,0.0,0.0,0.0,0.0,0.0,0.0,-4.6123,-4.6095,-4.5914,-4.5775,-4.556,-4.5438,-4.5277,-4.5118,-4.4897,-4.4903,0.0,0.0,0.0,0.0,0.0,0.0,0.0,0.0,0.0,0.0,0.0,0.0,0.0,0.0,0.0,0.0,0.0,0.0,0.0,0.0,0.0,0.0,0.0,0.0,0.0,0.0,0.0,0.0,-5.0312,-4.9804,-4.9802,0.0,0.0,0.0,0.0,0.0,0.0,0.0,0.0,0.0,0.0,-6.1427,-6.3146,-6.4106,-6.4755,-6.5028,-6.5574,-6.5959,-6.5907,-6.5673,-6.5198,-6.4326,0.0,0.0,0.0,0.0,0.0,0.0,0.0,0.0,0.0,0.0,0.0,0.0,0.0,0.0,0.0,0.0,0.0,0.0,0.0,0.0,0.0,0.0,0.0,0.0,0.0,0.0,0.0,0.0,0.0,0.0,0.0,0.0,0.0,0.0,0.0,0.0,0.0,0.0,0.0,0.0,0.0,0.0,0.0,0.0,0.0,0.0,0.0,0.0,0.0,0.0,0.0,0.0,0.0,-4.6074,-4.5997,-4.5841,-4.5626,-4.5532,-4.5319,-4.5208,-4.5103,-4.4296,-4.4281,-4.5192,0.0,0.0,0.0,0.0,0.0,0.0,0.0,0.0,0.0,0.0,0.0,0.0,0.0,0.0,0.0,0.0,0.0,0.0,0.0,0.0,0.0,0.0,0.0,0.0,0.0,0.0,-5.0312,-4.9492,-4.902,0.0,0.0,0.0,0.0,0.0,0.0,0.0,0.0,0.0,0.0,-6.0588,-6.2306,-6.3984,-6.4944,-6.5712,-6.6538,-6.672,-6.6744,-6.6705,-6.6042,-6.5184,0.0,0.0,0.0,0.0,0.0,0.0,0.0,0.0,0.0,0.0,0.0,0.0,0.0,0.0,0.0,0.0,0.0,0.0,0.0,0.0,0.0,0.0,0.0,0.0,0.0,0.0,0.0,0.0,-5.0601,0.0,0.0,0.0,0.0,0.0,0.0,0.0,0.0,0.0,0.0,0.0,-5.0555,-5.1057,0.0,0.0,0.0,0.0,0.0,0.0,0.0,0.0,0.0,0.0,0.0,0.0,-4.6268,-4.6745,-4.6592,-4.6429,-4.6283,-4.6122,-4.5748,-4.5141,-4.4859,-4.5213,-4.6164,0.0,0.0,0.0,0.0,0.0,0.0,0.0,0.0,0.0,0.0,0.0,0.0,0.0,0.0,0.0,0.0,0.0,0.0,0.0,0.0,0.0,0.0,0.0,0.0,0.0,-5.0663,0.0,0.0,0.0,0.0,0.0,0.0,0.0,0.0,0.0,0.0,0.0,-5.8168,-5.8987,-6.0617,-6.229,-6.4007,-6.4971,-6.562,0.0,0.0,0.0,0.0,0.0,0.0,0.0,0.0,0.0,0.0,0.0,0.0,0.0,0.0,-6.8904,-6.6377,-6.5925,-6.5925,-6.5917,0.0,0.0,0.0,0.0,0.0,0.0,0.0,0.0,0.0,0.0,0.0,0.0,0.0,0.0,0.0,0.0,-5.2416,0.0,0.0,0.0,0.0,0.0,0.0,0.0,0.0,-5.2021,-5.2517,-5.2298,-5.2799,-5.2792,0.0,-5.1395,-5.0225,0.0,0.0,0.0,0.0,0.0,0.0,0.0,0.0,-4.6654,-4.7129,-4.7246,-4.7145,-4.6742,-4.6585,-4.6211,-4.5627,-4.596,-4.6466,-4.7126,-4.7242,-4.7598,0.0,0.0,0.0,0.0,0.0,0.0,0.0,0.0,0.0,0.0,0.0,0.0,0.0,0.0,0.0,0.0,0.0,0.0,0.0,0.0,0.0,0.0,0.0,-5.1831,0.0,0.0,0.0,0.0,0.0,0.0,0.0,0.0,0.0,-5.6606,-5.7309,-5.8363,-5.9802,-6.0729,-6.2089,-6.4346,0.0,0.0,0.0,0.0,0.0,0.0,0.0,-6.7569,-6.7564,-6.7553,-6.7839,-6.8695,-7.0265,-7.1952,-7.3691,0.0,0.0,-6.9713,-6.9255,-6.9449,-6.9449,-6.9392,-6.9382,-6.9382,-6.9801,-7.0492,0.0,0.0,0.0,0.0,0.0,0.0,0.0,0.0,-5.3598,-5.3475,0.0,-5.2734,0.0,0.0,0.0,0.0,0.0,0.0,0.0,0.0,-5.2454,-5.3228,-5.4001,-5.4056,-5.4048,-5.397,-5.3112,-5.2216,-5.1242,-4.886,0.0,0.0,0.0,0.0,0.0,0.0,-4.7157,-4.7079,-4.7773,-4.7684,-4.6857,-4.6758,-4.664,-4.656,-4.7465,-4.7966,-4.8028,-4.822,-4.8381,-4.8546,-4.8645,0.0,0.0,0.0,0.0,0.0,0.0,0.0,0.0,0.0,0.0,0.0,0.0,0.0,0.0,0.0,0.0,0.0,0.0,0.0,0.0,-5.3536,0.0,0.0,0.0,0.0,0.0,0.0,0.0,0.0,0.0,0.0,-5.7226,-5.7621,-5.8905,-6.1387,0.0,0.0,0.0,0.0,-6.523,-6.7686,-6.8047,-6.8388,-6.9206,-6.934,-6.9395,-6.9383,0.0,0.0,-7.2827,-7.4646,-7.6232,-7.7905,-7.8246,-7.7313,-7.4116,-7.4038,-7.4466,-7.4466,-7.4427,-7.4544,-7.4544,-7.4466,-7.5285,-5.726,0.0,0.0,0.0,0.0,-5.5389,-5.5631,-5.5365,-5.4999,-5.4687,-5.4453,-5.4468,0.0,0.0,0.0,0.0,0.0,0.0,-5.4111,-5.4203,-5.5613,-5.6418,-5.6628,-5.6619,-5.6619,-5.6541,-5.5178,-5.4009,-5.3073,-5.1172,-4.9496,-4.8086,0.0,0.0,0.0,0.0,-4.8034,-4.7967,-4.8623,-4.8817,-4.8567,-4.8488,-4.8161,-4.7568,-4.851,-4.899,-4.9083,-4.9732,-5.0471,-5.1145,-5.0662,0.0,0.0,0.0,0.0,0.0,0.0,0.0,0.0,0.0,0.0,0.0,0.0,0.0,0.0,0.0,0.0,0.0,0.0,0.0,-5.3518,-5.4424,-5.5091,0.0,0.0,0.0,0.0,0.0,0.0,0.0,0.0,0.0,-6.1992,-6.1732,-6.1777,0.0,0.0,-6.4583,-6.6135,-6.6663,-6.7385,-6.8749,0.0,0.0,0.0,-7.1716,-7.2887,-7.286,-7.4281,-7.6138,-7.8103,-7.8837,-7.9548,-8.0707,-8.1399,-8.1519,-8.0662,-7.9065,-7.8168,-7.8051,-7.8051,-7.8051,-7.8051,-7.8519,-7.9376,-6.0867,-5.8295,-5.8451,-5.8022,-5.7321,-5.8139,-5.8304,-5.7961,-5.7438,-5.7009,-5.6658,-5.6363,-5.5567,-5.4468,-5.4484,0.0,0.0,0.0,-5.6218,-5.6301,-5.7658,-5.8234,-5.8217,-5.8217,-5.8217,-5.8178,-5.7204,-5.6269,-5.5411,-5.4009,-5.2684,-5.1281,0.0,0.0,-4.7893,-4.8618,-4.8914,-4.8887,-4.9581,-4.9778,-4.9413,-4.9375,-4.9105,-4.868,-4.9486,-5.0173,-5.0549,-5.1138,-5.1911,-5.2809,-5.2407,-5.228,0.0,0.0,0.0,0.0,0.0,0.0,0.0,0.0,0.0,0.0,0.0,-5.1929,-5.1938,0.0,0.0,0.0,-5.3341,-5.447,-5.4966,-5.6411,0.0,0.0,0.0,0.0,0.0,0.0,0.0,-6.4067,-6.495,-6.5761,-6.6611,-6.6931,-6.651,-6.5129,-6.5823,-6.6906,-6.8105,0.0,-6.9946,-7.1154,-7.205,-7.2869,-7.357,-7.4898,-7.6052,-7.6692,-7.8604,-8.0491,-8.1852,-8.2392,-8.3104,-8.4264,-8.4996,-8.5492,-8.5884,-8.4637,-8.3195,-8.2299,-8.2338,-8.2533,-8.2533,-8.2961,-8.3585,-6.4062,-6.3322,-6.2542,-6.1568,-6.0594,-6.1412,-6.1344,-6.0612,-6.0525,-6.001,-5.9161,-5.8304,-5.6956,-5.5438,-5.5543,0.0,0.0,-5.7211,-5.8013,-5.8024,-5.881,-5.9191,-5.92,-5.9191,-5.9191,-5.92,-5.9161,-5.8694,-5.7875,-5.7018,-5.6152,-5.5217,-5.1226,-4.908,-4.8844,-4.9535,-4.9821,-4.9722,-5.0488,-5.0477,-4.9633,-4.9682,-4.9737,-4.9699,-5.0503,-5.1324,-5.2158,-5.2341,-5.2835,-5.3747,-5.3877,-5.3533,-5.2753,0.0,0.0,0.0,0.0,0.0,0.0,0.0,0.0,0.0,0.0,0.0,0.0,0.0,0.0,0.0,-5.5279,0.0,-5.6996,-5.9261,0.0,0.0,0.0,-6.287,-6.4424,-6.4684,-6.5683,-6.8219,0.0,0.0,0.0,0.0,-7.2355,-6.9236,-6.869,-6.9197,-7.0775,-7.1778,-7.2908,-7.4583,-7.5519,-7.6688,-7.8051,-7.8507,-7.9213,-8.0859,-8.2452,-8.3753,-8.4782,-8.5516,-8.6771,-8.8048,-8.8569,-8.8725,-8.9611,-8.9469,-8.9196,-8.6741,-8.6858,-8.7326,-8.717,-8.717,-8.7404,-6.7959,-6.7764,-6.7569,-6.5465,-6.2348,-6.3166,-6.34,-6.3127,-6.2542,-6.1772,-6.0941,-6.0036,-5.8772,-5.7205,-5.7885,-5.7846,-5.725,-5.8967,-5.9781,-5.984,-6.0613,-6.0956,-6.0995,-6.0995,-6.0995,-6.0956,-6.0379,-5.995,-5.9669,-5.8211,-5.7034,-5.6137,-5.4476,-5.2611,-5.0656,-5.0736,-5.0429,-4.9716,-5.0496,-5.0828,-5.065,-5.0666,-5.0695,-5.0752,-5.092,-5.1476,-5.2414,-5.3114,-5.3846,-5.4723,-5.4827,-5.4461,-5.3624,-5.3649,0.0,0.0,0.0,0.0,0.0,0.0,0.0,0.0,0.0,-5.3717,-5.3682,0.0,-5.4693,0.0,-5.6996,-5.9065,-6.0354,-6.2228,0.0,0.0,-6.5178,-6.7,-6.8053,-6.8726,-6.983,-7.1789,-7.2706,-7.3503,-7.44,-7.5452,-7.6037,-7.5842,-7.4672,-7.401,-7.4466,-7.5791,-7.7116,-7.8129,-7.8987,-7.9961,-8.1013,-8.1675,-8.2878,-8.5166,-8.5905,-8.6683,-8.82,-8.864,-8.8944,-8.9333,-8.9441,-8.9572,-8.982,-9.0326,-9.0599,-8.9975,-8.9508,-8.9196,-8.9157,-8.9196,-8.943,-6.9314,-6.9323,-6.9323,-6.7911,-6.5757,-6.5816,-6.5621,-6.5192,-6.4384,-6.3778,-6.321,-6.1627,-6.0197,-5.9006,-5.9451,-5.9412,-5.9056,-6.0344,-6.0957,-6.1023,-6.1452,-6.1641,-6.1595,-6.1595,-6.1595,-6.1595,-6.1556,-6.1517,-6.1439,-6.0137,-5.9225,-5.8718,-5.7143,-5.5559,-5.409,-5.2902,-5.203,-5.1528,-5.1928,-5.1967,-5.1645,-5.1671,-5.1695,-5.1742,-5.1763,-5.2378,-5.3641,-5.4537,-5.5411,-5.623,-5.6361,-5.614,-5.5645,-5.5343,-5.5118,0.0,0.0,0.0,0.0,0.0,0.0,0.0,0.0,0.0,0.0,0.0,-5.7625,0.0,-6.1252,0.0,-6.4414,-6.6131,-6.7146,-6.7146,-6.9081,-7.0714,-7.1572,-7.2392,-7.3534,-7.525,-7.5892,-7.661,-7.7818,-7.8714,-7.9571,-8.0428,-8.0078,-7.9259,-7.8363,-7.9454,-8.074,-8.1169,-8.1987,-8.2987,-8.4143,-8.5375,-8.6592,-8.7884,-8.8234,-8.8717,-9.0002,-9.0306,-9.0454,-9.0804,-9.0935,-9.1105,-9.147,-9.1912,-9.2341,-9.2666,-9.2444,-9.1847,-9.1144,-9.1275,-9.1717,-6.9614,-6.9631,-6.9631,-6.9545,-6.9401,-6.8681,-6.7774,-6.6839,-6.6,-6.5589,-6.5371,-6.3059,-6.1627,-6.0885,-6.0895,-6.09,-6.0939,-6.1681,-6.2067,-6.2017,-6.2011,-6.2005,-6.1953,-6.1953,-6.1953,-6.1992,-6.2733,-6.3084,-6.3038,-6.2282,-6.1885,-6.1681,-5.9482,-5.8295,-5.81,-5.5939,-5.4577,-5.4147,-5.3958,-5.353,-5.2785,-5.2806,-5.2796,-5.2706,-5.284,-5.3681,-5.5301,-5.6191,-5.707,-5.7913,-5.7958,-5.7924,-5.7816,-5.7348,-5.7348,0.0,-5.8207,0.0,0.0,0.0,0.0,0.0,0.0,0.0,0.0,-5.9503,-6.146,-6.47,-6.6375,-6.7698,-6.8669,-7.023,-7.1245,-7.1402,-7.2873,-7.4187,-7.4928,-7.5716,-7.6858,-7.8613,-7.8776,-7.9427,-8.1064,-8.1999,-8.2779,-8.3493,-8.4077,-8.3726,-8.2272,-8.2779,-8.3624,-8.3741,-8.4559,-8.5676,-8.7128,-8.8608,-8.9582,-8.9785,-8.9839,-9.022,-9.1038,-9.1222,-9.1509,-9.2171,-9.2405,-9.2769,-9.3575,-9.3743,-9.4094,-9.4663,-9.4714,-9.4273,-9.3172,-9.325,-9.3821,-7.1417,-7.1425,-7.1386,-7.0996,-7.0364,-7.0169,-6.9216,-6.7716,-6.6867,-6.6104,-6.5439,-6.4286,-6.3711,-6.3555,-6.3555,-6.3555,-6.3555,-6.3711,-6.3789,-6.3828,-6.3828,-6.3784,-6.3784,-6.3784,-6.3784,-6.3784,-6.3979,-6.4013,-6.3956,-6.3793,-6.335,-6.2656,-6.2123,-6.1568,0.0,0.0,0.0,0.0,-5.5219,-5.4801,-5.4693,-5.4663,-5.4329,-5.3702,-5.4333,0.0,-5.623,-5.7088,-5.7952,-5.8788,-5.8866,0.0,0.0,0.0,0.0,0.0,0.0,0.0,0.0,0.0,0.0,0.0,-6.6439,-6.5029,-6.2371,-6.4131,-6.6281,-6.8241,-6.9369,-7.0604,-7.2182,-7.3236,-7.4134,-7.4798,-7.6386,-7.7504,-7.766,-7.8378,-7.9539,-8.1246,-8.148,-8.2104,-8.3654,-8.421,-8.46,-8.5331,-8.5653,-8.5849,-8.5955,-8.5609,-8.5494,-8.5611,-8.6741,-8.8105,-8.9143,-8.9638,-9.0236,-9.0626,-9.0885,-9.1247,-9.1949,-9.2195,-9.2245,-9.2507,-9.3025,-9.3482,-9.3727,-9.4273,-9.4831,-9.4987,-9.5026,-9.4909,-9.4585,-9.4624,-9.4753,-7.1948,0.0,-7.1924,-7.1689,0.0,-7.0831,-7.0153,-6.928,-6.8383,-6.7578,-6.6745,-6.6366,-6.5702,-6.4921,-6.4921,-6.4687,-6.4297,-6.4297,-6.4531,-6.496,-6.4921,-6.5155,-6.5546,-6.5546,-6.5546,-6.5546,-6.5975,-6.6165,-6.6121,-6.6109,-6.5893,-6.5441,-6.5017,-6.4569,-6.414,-6.3711,-6.1997,-5.8978,-5.854,-5.7935,-5.7159,-5.712,-5.6712,-5.5884,0.0,0.0,0.0,0.0,0.0,0.0,0.0,0.0,0.0,0.0,0.0,-6.2935,-6.4184,-6.5286,-6.6164,-6.6984,-6.8043,-6.9336,-7.0234,-6.9608,-6.6991,-6.8397,-7.0116,-7.1836,-7.3124,-7.4449,-7.5691,-7.661,-7.7296,-7.7726,-7.8891,-7.9821,-8.0328,-8.1063,-8.2031,-8.3202,-8.3497,-8.3986,-8.5234,-8.5429,-8.5781,-8.6483,-8.6639,-8.6795,-8.7185,-8.693,-8.6752,-8.7259,-8.874,-8.9949,-9.0417,-9.0936,-9.1259,-9.1727,-9.1805,-9.2011,-9.244,-9.249,-9.2607,-9.3036,-9.3504,-9.3933,-9.4909,-9.5377,-9.5817,-9.6236,-9.6314,-9.6353,-9.6314,-9.5993,-9.571,-7.1982,-7.1993,-7.1993,-7.1993,-7.1953,-7.1206,-7.0928,-7.0876,0.0,0.0,0.0,-6.8323,-6.7585,-6.6297,-6.6297,-6.5863,-6.5234,-6.5194,-6.559,-6.6253,-6.6253,-6.6605,-6.7264,-6.7264,-6.7264,-6.7303,-6.8005,-6.8357,-6.8312,-6.834,-6.8327,-6.8227,-6.7521,-6.719,-6.7102,-6.6449,-6.5046,-6.3058,-6.2503,-6.1586,-6.0269,-6.023,-5.982,-5.8987,-5.9768,-6.0588,-6.133,-6.2813,-6.3672,-6.3672,-6.3672,-6.4375,-6.5902,-6.5512,-6.5902,-6.7464,-6.841,-6.8935,-6.9101,-7.039,-7.1367,-7.1795,-7.3319,-7.3476,-7.1758,-7.2422,-7.3594,-7.5156,-7.6719,-7.7969,-7.8789,-7.948,-8.0002,-8.0158,-8.0933,-8.1759,-8.2422,-8.3281,-8.3984,-8.4837,-8.4973,-8.534,-8.6168,-8.6324,-8.655,-8.7135,-8.726,-8.7408,-8.7525,-8.7585,-8.7887,-8.894,-9.0178,-9.1164,-9.1476,-9.1944,-9.2451,-9.2412,-9.249,-9.2529,-9.2539,-9.2627,-9.3027,-9.3622,-9.3964,-9.4831,-9.6041,-9.647,-9.687,-9.7565,-9.7682,-9.7682,-9.7643,-9.7128,-9.6644,-7.1975,-7.1978,-7.1978,-7.1978,-7.1975,-7.188,-7.1831,-7.1675,-7.0113,-6.9333,-6.9221,-6.9199,-6.9088,-6.8854,-6.8854,-6.8808,-6.8674,-6.8674,-6.8752,0.0,-6.8839,-6.8917,-6.902,-6.902,-6.902,-6.9059,-6.9176,-6.921,-6.9237,-6.9249,-6.9198,-6.9131,-6.8999,-6.8934,-6.8943,-6.8826,-6.857,-6.8171,-6.603,-6.4783,-6.4591,-6.4599,-6.4223,-6.3477,-6.4219,-6.4726,-6.4882,-6.578,-6.6249,-6.6249,-6.6249,-6.6717,-6.7698,-6.8362,-6.9142,-7.0084,-7.0968,-7.1797,-7.25,-7.2812,-7.3903,-7.6058,-7.7146,-7.697,-7.539,-7.5976,-7.6914,-7.789,-7.8789,-7.9726,-8.0508,-8.0742,-8.109,-8.1823,-8.2718,-8.3304,-8.346,-8.4163,-8.5022,-8.5804,-8.5921,-8.6229,-8.6971,-8.7167,-8.7206,-8.7362,-8.747,-8.767,-8.8329,-8.8447,-8.9106,-9.0384,-9.1008,-9.1515,-9.2071,-9.2373,-9.25,-9.249,-9.2568,-9.2592,-9.2697,-9.3171,-9.3684,-9.3923,-9.5016,-9.5953,-9.6461,-9.7047,-9.7438,-9.7676,-9.7676,-9.7672,-9.7672,-9.7516,-9.7472,-7.1978,-7.1989,-7.1989,-7.1989,-7.1989,-7.1978,-7.2002,-7.1948,-7.1167,-7.0816,-7.0821,-7.0812,-7.0545,-7.0114,-7.0114,-6.9839,-6.9406,-6.9397,-6.9659,-7.0079,-7.0097,-7.0604,-7.148,-7.1519,-7.1753,-7.2182,-7.2182,-7.2182,-7.2177,-7.2182,-7.1897,-7.1402,-7.0949,-7.094,-7.1399,-7.1417,-7.1636,-7.2041,-6.9077,-6.7313,-6.6915,-6.6915,-6.6733,-6.6366,-6.7224,-6.7888,-6.8357,-6.9176,-6.9611,-6.9611,-6.9611,-7.0001,-7.086,-7.129,-7.1889,-7.2765,-7.3632,-7.4297,-7.4687,-7.5547,-7.6558,-7.7765,-7.8618,-7.902,-7.8692,-7.8587,-7.8942,-7.9762,-8.0231,-8.0739,-8.1598,-8.1715,-8.2068,-8.2929,-8.3359,-8.3984,-8.4842,-8.531,-8.5935,-8.6678,-8.6873,-8.7029,-8.7379,-8.7457,-8.7457,-8.7496,-8.7766,-8.8424,-8.9283,-8.9813,-9.0303,-9.1123,-9.163,-9.206,-9.2489,-9.2567,-9.2567,-9.2567,-9.26,-9.2802,-9.3171,-9.3736,-9.4254,-9.5113,-9.6015,-9.656,-9.6953,-9.7379,-9.7652,-9.7691,-9.7687,-9.768,-9.768,-9.768,-9.7672,-7.1981,-7.1992,-7.1992,-7.1992,-7.203,-7.2224,-7.2294,-7.2323,-7.2505,-7.2573,-7.2544,-7.2417,-7.1914,-7.1328,-7.1484,-7.1211,-7.0625,-7.0583,-7.0927,-7.1542,-7.159,-7.2294,-7.349,-7.3598,-7.3945,-7.4525,-7.4525,-7.4525,-7.4525,-7.453,-7.4212,-7.3491,-7.2846,-7.2838,-7.3509,-7.3516,-7.3843,-7.429,-7.1858,-7.0206,-6.9575,-6.9536,-6.9549,-6.9606,-7.0191,-7.0899,-7.1558,-7.2232,-7.2583,-7.2583,-7.2578,-7.3008,-7.3794,-7.3881,-7.4288,-7.5116,-7.5817,-7.6287,-7.6523,-7.7655,-7.8584,-7.8975,-7.9593,-8.0335,-8.1083,-8.0675,-8.0567,-8.1191,-8.127,-8.1582,-8.2168,-8.248,-8.2871,-8.3535,-8.3964,-8.4713,-8.5932,-8.6326,-8.6679,-8.7343,-8.7461,-8.7461,-8.75,-8.75,-8.75,-8.7578,-8.8356,-8.925,-8.9953,-9.089,-9.1554,-9.1711,-9.2179,-9.2531,-9.2609,-9.2609,-9.2609,-9.2609,-9.2794,-9.3176,-9.3727,-9.4137,-9.4883,-9.6133,-9.664,-9.6992,-9.7539,-9.7695,-9.7695,-9.7695,-9.7693,-9.7687,-9.7687,-9.7693,-9.7689,-7.1992,-7.1992,-7.1992,-7.1986,-7.2124,-7.2811,-7.3163,-7.3278,-7.4009,-7.4374,-7.4184,-7.355,-7.3164,-7.3164,-7.3828,-7.4023,-7.3945,-7.4101,-7.4062,-7.4101,-7.4219,-7.4336,-7.4492,-7.4483,-7.4549,-7.4647,-7.4681,-7.4725,-7.4725,-7.4647,-7.4569,-7.4486,-7.4408,-7.4324,-7.4447,-7.4466,-7.451,-7.4608,-7.4275,-7.4067,-7.3938,-7.393,-7.3946,-7.4017,-7.4017,-7.4173,-7.4173,-7.4314,-7.436,-7.436,-7.4345,-7.4725,-7.5511,-7.5657,-7.6053,-7.6844,-7.7034,-7.7399,-7.8085,-7.8305,-7.9137,-8.0576,-8.081,-8.1239,-8.2059,-8.2059,-8.2065,-8.2143,-8.2143,-8.2182,-8.2339,-8.3002,-8.351,-8.3861,-8.4954,-8.5963,-8.621,-8.6815,-8.7333,-8.7372,-8.7418,-8.7422,-8.7422,-8.7461,-8.75,-8.75,-8.8789,-8.9765,-9.0078,-9.1367,-9.2304,-9.2422,-9.2578,-9.2578,-9.2578,-9.2578,-9.2578,-9.2656,-9.3281,-9.3711,-9.4179,-9.5195,-9.6406,-9.6562,-9.7109,-9.7539,-9.7617,-9.7695,-9.7695,-9.7695,-9.7695,-9.7695,-9.7695,-9.7689,-9.7684,-7.1981,-7.1988,-7.1988,-7.2296,-7.2791,-7.3146,-7.3611,-7.4115,-7.4447,-7.457,-7.4644,-7.4765,-7.4531,-7.4101,-7.4453,-7.457,-7.457,-7.457,-7.457,-7.457,-7.4609,-7.4883,-7.5351,-7.5351,-7.5622,-7.6085,-7.6118,-7.6072,-7.5994,-7.5603,-7.5376,-7.5304,-7.4857,-7.4843,-7.5311,-7.5382,-7.5622,-7.6126,-7.6124,-7.6115,-7.5985,-7.5082,-7.4813,-7.5287,-7.5355,-7.5618,-7.6053,-7.6121,-7.6131,-7.6131,-7.6128,-7.6287,-7.6639,-7.6671,-7.6817,-7.7165,-7.762,-7.8284,-7.9083,-7.9611,-8.0263,-8.0966,-8.1474,-8.1942,-8.2254,-8.2293,-8.2293,-8.2293,-8.2293,-8.245,-8.2918,-8.3347,-8.3933,-8.4909,-8.5729,-8.6275,-8.6861,-8.7147,-8.7387,-8.7387,-8.7397,-8.7411,-8.7422,-8.7461,-8.75,-8.7695,-8.8945,-8.9961,-9.0117,-9.1484,-9.2461,-9.2578,-9.2578,-9.2578,-9.2578,-9.2578,-9.2578,-9.2734,-9.332,-9.3945,-9.4726,-9.5586,-9.6601,-9.7109,-9.7461,-9.7656,-9.7656,-9.7695,-9.7695,-9.7695,-9.7684,-9.7676,-9.7676,-9.7672,-9.7672,-7.1997,-7.201,-7.1975,-7.2522,-7.3299,-7.3554,-7.4134,-7.4915,-7.5188,-7.5287,-7.5347,-7.5975,-7.5898,-7.5351,-7.5312,-7.5312,-7.5312,-7.5312,-7.5312,-7.5312,-7.5312,-7.5664,-7.6211,-7.625,-7.6601,-7.7109,-7.7106,-7.7103,-7.7064,-7.6595,-7.6247,-7.6132,-7.5616,-7.5603,-7.6193,-7.6248,-7.6562,-7.7109,-7.7223,-7.722,-7.7026,-7.5975,-7.5623,-7.6204,-7.6274,-7.6544,-7.7178,-7.7226,-7.7184,-7.7187,-7.7187,-7.7181,-7.7156,-7.7146,-7.7268,-7.7517,-7.8284,-7.9131,-7.999,-8.0654,-8.1122,-8.1356,-8.1981,-8.2293,-8.2293,-8.2293,-8.2293,-8.2332,-8.2489,-8.2918,-8.3386,-8.3738,-8.4519,-8.5885,-8.6275,-8.6744,-8.729,-8.7407,-8.7407,-8.7407,-8.7414,-8.7387,-8.7422,-8.7461,-8.7461,-8.7617,-8.8906,-9.0,-9.0234,-9.1445,-9.2578,-9.2578,-9.2578,-9.2578,-9.2578,-9.2578,-9.2578,-9.289,-9.3476,-9.4531,-9.5195,-9.6054,-9.6875,-9.7422,-9.7617,-9.7695,-9.7695,-9.7695,-9.7695,-9.7695,-9.768,-9.7689,-9.7689,-9.7701,-9.7701,-7.1987,-7.1987,-7.1987,-7.2578,-7.3393,-7.4212,-7.4993,-7.5813,-7.6555,-7.6945,-7.6878,-7.6974,-7.7026,-7.6992,-7.6914,-7.707,-7.7031,-7.6953,-7.6914,-7.6914,-7.6953,-7.707,-7.7148,-7.7148,-7.7148,-7.7187,-7.7187,-7.7187,-7.7187,-7.7109,-7.7148,-7.7109,-7.6953,-7.7031,-7.707,-7.7031,-7.7148,-7.7187,-7.7226,-7.7187,-7.7187,-7.7094,-7.6977,-7.707,-7.7109,-7.7108,-7.72,-7.7224,-7.7156,-7.7137,-7.71,-7.7097,-7.7094,-7.7117,-7.7531,-7.835,-7.917,-8.0029,-8.081,-8.1044,-8.1356,-8.2059,-8.2215,-8.2293,-8.2293,-8.2293,-8.2293,-8.2293,-8.2957,-8.3426,-8.366,-8.4323,-8.5104,-8.608,-8.6861,-8.729,-8.7368,-8.7407,-8.7407,-8.7407,-8.7407,-8.742,-8.7408,-8.7411,-8.7414,-8.7733,-8.8906,-8.9961,-9.0195,-9.1484,-9.2344,-9.2578,-9.2578,-9.2578,-9.2578,-9.2578,-9.2578,-9.289,-9.3789,-9.5078,-9.5703,-9.6367,-9.7148,-9.7656,-9.7695,-9.7701,-9.7689,-9.7695,-9.7695,-9.7672,-9.7676,-9.7701,-9.7682,-9.7675,-9.7675,-7.1987,-7.2065,-7.2612,-7.3315,-7.4134,-7.4993,-7.5852,-7.6633,-7.6945,-7.7101,-7.7101,-7.7073,-7.7122,-7.713,-7.7142,-7.7186,-7.7226,-7.7226,-7.7226,-7.7226,-7.7226,-7.7226,-7.7226,-7.7226,-7.7226,-7.7226,-7.7226,-7.7226,-7.7226,-7.7226,-7.7226,-7.7226,-7.7226,-7.7226,-7.7226,-7.7226,-7.7225,-7.7211,-7.7208,-7.7172,-7.7183,-7.7133,-7.713,-7.713,-7.7139,-7.7139,-7.713,-7.7151,-7.7107,-7.7078,-7.7078,-7.7078,-7.7156,-7.7614,-7.8585,-7.9912,-8.0381,-8.0927,-8.1669,-8.1825,-8.1942,-8.2254,-8.2293,-8.2293,-8.2293,-8.2293,-8.2293,-8.245,-8.3035,-8.366,-8.4362,-8.5104,-8.5963,-8.6783,-8.7212,-8.7407,-8.7407,-8.7407,-8.7407,-8.7407,-8.7407,-8.7414,-8.742,-8.7387,-8.7387,-8.7514,-8.8427,-8.933,-9.0033,-9.1049,-9.1986,-9.2455,-9.2611,-9.2611,-9.2578,-9.2578,-9.2695,-9.3086,-9.3828,-9.4726,-9.5469,-9.6679,-9.7539,-9.7656,-9.7695,-9.7689,-9.7689,-9.7682,-9.7695,-9.7689,-9.7701,-9.7695,-9.7675,-9.7675,-9.7675,-7.1987,-7.2143,-7.2924,-7.3744,-7.4564,-7.5423,-7.6281,-7.7062,-7.7101,-7.7101,-7.7101,-7.7101,-7.7101,-7.7107,-7.7083,-7.7133,-7.7144,-7.7187,-7.7226,-7.7226,-7.7226,-7.7226,-7.7226,-7.7226,-7.7226,-7.7226,-7.7226,-7.7305,-7.7578,-7.7614,-7.773,-7.8008,-7.8005,-7.8007,-7.8007,-7.8007,-7.7999,-7.8005,-7.7999,-7.801,-7.7946,-7.795,-7.7942,-7.7966,-7.7942,-7.7638,-7.713,-7.7073,-7.7101,-7.714,-7.7335,-7.7648,-7.796,-7.8741,-7.9756,-8.0849,-8.1278,-8.1669,-8.2176,-8.2293,-8.2293,-8.2293,-8.2293,-8.2293,-8.2293,-8.2293,-8.2293,-8.2489,-8.3347,-8.4206,-8.487,-8.5807,-8.6744,-8.729,-8.7407,-8.7407,-8.7407,-8.7407,-8.7407,-8.7407,-8.7407,-8.7407,-8.7407,-8.7407,-8.7407,-8.7407,-8.8167,-8.8998,-8.9896,-9.0755,-9.1614,-9.2395,-9.2595,-9.2595,-9.2595,-9.2585,-9.2574,-9.2931,-9.3985,-9.4777,-9.5485,-9.6749,-9.757,-9.7672,-9.7701,-9.7695,-9.7695,-9.7689,-9.7682,-9.7675,-9.7682,-9.7682,-9.7675,-9.7675,-9.7675,-7.2026,-7.2182,-7.2963,-7.3861,-7.472,-7.554,-7.636,-7.7023,-7.7101,-7.7101,-7.7101,-7.7101,-7.7101,-7.7101,-7.7107,-7.7107,-7.7117,-7.7181,-7.7187,-7.7187,-7.7187,-7.7187,-7.7187,-7.7187,-7.7265,-7.7344,-7.7265,-7.7695,-7.8437,-7.8458,-7.8791,-7.9488,-7.9473,-7.9368,-7.9609,-7.9446,-7.9547,-7.9488,-7.9444,-7.9522,-7.9678,-7.9488,-7.9444,-7.9522,-7.9522,-7.8786,-7.7296,-7.7257,-7.7335,-7.7375,-7.7999,-7.8819,-7.9561,-8.0341,-8.0966,-8.1161,-8.1825,-8.2215,-8.2293,-8.2293,-8.2293,-8.2293,-8.2293,-8.2293,-8.2293,-8.2293,-8.2293,-8.2528,-8.3699,-8.4792,-8.5026,-8.6269,-8.729,-8.7407,-8.7407,-8.7407,-8.7407,-8.7407,-8.7407,-8.7407,-8.7407,-8.7407,-8.7407,-8.7407,-8.7407,-8.7564,-8.8032,-8.8897,-8.9795,-9.0615,-9.1552,-9.2333,-9.2567,-9.2574,-9.2567,-9.26,-9.26,-9.2795,-9.409,-9.5151,-9.5541,-9.649,-9.7433,-9.7689,-9.7689,-9.7682,-9.7682,-9.7682,-9.7682,-9.7675,-9.7675,-9.7675,-9.7675,-9.7675,-9.7675,-7.2339,-7.2963,-7.3783,-7.4603,-7.5462,-7.632,-7.6867,-7.7101,-7.7101,-7.7101,-7.7101,-7.7101,-7.7101,-7.7101,-7.7101,-7.7101,-7.7101,-7.7122,-7.7133,-7.7142,-7.7144,-7.7144,-7.7183,-7.7144,-7.7456,-7.7923,-7.804,-7.847,-7.9173,-7.932,-7.946,-7.9645,-7.9762,-7.9733,-7.9782,-7.9733,-7.9723,-7.9717,-7.9717,-7.9717,-7.9717,-7.9717,-7.9717,-7.9717,-7.9717,-7.9405,-7.8936,-7.8897,-7.8897,-7.8858,-7.9131,-7.9678,-8.0459,-8.0849,-8.1278,-8.1825,-8.2137,-8.2293,-8.2293,-8.2293,-8.2293,-8.2293,-8.2293,-8.2293,-8.2293,-8.2293,-8.2293,-8.245,-8.3816,-8.4831,-8.5104,-8.6378,-8.7315,-8.7401,-8.7407,-8.7401,-8.7401,-8.7401,-8.7407,-8.7407,-8.7407,-8.7407,-8.7407,-8.7407,-8.7401,-8.7401,-8.7674,-8.8305,-8.9672,-9.0257,-9.0999,-9.217,-9.2326,-9.2553,-9.2553,-9.2553,-9.2553,-9.2827,-9.392,-9.4981,-9.5488,-9.623,-9.7128,-9.7675,-9.7675,-9.7675,-9.7675,-9.7675,-9.7675,-9.7675,-9.7675,-9.7675,-9.7675,-9.7675,-9.7675,-7.2534,-7.3354,-7.4173,-7.4993,-7.5852,-7.6711,-7.7101,-7.7101,-7.7101,-7.7101,-7.7101,-7.7101,-7.7101,-7.7101,-7.7101,-7.7101,-7.7101,-7.7101,-7.7073,-7.7087,-7.7087,-7.7243,-7.7595,-7.7946,-7.8298,-7.8766,-7.8883,-7.9352,-8.0133,-8.0211,-8.0358,-8.0615,-8.0654,-8.0693,-8.0693,-8.0654,-8.0654,-8.0654,-8.0693,-8.0693,-8.0693,-8.0654,-8.0693,-8.0693,-8.0647,-8.0641,-8.0641,-8.0634,-8.0328,-7.9906,-7.9945,-8.0563,-8.1336,-8.1453,-8.1687,-8.2117,-8.228,-8.2241,-8.2254,-8.2254,-8.2248,-8.228,-8.2273,-8.2273,-8.2273,-8.2273,-8.2351,-8.2897,-8.399,-8.4927,-8.5395,-8.648,-8.7291,-8.7347,-8.7347,-8.7386,-8.7347,-8.7347,-8.7347,-8.7338,-8.7347,-8.7386,-8.7386,-8.7386,-8.7347,-8.7347,-8.7386,-8.801,-8.9376,-8.9962,-9.0976,-9.1874,-9.2381,-9.2529,-9.2498,-9.2498,-9.2498,-9.2975,-9.3599,-9.4466,-9.5137,-9.6113,-9.705,-9.7518,-9.7675,-9.7675,-9.7675,-9.7675,-9.7675,-9.7675,-9.7675,-9.7675,-9.7675,-9.7675,-9.7675,-7.2528,-7.3426,-7.4207,-7.5065,-7.5963,-7.6744,-7.7095,-7.7095,-7.7095,-7.7095,-7.7095,-7.7095,-7.7095,-7.7095,-7.7095,-7.7056,-7.7095,-7.7095,-7.7056,-7.7095,-7.7257,-7.7648,-7.8473,-7.9098,-7.9488,-7.9723,-7.9756,-8.0263,-8.105,-8.1089,-8.1474,-8.202,-8.2059,-8.2254,-8.2059,-8.2215,-8.2098,-8.202,-8.2137,-8.2098,-8.2137,-8.217,-8.2131,-8.2131,-8.2039,-8.1992,-8.1945,-8.1898,-8.136,-8.0211,-8.0673,-8.1321,-8.2006,-8.2192,-8.2123,-8.2201,-8.2171,-8.2187,-8.2209,-8.2215,-8.2195,-8.2192,-8.2192,-8.2192,-8.2201,-8.224,-8.2552,-8.3293,-8.423,-8.5127,-8.5868,-8.6756,-8.7263,-8.7292,-8.7302,-8.7312,-8.7302,-8.7302,-8.7312,-8.7312,-8.7302,-8.7302,-8.7312,-8.7312,-8.7312,-8.7302,-8.7351,-8.817,-8.934,-9.0121,-9.0823,-9.1603,-9.2432,-9.251,-9.252,-9.252,-9.252,-9.2676,-9.3231,-9.3864,-9.4817,-9.5832,-9.6894,-9.7362,-9.7636,-9.7636,-9.7675,-9.7675,-9.7675,-9.7675,-9.7675,-9.7675,-9.7636,-9.7597,-9.7362,-7.2807,-7.4172,-7.4406,-7.5343,-7.663,-7.6942,-7.702,-7.702,-7.702,-7.7028,-7.702,-7.702,-7.7028,-7.702,-7.702,-7.702,-7.7028,-7.702,-7.702,-7.7137,-7.7723,-7.8487,-7.9203,-7.96,-8.0068,-8.0576,-8.0686,-8.1122,-8.1903,-8.1858,-8.2059,-8.2293,-8.2287,-8.2293,-8.2293,-8.2293,-8.2293,-8.2293,-8.2293,-8.2293,-8.2287,-8.2241,-8.2234,-8.2195,-8.221,-8.2201,-8.2201,-8.2192,-8.2075,-8.1624,-8.1702,-8.1928,-8.2153,-8.2192,-8.2192,-8.2192,-8.2201,-8.2171,-8.2179,-8.2195,-8.2179,-8.219,-8.2179,-8.219,-8.2192,-8.2192,-8.2621,-8.344,-8.4298,-8.5156,-8.5976,-8.6774,-8.7231,-8.7247,-8.727,-8.7292,-8.7292,-8.7302,-8.7302,-8.7302,-8.7302,-8.7292,-8.7292,-8.7292,-8.7292,-8.7292,-8.7409,-8.7916,-8.932,-8.9983,-9.049,-9.171,-9.25,-9.249,-9.25,-9.25,-9.25,-9.25,-9.2822,-9.3135,-9.4216,-9.5395,-9.6535,-9.7479,-9.7394,-9.7386,-9.7589,-9.7675,-9.7675,-9.7667,-9.7675,-9.7667,-9.744,-9.7284,-9.6816,-7.2908,-7.4507,-7.4507,-7.5482,-7.6926,-7.7004,-7.7004,-7.7004,-7.7004,-7.7004,-7.7004,-7.7004,-7.7004,-7.7004,-7.7004,-7.7004,-7.7004,-7.7004,-7.7004,-7.7238,-7.8291,-7.9322,-8.008,-8.0509,-8.1024,-8.1414,-8.1492,-8.1804,-8.2148,-8.2273,-8.2234,-8.2265,-8.2273,-8.2241,-8.2254,-8.2273,-8.2273,-8.2265,-8.2273,-8.2273,-8.2226,-8.2218,-8.221,-8.2171,-8.2192,-8.2133,-8.2162,-8.2162,-8.2162,-8.2133,-8.2133,-8.2172,-8.2162,-8.2162,-8.2162,-8.2162,-8.2172,-8.2172,-8.2162,-8.2153,-8.2133,-8.2167,-8.2182,-8.2167,-8.2229,-8.2474,-8.3059,-8.3944,-8.4813,-8.5632,-8.6362,-8.6974,-8.7196,-8.7222,-8.7247,-8.727,-8.727,-8.7259,-8.727,-8.727,-8.727,-8.727,-8.727,-8.727,-8.727,-8.7259,-8.7259,-8.8233,-8.9442,-8.9766,-9.0429,-9.1754,-9.2456,-9.2456,-9.2456,-9.2456,-9.2456,-9.2456,-9.2507,-9.2791,-9.3632,-9.4831,-9.5651,-9.6518,-9.687,-9.7143,-9.7143,-9.7338,-9.7641,-9.7641,-9.765,-9.7386,-9.7081,-9.6621,-9.6191,-7.286,-7.4342,-7.442,-7.5395,-7.6722,-7.6956,-7.6995,-7.6995,-7.6995,-7.6995,-7.6995,-7.6995,-7.6995,-7.6995,-7.6985,-7.6995,-7.6995,-7.6985,-7.7229,-7.7775,-7.8818,-7.9998,-8.1012,-8.1616,-8.1928,-8.2045,-8.2153,-8.2153,-8.2201,-8.2201,-8.2192,-8.2201,-8.2201,-8.2218,-8.2195,-8.221,-8.2192,-8.2192,-8.2201,-8.2201,-8.2201,-8.2192,-8.2192,-8.2182,-8.2123,-8.2101,-8.2116,-8.2116,-8.2089,-8.2112,-8.2112,-8.2101,-8.2116,-8.2104,-8.2104,-8.2116,-8.2116,-8.2116,-8.2116,-8.2116,-8.2077,-8.2104,-8.2104,-8.2182,-8.2389,-8.2935,-8.3675,-8.4767,-8.5533,-8.6209,-8.691,-8.717,-8.7209,-8.7209,-8.717,-8.7209,-8.7209,-8.7209,-8.7209,-8.7209,-8.7209,-8.7209,-8.7209,-8.7209,-8.7209,-8.7234,-8.7351,-8.8131,-8.9183,-8.9729,-9.0704,-9.2054,-9.2405,-9.2391,-9.243,-9.2391,-9.2405,-9.2405,-9.2432,-9.2639,-9.317,-9.4089,-9.4636,-9.527,-9.5905,-9.6217,-9.6217,-9.6558,-9.7026,-9.7036,-9.6665,-9.6548,-9.6392,-9.5832,-9.5371,-7.2462,-7.3436,-7.4138,-7.5034,-7.6009,-7.671,-7.6983,-7.6983,-7.6983,-7.6983,-7.6983,-7.6983,-7.6983,-7.6983,-7.6983,-7.6983,-7.6983,-7.7061,-7.7646,-7.8971,-7.9244,-8.0452,-8.1516,-8.2094,-8.2153,-8.2192,-8.2192,-8.2192,-8.2192,-8.2182,-8.2192,-8.2192,-8.2182,-8.2201,-8.2201,-8.2192,-8.2172,-8.2179,-8.2172,-8.2192,-8.2182,-8.2133,-8.2123,-8.2123,-8.2101,-8.2077,-8.2104,-8.2104,-8.2116,-8.2077,-8.2077,-8.2077,-8.2104,-8.2104,-8.2104,-8.2104,-8.2104,-8.2104,-8.2104,-8.2104,-8.2104,-8.2104,-8.2104,-8.2377,-8.3078,-8.3273,-8.4169,-8.5299,-8.5923,-8.6416,-8.7039,-8.7209,-8.7209,-8.7209,-8.7209,-8.7209,-8.7209,-8.7209,-8.7209,-8.7209,-8.7209,-8.7209,-8.7209,-8.7209,-8.7209,-8.7209,-8.7559,-8.8066,-8.8884,-8.9703,-9.0833,-9.2119,-9.2391,-9.243,-9.243,-9.243,-9.243,-9.243,-9.2405,-9.2458,-9.2938,-9.3353,-9.3911,-9.4507,-9.5153,-9.5299,-9.5288,-9.5444,-9.5873,-9.5778,-9.5749,-9.5642,-9.5456,-9.4927,-9.4512,-7.2284,-7.3142,-7.3609,-7.4544,-7.5674,-7.6181,-7.661,-7.696,-7.6999,-7.6999,-7.6999,-7.6999,-7.6999,-7.6999,-7.6999,-7.6999,-7.6999,-7.7038,-7.7662,-7.8753,-7.9298,-8.0234,-8.1325,-8.1945,-8.2151,-8.2151,-8.2151,-8.2151,-8.2151,-8.2151,-8.2151,-8.2151,-8.2151,-8.2151,-8.2151,-8.2151,-8.214,-8.2155,-8.214,-8.2151,-8.2151,-8.2101,-8.2089,-8.2089,-8.2077,-8.2104,-8.2104,-8.2104,-8.2104,-8.2104,-8.2104,-8.2104,-8.2104,-8.2104,-8.2104,-8.2104,-8.2104,-8.2104,-8.2104,-8.2104,-8.2104,-8.2104,-8.2078,-8.2571,-8.3233,-8.3662,-8.4504,-8.5595,-8.6257,-8.6724,-8.7113,-8.7181,-8.7181,-8.7181,-8.7195,-8.7209,-8.7209,-8.7209,-8.7209,-8.7209,-8.7209,-8.7209,-8.7209,-8.7209,-8.7209,-8.7209,-8.7248,-8.7793,-8.9079,-8.9936,-9.0833,-9.1768,-9.2235,-9.243,-9.243,-9.243,-9.243,-9.243,-9.2391,-9.2391,-9.26,-9.2886,-9.3185,-9.3704,-9.4172,-9.4355,-9.4433,-9.4601,-9.4835,-9.5108,-9.512,-9.4841,-9.4549,-9.4263,-9.3802,-7.2128,-7.2908,-7.3025,-7.396,-7.5207,-7.5596,-7.6142,-7.6727,-7.696,-7.6999,-7.6999,-7.6999,-7.6999,-7.6999,-7.6999,-7.6999,-7.6999,-7.7038,-7.7584,-7.8402,-7.9181,-8.0026,-8.0922,-8.1675,-8.2091,-8.2091,-8.2104,-8.2104,-8.2104,-8.2091,-8.2091,-8.2091,-8.2052,-8.2065,-8.2065,-8.2091,-8.2091,-8.2078,-8.2078,-8.2091,-8.2091,-8.2091,-8.2091,-8.2078,-8.2078,-8.2078,-8.2078,-8.2078,-8.2091,-8.2091,-8.2091,-8.2091,-8.2091,-8.2104,-8.2104,-8.2091,-8.2091,-8.2091,-8.2065,-8.2065,-8.2065,-8.2065,-8.2036,-8.2552,-8.3369,-8.4108,-8.4965,-8.586,-8.6599,-8.7028,-8.7089,-8.7121,-8.7176,-8.7191,-8.7167,-8.7195,-8.7195,-8.7195,-8.7195,-8.7209,-8.7209,-8.7209,-8.7209,-8.7209,-8.7209,-8.7209,-8.7248,-8.7637,-8.8923,-8.9975,-9.0755,-9.1573,-9.2041,-9.2391,-9.243,-9.243,-9.243,-9.243,-9.243,-9.2391,-9.2391,-9.26,-9.2808,-9.2756,-9.3068,-9.3341,-9.3574,-9.3744,-9.4056,-9.4471,-9.4355,-9.3933,-9.369,-9.3591,-9.3178,-7.1271,-7.205,-7.2791,-7.3297,-7.3765,-7.5051,-7.5713,-7.6025,-7.6688,-7.6999,-7.6999,-7.6999,-7.6999,-7.6999,-7.6999,-7.6999,-7.6999,-7.7026,-7.7416,-7.8234,-7.9052,-7.9936,-8.0663,-8.1597,-8.2012,-8.2022,-8.1998,-8.2012,-8.2012,-8.2012,-8.2051,-8.2022,-8.2036,-8.2026,-8.2039,-8.2012,-8.2022,-8.2061,-8.2022,-8.2022,-8.2022,-8.2022,-8.2022,-8.2022,-8.2022,-8.2022,-8.2022,-8.2007,-8.2007,-8.2007,-8.2007,-8.2007,-8.2022,-8.1998,-8.2012,-8.2012,-8.2036,-8.2051,-8.2039,-8.2026,-8.2026,-8.2013,-8.1983,-8.2754,-8.3765,-8.4427,-8.5205,-8.6333,-8.6878,-8.7089,-8.7089,-8.7089,-8.7105,-8.7105,-8.7121,-8.7137,-8.7191,-8.7206,-8.7167,-8.7195,-8.7195,-8.7209,-8.7209,-8.7209,-8.7195,-8.7195,-8.7195,-8.7624,-8.8545,-8.9533,-9.0312,-9.113,-9.1924,-9.2197,-9.243,-9.243,-9.243,-9.243,-9.2391,-9.2377,-9.2377,-9.2391,-9.2469,-9.2494,-9.2494,-9.2703,-9.2859,-9.3015,-9.3068,-9.3393,-9.3197,-9.2969,-9.2988,-9.3045,-9.2944,-7.0804,-7.1232,-7.2089,-7.2713,-7.3219,-7.396,-7.4895,-7.5702,-7.6142,-7.661,-7.6921,-7.6999,-7.6999,-7.6999,-7.6999,-7.6987,-7.6975,-7.6949,-7.7222,-7.7767,-7.8819,-7.9584,-8.0309,-8.136,-8.189,-8.1991,-8.1952,-8.1968,-8.2022,-8.1998,-8.2007,-8.1991,-8.1991,-8.2007,-8.1998,-8.2007,-8.1998,-8.1981,-8.1998,-8.1991,-8.1991,-8.1991,-8.1991,-8.1991,-8.1991,-8.1991,-8.1991,-8.1991,-8.1991,-8.1991,-8.1991,-8.1991,-8.1991,-8.1952,-8.1952,-8.2007,-8.1991,-8.2007,-8.1998,-8.2012,-8.1998,-8.1991,-8.1981,-8.2548,-8.3541,-8.428,-8.5231,-8.6475,-8.7019,-8.7058,-8.7058,-8.7037,-8.7055,-8.7055,-8.7072,-8.7089,-8.7121,-8.716,-8.7137,-8.7167,-8.7181,-8.7195,-8.7209,-8.7209,-8.7195,-8.7195,-8.7181,-8.7634,-8.8296,-8.9192,-9.0049,-9.1023,-9.188,-9.2168,-9.2362,-9.2362,-9.2362,-9.2377,-9.2377,-9.2362,-9.2377,-9.2377,-9.2362,-9.2362,-9.2362,-9.2391,-9.2469,-9.2703,-9.2536,-9.2432,-9.2585,-9.2695,-9.2607,-9.2507,-9.2514,-7.0297,-7.0648,-7.131,-7.205,-7.2791,-7.3064,-7.3882,-7.5051,-7.5558,-7.6103,-7.6688,-7.6921,-7.6987,-7.6987,-7.6975,-7.6962,-7.6897,-7.6908,-7.6947,-7.7297,-7.8621,-7.9423,-7.9875,-8.0964,-8.1975,-8.1943,-8.1926,-8.1943,-8.1975,-8.1975,-8.1975,-8.1959,-8.1981,-8.1981,-8.1998,-8.1959,-8.1986,-8.1986,-8.2003,-8.1998,-8.1998,-8.1998,-8.1998,-8.1998,-8.1959,-8.1959,-8.1998,-8.1959,-8.1998,-8.1998,-8.1959,-8.1959,-8.1959,-8.1926,-8.1926,-8.1959,-8.1959,-8.1959,-8.1959,-8.1959,-8.1981,-8.1968,-8.1911,-8.2398,-8.3232,-8.4242,-8.5272,-8.6438,-8.6943,-8.7001,-8.7001,-8.7021,-8.7001,-8.7001,-8.7037,-8.7072,-8.7072,-8.7072,-8.7089,-8.7121,-8.7167,-8.7167,-8.7167,-8.7167,-8.7152,-8.7152,-8.7137,-8.7254,-8.7939,-8.9107,-9.0041,-9.1092,-9.1832,-9.2137,-9.2293,-9.2308,-9.2293,-9.2293,-9.2293,-9.2293,-9.2293,-9.2347,-9.2308,-9.2308,-9.2377,-9.243,-9.243,-9.2391,-9.2419,-9.2444,-9.2479,-9.251,-9.2498,-9.2514,-9.2522,-6.9206,-7.0609,-7.0726,-7.1193,-7.2011,-7.2713,-7.3181,-7.3648,-7.4973,-7.5713,-7.6025,-7.661,-7.6897,-7.691,-7.6922,-7.6908,-7.6894,-7.6894,-7.6879,-7.7112,-7.8552,-7.9392,-7.9648,-8.1109,-8.183,-8.1929,-8.1911,-8.1929,-8.1926,-8.1908,-8.1929,-8.1911,-8.1929,-8.1911,-8.1929,-8.1929,-8.1911,-8.1892,-8.1911,-8.1911,-8.1911,-8.1929,-8.1911,-8.1911,-8.1911,-8.1929,-8.1929,-8.1929,-8.1929,-8.1929,-8.1911,-8.1911,-8.1911,-8.1911,-8.1911,-8.1911,-8.1911,-8.1911,-8.1929,-8.1929,-8.1929,-8.1931,-8.1892,-8.2359,-8.3174,-8.4301,-8.5311,-8.5738,-8.6477,-8.6943,-8.6982,-8.7001,-8.7001,-8.7001,-8.7021,-8.704,-8.7019,-8.7037,-8.7037,-8.7055,-8.7089,-8.7105,-8.7105,-8.7105,-8.7105,-8.7105,-8.7128,-8.7245,-8.7673,-8.8823,-9.0262,-9.1391,-9.1858,-9.2165,-9.226,-9.2276,-9.226,-9.226,-9.226,-9.226,-9.226,-9.2276,-9.2293,-9.2293,-9.2362,-9.243,-9.243,-9.2405,-9.2432,-9.2456,-9.2479,-9.2481,-9.2514,-9.2522,-9.2482,-6.7998,-6.9206,-7.018,-7.0804,-7.1193,-7.2011,-7.2674,-7.3181,-7.3882,-7.4778,-7.5635,-7.604,-7.6443,-7.6791,-7.6879,-7.6864,-7.6848,-7.6793,-7.6777,-7.7143,-7.8426,-7.9342,-7.9753,-8.0996,-8.1911,-8.1892,-8.1892,-8.1892,-8.1911,-8.1911,-8.1892,-8.1892,-8.1892,-8.1892,-8.1892,-8.1892,-8.1892,-8.1892,-8.1892,-8.1892,-8.1892,-8.1892,-8.1892,-8.1892,-8.1892,-8.1892,-8.1892,-8.1892,-8.1892,-8.1892,-8.1892,-8.1892,-8.1892,-8.1892,-8.1892,-8.1892,-8.1892,-8.1892,-8.1892,-8.1892,-8.1892,-8.1892,-8.197,-8.2281,-8.3058,-8.3757,-8.4806,-8.5661,-8.601,-8.6438,-8.6865,-8.6982,-8.702,-8.702,-8.702,-8.7001,-8.7021,-8.7021,-8.7021,-8.704,-8.7058,-8.7019,-8.7037,-8.7072,-8.7072,-8.7055,-8.7076,-8.7193,-8.7719,-8.8633,-9.0208,-9.186,-9.2112,-9.219,-9.2226,-9.2204,-9.2243,-9.2226,-9.2226,-9.2226,-9.2208,-9.2265,-9.226,-9.2293,-9.2347,-9.2377,-9.2377,-9.2391,-9.2419,-9.2444,-9.2479,-9.2481,-9.2507,-9.2522,-9.2482,-6.7063,-6.7803,-6.9323,-7.018,-7.0648,-7.1232,-7.1973,-7.2713,-7.3064,-7.3843,-7.4872,-7.5418,-7.6091,-7.6723,-7.6793,-7.6777,-7.6777,-7.6743,-7.6687,-7.727,-7.828,-7.9173,-7.9834,-8.096,-8.1892,-8.1892,-8.1892,-8.1892,-8.1892,-8.1892,-8.1892,-8.1892,-8.1892,-8.1892,-8.1892,-8.1892,-8.1873,-8.1873,-8.1854,-8.1854,-8.1854,-8.1854,-8.1854,-8.1854,-8.1854,-8.1854,-8.1873,-8.1873,-8.1873,-8.1892,-8.1892,-8.1892,-8.1892,-8.1892,-8.1892,-8.1892,-8.1892,-8.1892,-8.1892,-8.1892,-8.1892,-8.1892,-8.1931,-8.2126,-8.2592,-8.2941,-8.3408,-8.4767,-8.5583,-8.6049,-8.6515,-8.6787,-8.702,-8.702,-8.702,-8.702,-8.702,-8.7001,-8.7001,-8.7001,-8.7021,-8.7001,-8.7021,-8.7058,-8.7058,-8.7001,-8.7078,-8.7176,-8.7934,-8.8807,-9.0149,-9.186,-9.2132,-9.2171,-9.2152,-9.219,-9.219,-9.219,-9.219,-9.219,-9.221,-9.219,-9.2243,-9.2276,-9.2347,-9.2362,-9.243,-9.2391,-9.2405,-9.2444,-9.244,-9.25,-9.249,-9.2507,-9.2482,-6.6751,-6.6868,-6.7803,-6.9089,-7.0492,-7.0648,-7.1154,-7.1934,-7.2713,-7.3157,-7.3678,-7.4817,-7.5992,-7.656,-7.6721,-7.6704,-7.6687,-7.6687,-7.6687,-7.727,-7.8357,-7.9134,-7.9872,-8.0844,-8.1892,-8.1892,-8.1892,-8.1892,-8.1892,-8.1892,-8.1892,-8.1892,-8.1873,-8.1873,-8.1873,-8.1854,-8.1834,-8.1833,-8.1794,-8.1755,-8.1734,-8.1713,-8.1713,-8.1713,-8.1713,-8.1734,-8.1814,-8.1814,-8.1834,-8.1873,-8.1873,-8.1873,-8.1873,-8.1873,-8.1873,-8.1873,-8.1892,-8.1892,-8.1892,-8.1892,-8.1892,-8.1892,-8.1931,-8.197,-8.2203,-8.2747,-8.3213,-8.3641,-8.4767,-8.5583,-8.6049,-8.6438,-8.6943,-8.702,-8.702,-8.702,-8.702,-8.702,-8.6982,-8.702,-8.702,-8.702,-8.702,-8.7021,-8.704,-8.7021,-8.7137,-8.7234,-8.8439,-8.939,-9.04,-9.1548,-9.1975,-9.2131,-9.2131,-9.2131,-9.2132,-9.2132,-9.2132,-9.2112,-9.2131,-9.2152,-9.2243,-9.226,-9.2331,-9.2362,-9.243,-9.2391,-9.2405,-9.2393,-9.2429,-9.2451,-9.2481,-9.2507,-9.2522,-6.6712,-6.6751,-6.7063,-6.792,-6.9089,-7.0141,-7.0754,-7.1093,-7.1899,-7.2614,-7.3144,-7.4709,-7.5688,-7.6061,-7.6549,-7.6687,-7.6687,-7.6687,-7.6687,-7.727,-7.8318,-7.9134,-7.9911,-8.0805,-8.1892,-8.1892,-8.1892,-8.1873,-8.1854,-8.1835,-8.1796,-8.1775,-8.1794,-8.1853,-8.1853,-8.1794,-8.1751,-8.1751,-8.1751,-8.1713,-8.1713,-8.1691,-8.1691,-8.1691,-8.1691,-8.1713,-8.1734,-8.1734,-8.1734,-8.1755,-8.1755,-8.1775,-8.1814,-8.1834,-8.1854,-8.1854,-8.1873,-8.1892,-8.1892,-8.1892,-8.1892,-8.1892,-8.1892,-8.1892,-8.1892,-8.2242,-8.2669,-8.3291,-8.4185,-8.5078,-8.5738,-8.6438,-8.702,-8.702,-8.702,-8.702,-8.702,-8.702,-8.702,-8.702,-8.702,-8.702,-8.702,-8.702,-8.7001,-8.702,-8.7137,-8.7525,-8.8691,-8.9701,-9.0556,-9.1449,-9.1954,-9.211,-9.211,-9.211,-9.211,-9.211,-9.211,-9.211,-9.211,-9.2152,-9.2226,-9.226,-9.2331,-9.2362,-9.243,-9.243,-9.2405,-9.2419,-9.2405,-9.244,-9.2471,-9.2507,-9.2514,-6.6712,-6.6712,-6.6702,-6.7208,-6.8154,-6.9585,-7.0314,-7.0641,-7.1407,-7.2238,-7.3114,-7.4483,-7.5283,-7.5638,-7.6298,-7.6687,-7.6687,-7.6687,-7.6687,-7.7347,-7.8318,-7.9134,-7.9872,-8.0805,-8.1892,-8.1873,-8.1873,-8.1834,-8.1794,-8.1757,-8.1716,-8.1713,-8.1746,-8.1746,-8.1769,-8.1708,-8.1685,-8.1685,-8.1669,-8.1646,-8.1646,-8.1624,-8.1624,-8.1624,-8.1624,-8.1646,-8.1669,-8.1669,-8.1691,-8.1691,-8.1713,-8.1691,-8.1713,-8.1734,-8.1755,-8.1775,-8.1834,-8.1873,-8.1873,-8.1892,-8.1892,-8.1892,-8.1892,-8.1892,-8.1892,-8.1931,-8.2281,-8.2669,-8.3679,-8.469,-8.5428,-8.6205,-8.6904,-8.702,-8.702,-8.702,-8.702,-8.702,-8.702,-8.702,-8.702,-8.702,-8.702,-8.702,-8.702,-8.702,-8.7059,-8.7681,-8.8963,-8.9818,-9.04,-9.1255,-9.2032,-9.211,-9.211,-9.211,-9.211,-9.211,-9.211,-9.211,-9.2131,-9.2171,-9.2187,-9.2243,-9.2276,-9.2377,-9.243,-9.243,-9.243,-9.2391,-9.2432,-9.2429,-9.2471,-9.2498,-9.2514,-6.6712,-6.6702,-6.668,-6.7197,-6.8065,-6.89,-6.9706,-7.0434,-7.1317,-7.2146,-7.292,-7.3923,-7.4744,-7.5444,-7.6221,-7.6687,-7.6687,-7.6687,-7.6687,-7.7114,-7.8435,-7.9134,-7.9911,-8.0825,-8.1854,-8.1796,-8.1814,-8.1794,-8.1691,-8.1674,-8.1713,-8.1646,-8.1639,-8.1654,-8.1701,-8.1701,-8.1678,-8.1606,-8.1577,-8.1577,-8.1553,-8.1528,-8.1528,-8.1528,-8.1528,-8.1577,-8.16,-8.16,-8.1624,-8.1646,-8.1669,-8.1669,-8.1669,-8.1691,-8.1691,-8.1691,-8.1794,-8.1814,-8.1796,-8.1873,-8.1892,-8.1892,-8.1892,-8.1892,-8.1892,-8.1931,-8.2048,-8.2553,-8.3563,-8.434,-8.5078,-8.5894,-8.6671,-8.702,-8.702,-8.702,-8.702,-8.702,-8.702,-8.702,-8.702,-8.702,-8.702,-8.702,-8.702,-8.702,-8.702,-8.7797,-8.9079,-8.9779,-9.0284,-9.1255,-9.211,-9.211,-9.211,-9.211,-9.211,-9.211,-9.211,-9.211,-9.2131,-9.2171,-9.2208,-9.2226,-9.2276,-9.2377,-9.243,-9.243,-9.243,-9.2391,-9.2419,-9.2417,-9.2461,-9.2498,-9.2507,-6.6719,-6.668,-6.6657,-6.7151,-6.8008,-6.8851,-6.9383,-6.9798,-7.0975,-7.1801,-7.2329,-7.3501,-7.4317,-7.4977,-7.6026,-7.6687,-7.6687,-7.6687,-7.6687,-7.692,-7.8396,-7.9038,-7.9757,-8.0728,-8.1677,-8.1734,-8.1713,-8.1691,-8.1646,-8.163,-8.1585,-8.1577,-8.1567,-8.1567,-8.1528,-8.1553,-8.1567,-8.1542,-8.1528,-8.1528,-8.1504,-8.1504,-8.1504,-8.1504,-8.1504,-8.1504,-8.1528,-8.1553,-8.1553,-8.1577,-8.1577,-8.1577,-8.16,-8.16,-8.1646,-8.1646,-8.1691,-8.1755,-8.1796,-8.1854,-8.1892,-8.1892,-8.1892,-8.1892,-8.1892,-8.1892,-8.2164,-8.2747,-8.3757,-8.4573,-8.5428,-8.6282,-8.6904,-8.6982,-8.702,-8.702,-8.702,-8.702,-8.702,-8.702,-8.702,-8.702,-8.702,-8.702,-8.702,-8.702,-8.702,-8.7836,-8.9079,-8.9584,-9.0089,-9.1294,-9.211,-9.211,-9.211,-9.211,-9.211,-9.211,-9.211,-9.211,-9.2112,-9.2171,-9.2208,-9.2226,-9.2293,-9.243,-9.243,-9.243,-9.243,-9.2405,-9.2419,-9.2417,-9.249,-9.2481,-9.2498,-6.6657,-6.6657,-6.662,-6.7074,-6.7917,-6.8773,-6.942,-7.0052,-7.1109,-7.1598,-7.1986,-7.3424,-7.42,-7.4706,-7.5832,-7.6708,-7.6708,-7.6708,-7.6671,-7.6884,-7.8049,-7.8768,-7.9543,-8.051,-8.1265,-8.1514,-8.1669,-8.1624,-8.1577,-8.1562,-8.1538,-8.1528,-8.1504,-8.1542,-8.1504,-8.1504,-8.1504,-8.1504,-8.1504,-8.1504,-8.1504,-8.1504,-8.1504,-8.1504,-8.1504,-8.1504,-8.1504,-8.1504,-8.1504,-8.1504,-8.1504,-8.1504,-8.1528,-8.1528,-8.1577,-8.1577,-8.1624,-8.1695,-8.1776,-8.1776,-8.1796,-8.1796,-8.1873,-8.1892,-8.2009,-8.2203,-8.2553,-8.3213,-8.4165,-8.4903,-8.566,-8.6534,-8.6863,-8.6941,-8.6941,-8.6941,-8.692,-8.692,-8.6941,-8.6941,-8.6961,-8.7,-8.6982,-8.702,-8.702,-8.702,-8.702,-8.7992,-8.8846,-8.9313,-8.9895,-9.1061,-9.1954,-9.2071,-9.2071,-9.211,-9.211,-9.211,-9.211,-9.211,-9.2112,-9.2152,-9.219,-9.2204,-9.2293,-9.2338,-9.2391,-9.2391,-9.2235,-9.2288,-9.2419,-9.2456,-9.249,-9.251,-9.2498,-6.6581,-6.6581,-6.662,-6.715,-6.7928,-6.8978,-7.0153,-7.1481,-7.1559,-7.1598,-7.1714,-7.3424,-7.4183,-7.4533,-7.5931,-7.6651,-7.6691,-7.6691,-7.6672,-7.6885,-7.7681,-7.8339,-7.9093,-7.9958,-8.0748,-8.1291,-8.1562,-8.1577,-8.1504,-8.1528,-8.1528,-8.1504,-8.1504,-8.1504,-8.1504,-8.1504,-8.1504,-8.1504,-8.1504,-8.1504,-8.1504,-8.1504,-8.1504,-8.1504,-8.1504,-8.1504,-8.1504,-8.1504,-8.1504,-8.1504,-8.1504,-8.1504,-8.1504,-8.1504,-8.1504,-8.1528,-8.1577,-8.1613,-8.1698,-8.1718,-8.1737,-8.1751,-8.1814,-8.1854,-8.2184,-8.2592,-8.3058,-8.3757,-8.4668,-8.5191,-8.5851,-8.6311,-8.6793,-8.6832,-8.6832,-8.6832,-8.6832,-8.6832,-8.6854,-8.6877,-8.6899,-8.6899,-8.6941,-8.6941,-8.6941,-8.6941,-8.698,-8.7311,-8.8165,-8.8903,-8.9564,-9.0672,-9.1488,-9.1954,-9.2032,-9.2032,-9.211,-9.211,-9.211,-9.211,-9.2112,-9.2152,-9.219,-9.2204,-9.223,-9.2221,-9.2041,-9.1963,-9.1924,-9.1977,-9.1847,-9.2339,-9.2373,-9.2471,-9.2498,-6.6607,-6.6659,-6.7199,-6.7961,-6.8894,-7.0254,-7.1186,-7.1559,-7.1598,-7.1598,-7.1675,-7.3389,-7.4148,-7.4303,-7.5857,-7.6458,-7.6652,-7.6632,-7.6632,-7.6883,-7.7349,-7.7832,-7.8563,-7.9463,-8.0213,-8.0754,-8.1141,-8.1451,-8.1504,-8.1504,-8.1504,-8.1504,-8.1504,-8.1504,-8.1504,-8.1504,-8.1504,-8.1504,-8.1504,-8.1504,-8.1504,-8.1504,-8.1504,-8.1504,-8.1504,-8.1504,-8.1504,-8.1504,-8.1504,-8.1504,-8.1504,-8.1504,-8.1504,-8.1504,-8.1504,-8.1504,-8.1553,-8.1624,-8.1624,-8.1652,-8.1691,-8.1678,-8.174,-8.2173,-8.2527,-8.2997,-8.3579,-8.4432,-8.5148,-8.5707,-8.6095,-8.6537,-8.6785,-8.6761,-8.6761,-8.6761,-8.6761,-8.6785,-8.6809,-8.6809,-8.6832,-8.6854,-8.6877,-8.6877,-8.6877,-8.6877,-8.6916,-8.7131,-8.7502,-8.83,-8.902,-9.0128,-9.0789,-9.1216,-9.1799,-9.1915,-9.2032,-9.211,-9.2071,-9.2071,-9.2092,-9.2132,-9.2151,-9.2026,-9.1763,-9.1559,-9.1417,-9.1339,-9.1119,-9.0989,-9.0936,-9.166,-9.2256,-9.2325,-9.2459,-6.6581,-6.6694,-6.7456,-6.8451,-6.9694,-7.1037,-7.1603,-7.1603,-7.1603,-7.1758,-7.2207,-7.349,-7.4247,-7.479,-7.5973,-7.6612,-7.6531,-7.657,-7.657,-7.6665,-7.7074,-7.7456,-7.8108,-7.8742,-7.9492,-8.0111,-8.0691,-8.1117,-8.1387,-8.1504,-8.1504,-8.1504,-8.1504,-8.1504,-8.1504,-8.1504,-8.1504,-8.1504,-8.1504,-8.1504,-8.1504,-8.1504,-8.1504,-8.1504,-8.1504,-8.1504,-8.1504,-8.1504,-8.1504,-8.1504,-8.1504,-8.1504,-8.1504,-8.1504,-8.1504,-8.1504,-8.1528,-8.1528,-8.1591,-8.1577,-8.1591,-8.1644,-8.1658,-8.2095,-8.2747,-8.3336,-8.4211,-8.5125,-8.5661,-8.6141,-8.649,-8.6737,-8.6737,-8.6713,-8.6713,-8.6713,-8.6713,-8.6713,-8.6737,-8.6761,-8.6785,-8.6809,-8.6809,-8.6809,-8.6809,-8.6832,-8.6832,-8.6893,-8.7265,-8.7908,-8.8494,-8.9235,-8.9856,-9.04,-9.0983,-9.1449,-9.1488,-9.1605,-9.1993,-9.1993,-9.2053,-9.1996,-9.1953,-9.1537,-9.1077,-9.0858,-9.0599,-9.0301,-9.0119,-9.0,-9.0061,-9.0628,-9.1427,-9.2069,-9.2233,-6.6592,-6.6703,-6.7596,-6.8995,-7.0377,-7.1275,-7.1607,-7.1589,-7.1687,-7.2075,-7.2812,-7.3627,-7.4459,-7.5157,-7.6105,-7.651,-7.6488,-7.6488,-7.6466,-7.6421,-7.6537,-7.6885,-7.7311,-7.7775,-7.8641,-7.9569,-8.0343,-8.0769,-8.131,-8.1478,-8.1453,-8.1478,-8.1478,-8.1478,-8.1465,-8.1453,-8.1453,-8.1453,-8.1453,-8.1478,-8.1504,-8.1504,-8.1504,-8.1504,-8.1504,-8.1504,-8.1504,-8.1504,-8.1504,-8.1504,-8.1504,-8.1504,-8.1504,-8.1504,-8.1504,-8.1504,-8.1504,-8.1504,-8.1542,-8.1528,-8.1528,-8.1542,-8.1542,-8.2045,-8.2675,-8.3227,-8.4064,-8.4916,-8.5434,-8.586,-8.6145,-8.6533,-8.6662,-8.6662,-8.6662,-8.6662,-8.6662,-8.6662,-8.6687,-8.6687,-8.6713,-8.6737,-8.6737,-8.6737,-8.6737,-8.6761,-8.6761,-8.6785,-8.7003,-8.753,-8.8024,-8.8455,-8.8981,-8.9564,-9.0012,-9.0439,-9.0633,-9.0944,-9.1371,-9.1449,-9.1138,-9.1354,-9.1676,-9.1007,-9.0312,-8.9922,-8.9664,-8.9339,-8.913,-8.9181,-8.933,-8.9671,-9.0352,-9.1187,-9.1577,-6.6956,-6.7596,-6.9072,-7.0338,-7.1236,-7.149,-7.1571,-7.1591,-7.2191,-7.254,-7.287,-7.3625,-7.4457,-7.5387,-7.6079,-7.6444,-7.6444,-7.6444,-7.6421,-7.6397,-7.6397,-7.6514,-7.6862,-7.7365,-7.7945,-7.8525,-7.9376,-8.0434,-8.1066,-8.1285,-8.1347,-8.1347,-8.1347,-8.1362,-8.1375,-8.1362,-8.1374,-8.1385,-8.14,-8.1453,-8.1478,-8.1478,-8.1504,-8.1504,-8.1504,-8.1504,-8.1504,-8.1504,-8.1504,-8.1504,-8.1504,-8.1504,-8.1504,-8.1504,-8.1504,-8.1504,-8.1504,-8.1504,-8.1504,-8.1504,-8.1504,-8.1504,-8.162,-8.2084,-8.2573,-8.2946,-8.3527,-8.4378,-8.5036,-8.5398,-8.5785,-8.6184,-8.6532,-8.6532,-8.661,-8.661,-8.661,-8.661,-8.661,-8.6636,-8.6662,-8.6662,-8.6662,-8.6662,-8.6662,-8.6662,-8.6662,-8.6662,-8.6674,-8.7071,-8.7468,-8.7924,-8.8201,-8.8688,-8.9098,-8.9507,-8.974,-8.9895,-9.0206,-9.0245,-9.0245,-9.0304,-9.0414,-9.001,-8.9508,-8.9079,-8.8625,-8.8182,-8.8077,-8.8345,-8.856,-8.8869,-8.915,-8.9867,-9.0257,-6.7072,-6.7985,-6.96,-7.077,-7.1454,-7.1513,-7.1475,-7.161,-7.2323,-7.2904,-7.3313,-7.4104,-7.4934,-7.5631,-7.6227,-7.6397,-7.6397,-7.6397,-7.6397,-7.6397,-7.6397,-7.6374,-7.6645,-7.6891,-7.733,-7.7871,-7.8876,-7.9894,-8.0586,-8.074,-8.0751,-8.1157,-8.1273,-8.128,-8.1285,-8.1319,-8.1273,-8.1321,-8.133,-8.1374,-8.1427,-8.1453,-8.1478,-8.1504,-8.1504,-8.1504,-8.1504,-8.1504,-8.1504,-8.1504,-8.1504,-8.1504,-8.1504,-8.1504,-8.1504,-8.1504,-8.1504,-8.1504,-8.1504,-8.1504,-8.1504,-8.1504,-8.1542,-8.1929,-8.1929,-8.2341,-8.3037,-8.385,-8.4392,-8.4817,-8.4985,-8.5372,-8.572,-8.5848,-8.6339,-8.661,-8.661,-8.661,-8.661,-8.661,-8.6636,-8.6636,-8.6636,-8.6636,-8.6636,-8.6636,-8.661,-8.661,-8.6662,-8.6649,-8.7047,-8.739,-8.7669,-8.7714,-8.789,-8.8437,-8.8924,-8.9041,-8.9157,-8.9527,-8.9741,-8.9332,-8.9051,-8.8973,-8.8651,-8.8157,-8.7663,-8.7493,-8.7448,-8.7741,-8.7924,-8.8057,-8.8344,-8.8624,-8.8865,-6.7121,-6.8124,-6.9761,-7.0834,-7.1397,-7.1435,-7.1415,-7.1549,-7.2358,-7.3187,-7.3922,-7.4811,-7.5701,-7.6165,-7.6397,-7.6397,-7.6397,-7.6374,-7.6374,-7.635,-7.635,-7.6326,-7.6301,-7.6392,-7.6907,-7.746,-7.8309,-7.9047,-7.9768,-7.9866,-8.0136,-8.0923,-8.1176,-8.1147,-8.1263,-8.1273,-8.1244,-8.1261,-8.1282,-8.1263,-8.1347,-8.14,-8.1453,-8.1478,-8.1504,-8.1504,-8.1504,-8.1504,-8.1504,-8.1504,-8.1504,-8.1504,-8.1504,-8.1504,-8.1504,-8.1504,-8.1504,-8.1504,-8.1504,-8.1504,-8.1504,-8.1504,-8.1504,-8.1542,-8.1581,-8.1929,-8.2625,-8.3051,-8.3592,-8.3979,-8.4211,-8.4598,-8.4946,-8.55,-8.6068,-8.661,-8.661,-8.661,-8.661,-8.661,-8.661,-8.661,-8.661,-8.661,-8.661,-8.661,-8.661,-8.661,-8.661,-8.6636,-8.6804,-8.6994,-8.7119,-8.7126,-8.7093,-8.7523,-8.8186,-8.8186,-8.8341,-8.8886,-8.9158,-8.859,-8.825,-8.8233,-8.7871,-8.7573,-8.7442,-8.7387,-8.7341,-8.7369,-8.7503,-8.7713,-8.772,-8.7882,-8.7699,-6.7456,-6.8929,-7.0601,-7.132,-7.1396,-7.1415,-7.1355,-7.1584,-7.2955,-7.3767,-7.4193,-7.543,-7.6281,-7.6397,-7.6397,-7.6374,-7.6326,-7.6326,-7.6276,-7.625,-7.6276,-7.625,-7.6198,-7.6237,-7.6726,-7.7202,-7.761,-7.8065,-7.8738,-7.8853,-7.9199,-8.0054,-8.0169,-8.0461,-8.1116,-8.1154,-8.1154,-8.1162,-8.1193,-8.1205,-8.1234,-8.1319,-8.14,-8.1427,-8.1478,-8.1478,-8.1504,-8.1504,-8.1504,-8.1504,-8.1504,-8.1504,-8.1504,-8.1504,-8.1504,-8.1504,-8.1504,-8.1504,-8.1504,-8.1504,-8.1504,-8.1504,-8.1504,-8.1542,-8.1542,-8.1542,-8.2006,-8.2084,-8.2548,-8.2973,-8.3283,-8.3902,-8.4366,-8.5256,-8.5991,-8.6377,-8.6571,-8.661,-8.661,-8.661,-8.661,-8.661,-8.661,-8.661,-8.661,-8.661,-8.661,-8.661,-8.661,-8.661,-8.6597,-8.6713,-8.6785,-8.6832,-8.6937,-8.7019,-8.7448,-8.7409,-8.7506,-8.7973,-8.8048,-8.7634,-8.7425,-8.7624,-8.7573,-8.7351,-8.7259,-8.7331,-8.7351,-8.7377,-8.7393,-8.7446,-8.7368,-8.7219,-8.7035]}]]